<?xml version="1.0" encoding="UTF-8" standalone="no" ?>
<gpx xmlns="http://www.topografix.com/GPX/1/1" xmlns:xsi="http://www.w3.org/2001/XMLSchema-instance" xsi:schemaLocation="http://www.topografix.com/GPX/1/1 http://www.topografix.com/GPX/1/1/gpx.xsd" version="1.1" creator="VisuGPX - https://www.visugpx.com">
  <metadata>
    <name>Echiré 11km</name>
    <desc><![CDATA[Passages parfois innondés ou difficiles !!!
A faire plutôt l'été !]]></desc>
  </metadata>
  <trk>
    <name><![CDATA[Echiré 11km_1]]></name>
    <trkseg>
      <trkpt lat="46.39213" lon="-0.41767">
        <ele>80</ele>
        <time>2011-11-24T09:27:31Z</time>
      </trkpt>
      <trkpt lat="46.39218" lon="-0.41767">
        <ele>80</ele>
        <time>2011-11-24T09:27:46Z</time>
      </trkpt>
      <trkpt lat="46.3922" lon="-0.41767">
        <ele>79</ele>
        <time>2011-11-24T09:27:51Z</time>
      </trkpt>
      <trkpt lat="46.39222" lon="-0.41767">
        <ele>80</ele>
        <time>2011-11-24T09:27:56Z</time>
      </trkpt>
      <trkpt lat="46.39221" lon="-0.41768">
        <ele>81</ele>
        <time>2011-11-24T09:28:01Z</time>
      </trkpt>
      <trkpt lat="46.39221" lon="-0.41768">
        <ele>82</ele>
        <time>2011-11-24T09:28:06Z</time>
      </trkpt>
      <trkpt lat="46.3922" lon="-0.4177">
        <ele>83</ele>
        <time>2011-11-24T09:28:11Z</time>
      </trkpt>
      <trkpt lat="46.3922" lon="-0.41769">
        <ele>83</ele>
        <time>2011-11-24T09:28:16Z</time>
      </trkpt>
      <trkpt lat="46.39219" lon="-0.41768">
        <ele>82</ele>
        <time>2011-11-24T09:28:21Z</time>
      </trkpt>
      <trkpt lat="46.39218" lon="-0.41768">
        <ele>82</ele>
        <time>2011-11-24T09:28:26Z</time>
      </trkpt>
      <trkpt lat="46.39218" lon="-0.41767">
        <ele>82</ele>
        <time>2011-11-24T09:28:41Z</time>
      </trkpt>
      <trkpt lat="46.39217" lon="-0.41767">
        <ele>83</ele>
        <time>2011-11-24T09:28:46Z</time>
      </trkpt>
      <trkpt lat="46.39218" lon="-0.41768">
        <ele>83</ele>
        <time>2011-11-24T09:29:06Z</time>
      </trkpt>
      <trkpt lat="46.39218" lon="-0.41769">
        <ele>83</ele>
        <time>2011-11-24T09:29:11Z</time>
      </trkpt>
      <trkpt lat="46.39219" lon="-0.41769">
        <ele>83</ele>
        <time>2011-11-24T09:29:26Z</time>
      </trkpt>
      <trkpt lat="46.39218" lon="-0.41769">
        <ele>83</ele>
        <time>2011-11-24T09:29:36Z</time>
      </trkpt>
      <trkpt lat="46.39218" lon="-0.41769">
        <ele>83</ele>
        <time>2011-11-24T09:30:26Z</time>
      </trkpt>
      <trkpt lat="46.39218" lon="-0.41768">
        <ele>84</ele>
        <time>2011-11-24T09:30:36Z</time>
      </trkpt>
      <trkpt lat="46.39217" lon="-0.41767">
        <ele>84</ele>
        <time>2011-11-24T09:30:41Z</time>
      </trkpt>
      <trkpt lat="46.39218" lon="-0.41768">
        <ele>84</ele>
        <time>2011-11-24T09:30:46Z</time>
      </trkpt>
      <trkpt lat="46.39216" lon="-0.41773">
        <ele>84</ele>
        <time>2011-11-24T09:30:51Z</time>
      </trkpt>
      <trkpt lat="46.39216" lon="-0.41779">
        <ele>84</ele>
        <time>2011-11-24T09:30:56Z</time>
      </trkpt>
      <trkpt lat="46.39218" lon="-0.41785">
        <ele>85</ele>
        <time>2011-11-24T09:31:01Z</time>
      </trkpt>
      <trkpt lat="46.39223" lon="-0.41786">
        <ele>85</ele>
        <time>2011-11-24T09:31:06Z</time>
      </trkpt>
      <trkpt lat="46.39229" lon="-0.41787">
        <ele>86</ele>
        <time>2011-11-24T09:31:11Z</time>
      </trkpt>
      <trkpt lat="46.39233" lon="-0.41788">
        <ele>86</ele>
        <time>2011-11-24T09:31:16Z</time>
      </trkpt>
      <trkpt lat="46.39238" lon="-0.41791">
        <ele>86</ele>
        <time>2011-11-24T09:31:21Z</time>
      </trkpt>
      <trkpt lat="46.39243" lon="-0.41791">
        <ele>86</ele>
        <time>2011-11-24T09:31:26Z</time>
      </trkpt>
      <trkpt lat="46.39248" lon="-0.4179">
        <ele>85</ele>
        <time>2011-11-24T09:31:31Z</time>
      </trkpt>
      <trkpt lat="46.39253" lon="-0.41788">
        <ele>85</ele>
        <time>2011-11-24T09:31:36Z</time>
      </trkpt>
      <trkpt lat="46.39258" lon="-0.41787">
        <ele>85</ele>
        <time>2011-11-24T09:31:41Z</time>
      </trkpt>
      <trkpt lat="46.39263" lon="-0.41786">
        <ele>86</ele>
        <time>2011-11-24T09:31:46Z</time>
      </trkpt>
      <trkpt lat="46.39267" lon="-0.41787">
        <ele>86</ele>
        <time>2011-11-24T09:31:51Z</time>
      </trkpt>
      <trkpt lat="46.39272" lon="-0.41787">
        <ele>86</ele>
        <time>2011-11-24T09:31:56Z</time>
      </trkpt>
      <trkpt lat="46.39279" lon="-0.41785">
        <ele>87</ele>
        <time>2011-11-24T09:32:01Z</time>
      </trkpt>
      <trkpt lat="46.39286" lon="-0.41786">
        <ele>88</ele>
        <time>2011-11-24T09:32:06Z</time>
      </trkpt>
      <trkpt lat="46.39288" lon="-0.41786">
        <ele>87</ele>
        <time>2011-11-24T09:32:11Z</time>
      </trkpt>
      <trkpt lat="46.39291" lon="-0.41784">
        <ele>87</ele>
        <time>2011-11-24T09:32:16Z</time>
      </trkpt>
      <trkpt lat="46.39297" lon="-0.41782">
        <ele>88</ele>
        <time>2011-11-24T09:32:21Z</time>
      </trkpt>
      <trkpt lat="46.39305" lon="-0.41781">
        <ele>88</ele>
        <time>2011-11-24T09:32:26Z</time>
      </trkpt>
      <trkpt lat="46.39312" lon="-0.4178">
        <ele>87</ele>
        <time>2011-11-24T09:32:31Z</time>
      </trkpt>
      <trkpt lat="46.39319" lon="-0.41778">
        <ele>88</ele>
        <time>2011-11-24T09:32:36Z</time>
      </trkpt>
      <trkpt lat="46.39325" lon="-0.41776">
        <ele>89</ele>
        <time>2011-11-24T09:32:41Z</time>
      </trkpt>
      <trkpt lat="46.39331" lon="-0.41777">
        <ele>88</ele>
        <time>2011-11-24T09:32:46Z</time>
      </trkpt>
      <trkpt lat="46.39335" lon="-0.41777">
        <ele>88</ele>
        <time>2011-11-24T09:32:51Z</time>
      </trkpt>
      <trkpt lat="46.39342" lon="-0.41776">
        <ele>88</ele>
        <time>2011-11-24T09:32:56Z</time>
      </trkpt>
      <trkpt lat="46.39346" lon="-0.41776">
        <ele>86</ele>
        <time>2011-11-24T09:33:01Z</time>
      </trkpt>
      <trkpt lat="46.3935" lon="-0.41773">
        <ele>85</ele>
        <time>2011-11-24T09:33:06Z</time>
      </trkpt>
      <trkpt lat="46.39356" lon="-0.41773">
        <ele>85</ele>
        <time>2011-11-24T09:33:11Z</time>
      </trkpt>
      <trkpt lat="46.39363" lon="-0.41773">
        <ele>85</ele>
        <time>2011-11-24T09:33:16Z</time>
      </trkpt>
      <trkpt lat="46.39368" lon="-0.41773">
        <ele>84</ele>
        <time>2011-11-24T09:33:21Z</time>
      </trkpt>
      <trkpt lat="46.39373" lon="-0.41772">
        <ele>84</ele>
        <time>2011-11-24T09:33:26Z</time>
      </trkpt>
      <trkpt lat="46.39378" lon="-0.41772">
        <ele>85</ele>
        <time>2011-11-24T09:33:31Z</time>
      </trkpt>
      <trkpt lat="46.39384" lon="-0.41772">
        <ele>85</ele>
        <time>2011-11-24T09:33:36Z</time>
      </trkpt>
      <trkpt lat="46.39389" lon="-0.41771">
        <ele>86</ele>
        <time>2011-11-24T09:33:41Z</time>
      </trkpt>
      <trkpt lat="46.39393" lon="-0.41771">
        <ele>87</ele>
        <time>2011-11-24T09:33:46Z</time>
      </trkpt>
      <trkpt lat="46.39397" lon="-0.41775">
        <ele>87</ele>
        <time>2011-11-24T09:33:51Z</time>
      </trkpt>
      <trkpt lat="46.39396" lon="-0.41785">
        <ele>87</ele>
        <time>2011-11-24T09:33:56Z</time>
      </trkpt>
      <trkpt lat="46.39397" lon="-0.41792">
        <ele>86</ele>
        <time>2011-11-24T09:34:01Z</time>
      </trkpt>
      <trkpt lat="46.39399" lon="-0.41799">
        <ele>86</ele>
        <time>2011-11-24T09:34:06Z</time>
      </trkpt>
      <trkpt lat="46.394" lon="-0.41806">
        <ele>85</ele>
        <time>2011-11-24T09:34:11Z</time>
      </trkpt>
      <trkpt lat="46.39399" lon="-0.41812">
        <ele>87</ele>
        <time>2011-11-24T09:34:16Z</time>
      </trkpt>
      <trkpt lat="46.39398" lon="-0.41823">
        <ele>87</ele>
        <time>2011-11-24T09:34:21Z</time>
      </trkpt>
      <trkpt lat="46.39399" lon="-0.41824">
        <ele>87</ele>
        <time>2011-11-24T09:34:26Z</time>
      </trkpt>
      <trkpt lat="46.39399" lon="-0.41834">
        <ele>87</ele>
        <time>2011-11-24T09:34:31Z</time>
      </trkpt>
      <trkpt lat="46.39398" lon="-0.41842">
        <ele>86</ele>
        <time>2011-11-24T09:34:36Z</time>
      </trkpt>
      <trkpt lat="46.39402" lon="-0.41848">
        <ele>85</ele>
        <time>2011-11-24T09:34:41Z</time>
      </trkpt>
      <trkpt lat="46.39404" lon="-0.41852">
        <ele>84</ele>
        <time>2011-11-24T09:34:46Z</time>
      </trkpt>
      <trkpt lat="46.39402" lon="-0.41861">
        <ele>84</ele>
        <time>2011-11-24T09:34:51Z</time>
      </trkpt>
      <trkpt lat="46.39399" lon="-0.41868">
        <ele>84</ele>
        <time>2011-11-24T09:34:56Z</time>
      </trkpt>
      <trkpt lat="46.39399" lon="-0.41873">
        <ele>83</ele>
        <time>2011-11-24T09:35:01Z</time>
      </trkpt>
      <trkpt lat="46.394" lon="-0.41881">
        <ele>82</ele>
        <time>2011-11-24T09:35:06Z</time>
      </trkpt>
      <trkpt lat="46.394" lon="-0.41889">
        <ele>81</ele>
        <time>2011-11-24T09:35:11Z</time>
      </trkpt>
      <trkpt lat="46.394" lon="-0.41896">
        <ele>80</ele>
        <time>2011-11-24T09:35:16Z</time>
      </trkpt>
      <trkpt lat="46.39398" lon="-0.41901">
        <ele>79</ele>
        <time>2011-11-24T09:35:21Z</time>
      </trkpt>
      <trkpt lat="46.39397" lon="-0.41911">
        <ele>76</ele>
        <time>2011-11-24T09:35:26Z</time>
      </trkpt>
      <trkpt lat="46.39398" lon="-0.4192">
        <ele>78</ele>
        <time>2011-11-24T09:35:31Z</time>
      </trkpt>
      <trkpt lat="46.39397" lon="-0.41929">
        <ele>77</ele>
        <time>2011-11-24T09:35:36Z</time>
      </trkpt>
      <trkpt lat="46.39395" lon="-0.41937">
        <ele>77</ele>
        <time>2011-11-24T09:35:41Z</time>
      </trkpt>
      <trkpt lat="46.39393" lon="-0.41942">
        <ele>75</ele>
        <time>2011-11-24T09:35:46Z</time>
      </trkpt>
      <trkpt lat="46.39392" lon="-0.41948">
        <ele>74</ele>
        <time>2011-11-24T09:35:51Z</time>
      </trkpt>
      <trkpt lat="46.39389" lon="-0.4196">
        <ele>77</ele>
        <time>2011-11-24T09:35:56Z</time>
      </trkpt>
      <trkpt lat="46.39387" lon="-0.41971">
        <ele>79</ele>
        <time>2011-11-24T09:36:01Z</time>
      </trkpt>
      <trkpt lat="46.39384" lon="-0.4198">
        <ele>81</ele>
        <time>2011-11-24T09:36:06Z</time>
      </trkpt>
      <trkpt lat="46.39382" lon="-0.41986">
        <ele>81</ele>
        <time>2011-11-24T09:36:11Z</time>
      </trkpt>
      <trkpt lat="46.3938" lon="-0.41993">
        <ele>81</ele>
        <time>2011-11-24T09:36:16Z</time>
      </trkpt>
      <trkpt lat="46.39379" lon="-0.42007">
        <ele>83</ele>
        <time>2011-11-24T09:36:21Z</time>
      </trkpt>
      <trkpt lat="46.39375" lon="-0.42018">
        <ele>84</ele>
        <time>2011-11-24T09:36:26Z</time>
      </trkpt>
      <trkpt lat="46.39374" lon="-0.42023">
        <ele>81</ele>
        <time>2011-11-24T09:36:31Z</time>
      </trkpt>
      <trkpt lat="46.39371" lon="-0.42028">
        <ele>82</ele>
        <time>2011-11-24T09:36:36Z</time>
      </trkpt>
      <trkpt lat="46.39367" lon="-0.42032">
        <ele>83</ele>
        <time>2011-11-24T09:36:41Z</time>
      </trkpt>
      <trkpt lat="46.39362" lon="-0.42032">
        <ele>84</ele>
        <time>2011-11-24T09:36:46Z</time>
      </trkpt>
      <trkpt lat="46.39354" lon="-0.42037">
        <ele>84</ele>
        <time>2011-11-24T09:36:51Z</time>
      </trkpt>
      <trkpt lat="46.39354" lon="-0.42046">
        <ele>82</ele>
        <time>2011-11-24T09:36:56Z</time>
      </trkpt>
      <trkpt lat="46.39356" lon="-0.42054">
        <ele>81</ele>
        <time>2011-11-24T09:37:01Z</time>
      </trkpt>
      <trkpt lat="46.39358" lon="-0.42062">
        <ele>80</ele>
        <time>2011-11-24T09:37:06Z</time>
      </trkpt>
      <trkpt lat="46.39362" lon="-0.42068">
        <ele>79</ele>
        <time>2011-11-24T09:37:11Z</time>
      </trkpt>
      <trkpt lat="46.39366" lon="-0.42076">
        <ele>79</ele>
        <time>2011-11-24T09:37:16Z</time>
      </trkpt>
      <trkpt lat="46.39369" lon="-0.42085">
        <ele>80</ele>
        <time>2011-11-24T09:37:21Z</time>
      </trkpt>
      <trkpt lat="46.39371" lon="-0.42092">
        <ele>80</ele>
        <time>2011-11-24T09:37:26Z</time>
      </trkpt>
      <trkpt lat="46.39375" lon="-0.42098">
        <ele>80</ele>
        <time>2011-11-24T09:37:31Z</time>
      </trkpt>
      <trkpt lat="46.39378" lon="-0.42105">
        <ele>81</ele>
        <time>2011-11-24T09:37:36Z</time>
      </trkpt>
      <trkpt lat="46.3938" lon="-0.42112">
        <ele>81</ele>
        <time>2011-11-24T09:37:41Z</time>
      </trkpt>
      <trkpt lat="46.39383" lon="-0.4212">
        <ele>80</ele>
        <time>2011-11-24T09:37:46Z</time>
      </trkpt>
      <trkpt lat="46.39384" lon="-0.42131">
        <ele>81</ele>
        <time>2011-11-24T09:37:51Z</time>
      </trkpt>
      <trkpt lat="46.3938" lon="-0.42136">
        <ele>81</ele>
        <time>2011-11-24T09:37:56Z</time>
      </trkpt>
      <trkpt lat="46.39378" lon="-0.42144">
        <ele>81</ele>
        <time>2011-11-24T09:38:01Z</time>
      </trkpt>
      <trkpt lat="46.39378" lon="-0.42151">
        <ele>80</ele>
        <time>2011-11-24T09:38:06Z</time>
      </trkpt>
      <trkpt lat="46.39378" lon="-0.42162">
        <ele>81</ele>
        <time>2011-11-24T09:38:11Z</time>
      </trkpt>
      <trkpt lat="46.39382" lon="-0.42162">
        <ele>80</ele>
        <time>2011-11-24T09:38:16Z</time>
      </trkpt>
      <trkpt lat="46.39382" lon="-0.42176">
        <ele>80</ele>
        <time>2011-11-24T09:38:21Z</time>
      </trkpt>
      <trkpt lat="46.39383" lon="-0.42181">
        <ele>80</ele>
        <time>2011-11-24T09:38:26Z</time>
      </trkpt>
      <trkpt lat="46.39383" lon="-0.42186">
        <ele>80</ele>
        <time>2011-11-24T09:38:31Z</time>
      </trkpt>
      <trkpt lat="46.39382" lon="-0.42199">
        <ele>79</ele>
        <time>2011-11-24T09:38:36Z</time>
      </trkpt>
      <trkpt lat="46.39381" lon="-0.42208">
        <ele>77</ele>
        <time>2011-11-24T09:38:41Z</time>
      </trkpt>
      <trkpt lat="46.39384" lon="-0.42217">
        <ele>78</ele>
        <time>2011-11-24T09:38:46Z</time>
      </trkpt>
      <trkpt lat="46.39383" lon="-0.42224">
        <ele>78</ele>
        <time>2011-11-24T09:38:51Z</time>
      </trkpt>
      <trkpt lat="46.39383" lon="-0.42233">
        <ele>77</ele>
        <time>2011-11-24T09:38:56Z</time>
      </trkpt>
      <trkpt lat="46.39384" lon="-0.42242">
        <ele>77</ele>
        <time>2011-11-24T09:39:01Z</time>
      </trkpt>
      <trkpt lat="46.39384" lon="-0.42252">
        <ele>79</ele>
        <time>2011-11-24T09:39:06Z</time>
      </trkpt>
      <trkpt lat="46.39384" lon="-0.42261">
        <ele>80</ele>
        <time>2011-11-24T09:39:11Z</time>
      </trkpt>
      <trkpt lat="46.39383" lon="-0.42272">
        <ele>84</ele>
        <time>2011-11-24T09:39:16Z</time>
      </trkpt>
      <trkpt lat="46.39384" lon="-0.42278">
        <ele>83</ele>
        <time>2011-11-24T09:39:21Z</time>
      </trkpt>
      <trkpt lat="46.39382" lon="-0.42285">
        <ele>81</ele>
        <time>2011-11-24T09:39:26Z</time>
      </trkpt>
      <trkpt lat="46.39381" lon="-0.42294">
        <ele>81</ele>
        <time>2011-11-24T09:39:31Z</time>
      </trkpt>
      <trkpt lat="46.39378" lon="-0.42302">
        <ele>81</ele>
        <time>2011-11-24T09:39:36Z</time>
      </trkpt>
      <trkpt lat="46.39377" lon="-0.42308">
        <ele>80</ele>
        <time>2011-11-24T09:39:41Z</time>
      </trkpt>
      <trkpt lat="46.39375" lon="-0.42319">
        <ele>81</ele>
        <time>2011-11-24T09:39:46Z</time>
      </trkpt>
      <trkpt lat="46.39372" lon="-0.42327">
        <ele>83</ele>
        <time>2011-11-24T09:39:51Z</time>
      </trkpt>
      <trkpt lat="46.3937" lon="-0.42337">
        <ele>84</ele>
        <time>2011-11-24T09:39:56Z</time>
      </trkpt>
      <trkpt lat="46.39371" lon="-0.42345">
        <ele>83</ele>
        <time>2011-11-24T09:40:01Z</time>
      </trkpt>
      <trkpt lat="46.39372" lon="-0.42352">
        <ele>82</ele>
        <time>2011-11-24T09:40:06Z</time>
      </trkpt>
      <trkpt lat="46.39374" lon="-0.42362">
        <ele>81</ele>
        <time>2011-11-24T09:40:11Z</time>
      </trkpt>
      <trkpt lat="46.39376" lon="-0.42369">
        <ele>81</ele>
        <time>2011-11-24T09:40:16Z</time>
      </trkpt>
      <trkpt lat="46.39378" lon="-0.42378">
        <ele>81</ele>
        <time>2011-11-24T09:40:21Z</time>
      </trkpt>
      <trkpt lat="46.39379" lon="-0.42385">
        <ele>81</ele>
        <time>2011-11-24T09:40:26Z</time>
      </trkpt>
      <trkpt lat="46.3938" lon="-0.42393">
        <ele>81</ele>
        <time>2011-11-24T09:40:31Z</time>
      </trkpt>
      <trkpt lat="46.39382" lon="-0.42401">
        <ele>79</ele>
        <time>2011-11-24T09:40:36Z</time>
      </trkpt>
      <trkpt lat="46.39384" lon="-0.4241">
        <ele>79</ele>
        <time>2011-11-24T09:40:41Z</time>
      </trkpt>
      <trkpt lat="46.39385" lon="-0.42419">
        <ele>80</ele>
        <time>2011-11-24T09:40:46Z</time>
      </trkpt>
      <trkpt lat="46.39388" lon="-0.42424">
        <ele>79</ele>
        <time>2011-11-24T09:40:51Z</time>
      </trkpt>
      <trkpt lat="46.39391" lon="-0.42432">
        <ele>80</ele>
        <time>2011-11-24T09:40:56Z</time>
      </trkpt>
      <trkpt lat="46.39394" lon="-0.42439">
        <ele>80</ele>
        <time>2011-11-24T09:41:01Z</time>
      </trkpt>
      <trkpt lat="46.39397" lon="-0.42445">
        <ele>80</ele>
        <time>2011-11-24T09:41:06Z</time>
      </trkpt>
      <trkpt lat="46.39399" lon="-0.42451">
        <ele>80</ele>
        <time>2011-11-24T09:41:11Z</time>
      </trkpt>
      <trkpt lat="46.39403" lon="-0.42457">
        <ele>79</ele>
        <time>2011-11-24T09:41:16Z</time>
      </trkpt>
      <trkpt lat="46.39408" lon="-0.42465">
        <ele>79</ele>
        <time>2011-11-24T09:41:21Z</time>
      </trkpt>
      <trkpt lat="46.39413" lon="-0.42473">
        <ele>80</ele>
        <time>2011-11-24T09:41:26Z</time>
      </trkpt>
      <trkpt lat="46.39417" lon="-0.42479">
        <ele>80</ele>
        <time>2011-11-24T09:41:31Z</time>
      </trkpt>
      <trkpt lat="46.39422" lon="-0.42484">
        <ele>81</ele>
        <time>2011-11-24T09:41:36Z</time>
      </trkpt>
      <trkpt lat="46.39425" lon="-0.42488">
        <ele>80</ele>
        <time>2011-11-24T09:41:41Z</time>
      </trkpt>
      <trkpt lat="46.39429" lon="-0.42494">
        <ele>78</ele>
        <time>2011-11-24T09:41:46Z</time>
      </trkpt>
      <trkpt lat="46.39428" lon="-0.42498">
        <ele>75</ele>
        <time>2011-11-24T09:41:51Z</time>
      </trkpt>
      <trkpt lat="46.3943" lon="-0.42505">
        <ele>76</ele>
        <time>2011-11-24T09:41:56Z</time>
      </trkpt>
      <trkpt lat="46.39432" lon="-0.4251">
        <ele>77</ele>
        <time>2011-11-24T09:42:01Z</time>
      </trkpt>
      <trkpt lat="46.39439" lon="-0.42517">
        <ele>77</ele>
        <time>2011-11-24T09:42:06Z</time>
      </trkpt>
      <trkpt lat="46.39445" lon="-0.42521">
        <ele>76</ele>
        <time>2011-11-24T09:42:11Z</time>
      </trkpt>
      <trkpt lat="46.39449" lon="-0.42524">
        <ele>77</ele>
        <time>2011-11-24T09:42:16Z</time>
      </trkpt>
      <trkpt lat="46.39454" lon="-0.42527">
        <ele>77</ele>
        <time>2011-11-24T09:42:21Z</time>
      </trkpt>
      <trkpt lat="46.3946" lon="-0.42532">
        <ele>80</ele>
        <time>2011-11-24T09:42:26Z</time>
      </trkpt>
      <trkpt lat="46.39464" lon="-0.42535">
        <ele>79</ele>
        <time>2011-11-24T09:42:31Z</time>
      </trkpt>
      <trkpt lat="46.39466" lon="-0.42537">
        <ele>80</ele>
        <time>2011-11-24T09:42:36Z</time>
      </trkpt>
      <trkpt lat="46.39472" lon="-0.42543">
        <ele>80</ele>
        <time>2011-11-24T09:42:41Z</time>
      </trkpt>
      <trkpt lat="46.39478" lon="-0.42545">
        <ele>82</ele>
        <time>2011-11-24T09:42:46Z</time>
      </trkpt>
      <trkpt lat="46.39482" lon="-0.4255">
        <ele>82</ele>
        <time>2011-11-24T09:42:51Z</time>
      </trkpt>
      <trkpt lat="46.39486" lon="-0.42554">
        <ele>80</ele>
        <time>2011-11-24T09:42:56Z</time>
      </trkpt>
      <trkpt lat="46.3949" lon="-0.42557">
        <ele>81</ele>
        <time>2011-11-24T09:43:01Z</time>
      </trkpt>
      <trkpt lat="46.39496" lon="-0.42561">
        <ele>82</ele>
        <time>2011-11-24T09:43:06Z</time>
      </trkpt>
      <trkpt lat="46.39502" lon="-0.42565">
        <ele>82</ele>
        <time>2011-11-24T09:43:11Z</time>
      </trkpt>
      <trkpt lat="46.39507" lon="-0.4257">
        <ele>84</ele>
        <time>2011-11-24T09:43:16Z</time>
      </trkpt>
      <trkpt lat="46.39512" lon="-0.42574">
        <ele>84</ele>
        <time>2011-11-24T09:43:21Z</time>
      </trkpt>
      <trkpt lat="46.39515" lon="-0.42578">
        <ele>85</ele>
        <time>2011-11-24T09:43:26Z</time>
      </trkpt>
      <trkpt lat="46.39521" lon="-0.42585">
        <ele>85</ele>
        <time>2011-11-24T09:43:31Z</time>
      </trkpt>
      <trkpt lat="46.39527" lon="-0.4259">
        <ele>85</ele>
        <time>2011-11-24T09:43:36Z</time>
      </trkpt>
      <trkpt lat="46.39533" lon="-0.42596">
        <ele>84</ele>
        <time>2011-11-24T09:43:41Z</time>
      </trkpt>
      <trkpt lat="46.39539" lon="-0.426">
        <ele>86</ele>
        <time>2011-11-24T09:43:46Z</time>
      </trkpt>
      <trkpt lat="46.39544" lon="-0.42606">
        <ele>86</ele>
        <time>2011-11-24T09:43:51Z</time>
      </trkpt>
      <trkpt lat="46.39547" lon="-0.42608">
        <ele>87</ele>
        <time>2011-11-24T09:43:56Z</time>
      </trkpt>
      <trkpt lat="46.39554" lon="-0.42611">
        <ele>87</ele>
        <time>2011-11-24T09:44:01Z</time>
      </trkpt>
      <trkpt lat="46.39557" lon="-0.42615">
        <ele>87</ele>
        <time>2011-11-24T09:44:06Z</time>
      </trkpt>
      <trkpt lat="46.39564" lon="-0.42617">
        <ele>87</ele>
        <time>2011-11-24T09:44:11Z</time>
      </trkpt>
      <trkpt lat="46.3957" lon="-0.42619">
        <ele>87</ele>
        <time>2011-11-24T09:44:16Z</time>
      </trkpt>
      <trkpt lat="46.39573" lon="-0.42621">
        <ele>86</ele>
        <time>2011-11-24T09:44:21Z</time>
      </trkpt>
      <trkpt lat="46.39579" lon="-0.42624">
        <ele>84</ele>
        <time>2011-11-24T09:44:26Z</time>
      </trkpt>
      <trkpt lat="46.39585" lon="-0.42628">
        <ele>85</ele>
        <time>2011-11-24T09:44:31Z</time>
      </trkpt>
      <trkpt lat="46.39592" lon="-0.42629">
        <ele>84</ele>
        <time>2011-11-24T09:44:36Z</time>
      </trkpt>
      <trkpt lat="46.39598" lon="-0.4263">
        <ele>85</ele>
        <time>2011-11-24T09:44:41Z</time>
      </trkpt>
      <trkpt lat="46.39603" lon="-0.42632">
        <ele>86</ele>
        <time>2011-11-24T09:44:46Z</time>
      </trkpt>
      <trkpt lat="46.39607" lon="-0.42635">
        <ele>86</ele>
        <time>2011-11-24T09:44:51Z</time>
      </trkpt>
      <trkpt lat="46.39612" lon="-0.42635">
        <ele>86</ele>
        <time>2011-11-24T09:44:56Z</time>
      </trkpt>
      <trkpt lat="46.39618" lon="-0.42637">
        <ele>86</ele>
        <time>2011-11-24T09:45:01Z</time>
      </trkpt>
      <trkpt lat="46.39625" lon="-0.42639">
        <ele>88</ele>
        <time>2011-11-24T09:45:06Z</time>
      </trkpt>
      <trkpt lat="46.39631" lon="-0.42643">
        <ele>88</ele>
        <time>2011-11-24T09:45:11Z</time>
      </trkpt>
      <trkpt lat="46.39639" lon="-0.42645">
        <ele>88</ele>
        <time>2011-11-24T09:45:16Z</time>
      </trkpt>
      <trkpt lat="46.39643" lon="-0.42647">
        <ele>87</ele>
        <time>2011-11-24T09:45:21Z</time>
      </trkpt>
      <trkpt lat="46.39646" lon="-0.4265">
        <ele>86</ele>
        <time>2011-11-24T09:45:26Z</time>
      </trkpt>
      <trkpt lat="46.3965" lon="-0.42653">
        <ele>85</ele>
        <time>2011-11-24T09:45:31Z</time>
      </trkpt>
      <trkpt lat="46.39651" lon="-0.42664">
        <ele>87</ele>
        <time>2011-11-24T09:45:36Z</time>
      </trkpt>
      <trkpt lat="46.39654" lon="-0.4267">
        <ele>88</ele>
        <time>2011-11-24T09:45:41Z</time>
      </trkpt>
      <trkpt lat="46.39657" lon="-0.42672">
        <ele>85</ele>
        <time>2011-11-24T09:45:46Z</time>
      </trkpt>
      <trkpt lat="46.39658" lon="-0.4268">
        <ele>87</ele>
        <time>2011-11-24T09:45:51Z</time>
      </trkpt>
      <trkpt lat="46.39663" lon="-0.42686">
        <ele>86</ele>
        <time>2011-11-24T09:45:56Z</time>
      </trkpt>
      <trkpt lat="46.39665" lon="-0.42692">
        <ele>83</ele>
        <time>2011-11-24T09:46:01Z</time>
      </trkpt>
      <trkpt lat="46.3967" lon="-0.42698">
        <ele>82</ele>
        <time>2011-11-24T09:46:06Z</time>
      </trkpt>
      <trkpt lat="46.39674" lon="-0.42704">
        <ele>82</ele>
        <time>2011-11-24T09:46:11Z</time>
      </trkpt>
      <trkpt lat="46.3968" lon="-0.42705">
        <ele>82</ele>
        <time>2011-11-24T09:46:16Z</time>
      </trkpt>
      <trkpt lat="46.39684" lon="-0.42702">
        <ele>83</ele>
        <time>2011-11-24T09:46:21Z</time>
      </trkpt>
      <trkpt lat="46.39689" lon="-0.42697">
        <ele>83</ele>
        <time>2011-11-24T09:46:26Z</time>
      </trkpt>
      <trkpt lat="46.39694" lon="-0.42693">
        <ele>82</ele>
        <time>2011-11-24T09:46:31Z</time>
      </trkpt>
      <trkpt lat="46.39704" lon="-0.42691">
        <ele>84</ele>
        <time>2011-11-24T09:46:36Z</time>
      </trkpt>
      <trkpt lat="46.39709" lon="-0.42688">
        <ele>82</ele>
        <time>2011-11-24T09:46:41Z</time>
      </trkpt>
      <trkpt lat="46.39714" lon="-0.42685">
        <ele>81</ele>
        <time>2011-11-24T09:46:46Z</time>
      </trkpt>
      <trkpt lat="46.39721" lon="-0.42686">
        <ele>81</ele>
        <time>2011-11-24T09:46:51Z</time>
      </trkpt>
      <trkpt lat="46.39725" lon="-0.42685">
        <ele>82</ele>
        <time>2011-11-24T09:46:56Z</time>
      </trkpt>
      <trkpt lat="46.39731" lon="-0.42684">
        <ele>83</ele>
        <time>2011-11-24T09:47:01Z</time>
      </trkpt>
      <trkpt lat="46.39734" lon="-0.42684">
        <ele>81</ele>
        <time>2011-11-24T09:47:06Z</time>
      </trkpt>
      <trkpt lat="46.39738" lon="-0.42684">
        <ele>84</ele>
        <time>2011-11-24T09:47:11Z</time>
      </trkpt>
      <trkpt lat="46.39745" lon="-0.42684">
        <ele>84</ele>
        <time>2011-11-24T09:47:16Z</time>
      </trkpt>
      <trkpt lat="46.39752" lon="-0.42683">
        <ele>85</ele>
        <time>2011-11-24T09:47:21Z</time>
      </trkpt>
      <trkpt lat="46.39755" lon="-0.42681">
        <ele>85</ele>
        <time>2011-11-24T09:47:26Z</time>
      </trkpt>
      <trkpt lat="46.39758" lon="-0.42676">
        <ele>86</ele>
        <time>2011-11-24T09:47:31Z</time>
      </trkpt>
      <trkpt lat="46.39762" lon="-0.42671">
        <ele>88</ele>
        <time>2011-11-24T09:47:36Z</time>
      </trkpt>
      <trkpt lat="46.39768" lon="-0.42671">
        <ele>89</ele>
        <time>2011-11-24T09:47:41Z</time>
      </trkpt>
      <trkpt lat="46.39773" lon="-0.4267">
        <ele>91</ele>
        <time>2011-11-24T09:47:46Z</time>
      </trkpt>
      <trkpt lat="46.39779" lon="-0.42669">
        <ele>91</ele>
        <time>2011-11-24T09:47:51Z</time>
      </trkpt>
      <trkpt lat="46.39781" lon="-0.42669">
        <ele>91</ele>
        <time>2011-11-24T09:47:56Z</time>
      </trkpt>
      <trkpt lat="46.39785" lon="-0.42667">
        <ele>91</ele>
        <time>2011-11-24T09:48:01Z</time>
      </trkpt>
      <trkpt lat="46.3979" lon="-0.42671">
        <ele>91</ele>
        <time>2011-11-24T09:48:06Z</time>
      </trkpt>
      <trkpt lat="46.39796" lon="-0.42669">
        <ele>92</ele>
        <time>2011-11-24T09:48:11Z</time>
      </trkpt>
      <trkpt lat="46.39803" lon="-0.42666">
        <ele>91</ele>
        <time>2011-11-24T09:48:16Z</time>
      </trkpt>
      <trkpt lat="46.39807" lon="-0.42666">
        <ele>91</ele>
        <time>2011-11-24T09:48:21Z</time>
      </trkpt>
      <trkpt lat="46.39812" lon="-0.42665">
        <ele>90</ele>
        <time>2011-11-24T09:48:26Z</time>
      </trkpt>
      <trkpt lat="46.39817" lon="-0.42661">
        <ele>90</ele>
        <time>2011-11-24T09:48:31Z</time>
      </trkpt>
      <trkpt lat="46.39822" lon="-0.42659">
        <ele>88</ele>
        <time>2011-11-24T09:48:36Z</time>
      </trkpt>
      <trkpt lat="46.39829" lon="-0.42661">
        <ele>89</ele>
        <time>2011-11-24T09:48:41Z</time>
      </trkpt>
      <trkpt lat="46.39835" lon="-0.42659">
        <ele>89</ele>
        <time>2011-11-24T09:48:46Z</time>
      </trkpt>
      <trkpt lat="46.39841" lon="-0.42651">
        <ele>88</ele>
        <time>2011-11-24T09:48:51Z</time>
      </trkpt>
      <trkpt lat="46.39847" lon="-0.42654">
        <ele>92</ele>
        <time>2011-11-24T09:48:56Z</time>
      </trkpt>
      <trkpt lat="46.39852" lon="-0.42652">
        <ele>92</ele>
        <time>2011-11-24T09:49:01Z</time>
      </trkpt>
      <trkpt lat="46.39859" lon="-0.42641">
        <ele>85</ele>
        <time>2011-11-24T09:49:06Z</time>
      </trkpt>
      <trkpt lat="46.39864" lon="-0.42639">
        <ele>85</ele>
        <time>2011-11-24T09:49:11Z</time>
      </trkpt>
      <trkpt lat="46.39868" lon="-0.42638">
        <ele>84</ele>
        <time>2011-11-24T09:49:16Z</time>
      </trkpt>
      <trkpt lat="46.39869" lon="-0.42638">
        <ele>84</ele>
        <time>2011-11-24T09:49:21Z</time>
      </trkpt>
      <trkpt lat="46.3987" lon="-0.42639">
        <ele>84</ele>
        <time>2011-11-24T09:49:26Z</time>
      </trkpt>
      <trkpt lat="46.39874" lon="-0.42637">
        <ele>86</ele>
        <time>2011-11-24T09:49:36Z</time>
      </trkpt>
      <trkpt lat="46.39879" lon="-0.42635">
        <ele>88</ele>
        <time>2011-11-24T09:49:41Z</time>
      </trkpt>
      <trkpt lat="46.39884" lon="-0.42633">
        <ele>88</ele>
        <time>2011-11-24T09:49:46Z</time>
      </trkpt>
      <trkpt lat="46.39887" lon="-0.42631">
        <ele>89</ele>
        <time>2011-11-24T09:49:51Z</time>
      </trkpt>
      <trkpt lat="46.39892" lon="-0.42627">
        <ele>89</ele>
        <time>2011-11-24T09:49:56Z</time>
      </trkpt>
      <trkpt lat="46.39899" lon="-0.42625">
        <ele>86</ele>
        <time>2011-11-24T09:50:01Z</time>
      </trkpt>
      <trkpt lat="46.39903" lon="-0.42622">
        <ele>87</ele>
        <time>2011-11-24T09:50:06Z</time>
      </trkpt>
      <trkpt lat="46.39908" lon="-0.42621">
        <ele>88</ele>
        <time>2011-11-24T09:50:11Z</time>
      </trkpt>
      <trkpt lat="46.39914" lon="-0.42619">
        <ele>88</ele>
        <time>2011-11-24T09:50:16Z</time>
      </trkpt>
      <trkpt lat="46.39918" lon="-0.42615">
        <ele>87</ele>
        <time>2011-11-24T09:50:21Z</time>
      </trkpt>
      <trkpt lat="46.39923" lon="-0.42614">
        <ele>87</ele>
        <time>2011-11-24T09:50:26Z</time>
      </trkpt>
      <trkpt lat="46.39929" lon="-0.42613">
        <ele>86</ele>
        <time>2011-11-24T09:50:31Z</time>
      </trkpt>
      <trkpt lat="46.39934" lon="-0.42611">
        <ele>86</ele>
        <time>2011-11-24T09:50:36Z</time>
      </trkpt>
      <trkpt lat="46.39939" lon="-0.4261">
        <ele>86</ele>
        <time>2011-11-24T09:50:41Z</time>
      </trkpt>
      <trkpt lat="46.39946" lon="-0.4261">
        <ele>87</ele>
        <time>2011-11-24T09:50:46Z</time>
      </trkpt>
      <trkpt lat="46.39952" lon="-0.42608">
        <ele>87</ele>
        <time>2011-11-24T09:50:51Z</time>
      </trkpt>
      <trkpt lat="46.39958" lon="-0.42607">
        <ele>85</ele>
        <time>2011-11-24T09:50:56Z</time>
      </trkpt>
      <trkpt lat="46.39962" lon="-0.42606">
        <ele>83</ele>
        <time>2011-11-24T09:51:01Z</time>
      </trkpt>
      <trkpt lat="46.39968" lon="-0.42606">
        <ele>83</ele>
        <time>2011-11-24T09:51:06Z</time>
      </trkpt>
      <trkpt lat="46.39974" lon="-0.42605">
        <ele>81</ele>
        <time>2011-11-24T09:51:11Z</time>
      </trkpt>
      <trkpt lat="46.3998" lon="-0.42603">
        <ele>80</ele>
        <time>2011-11-24T09:51:16Z</time>
      </trkpt>
      <trkpt lat="46.39986" lon="-0.42602">
        <ele>79</ele>
        <time>2011-11-24T09:51:21Z</time>
      </trkpt>
      <trkpt lat="46.39991" lon="-0.42603">
        <ele>79</ele>
        <time>2011-11-24T09:51:26Z</time>
      </trkpt>
      <trkpt lat="46.39997" lon="-0.42601">
        <ele>79</ele>
        <time>2011-11-24T09:51:31Z</time>
      </trkpt>
      <trkpt lat="46.40003" lon="-0.426">
        <ele>79</ele>
        <time>2011-11-24T09:51:36Z</time>
      </trkpt>
      <trkpt lat="46.40008" lon="-0.426">
        <ele>80</ele>
        <time>2011-11-24T09:51:41Z</time>
      </trkpt>
      <trkpt lat="46.40015" lon="-0.426">
        <ele>81</ele>
        <time>2011-11-24T09:51:46Z</time>
      </trkpt>
      <trkpt lat="46.4002" lon="-0.426">
        <ele>82</ele>
        <time>2011-11-24T09:51:51Z</time>
      </trkpt>
      <trkpt lat="46.40026" lon="-0.42601">
        <ele>83</ele>
        <time>2011-11-24T09:51:56Z</time>
      </trkpt>
      <trkpt lat="46.40032" lon="-0.42599">
        <ele>83</ele>
        <time>2011-11-24T09:52:01Z</time>
      </trkpt>
      <trkpt lat="46.40037" lon="-0.42596">
        <ele>80</ele>
        <time>2011-11-24T09:52:06Z</time>
      </trkpt>
      <trkpt lat="46.40042" lon="-0.42596">
        <ele>79</ele>
        <time>2011-11-24T09:52:11Z</time>
      </trkpt>
      <trkpt lat="46.40048" lon="-0.42597">
        <ele>79</ele>
        <time>2011-11-24T09:52:16Z</time>
      </trkpt>
      <trkpt lat="46.40054" lon="-0.42598">
        <ele>80</ele>
        <time>2011-11-24T09:52:21Z</time>
      </trkpt>
      <trkpt lat="46.4006" lon="-0.42597">
        <ele>80</ele>
        <time>2011-11-24T09:52:26Z</time>
      </trkpt>
      <trkpt lat="46.40064" lon="-0.42596">
        <ele>79</ele>
        <time>2011-11-24T09:52:31Z</time>
      </trkpt>
      <trkpt lat="46.4007" lon="-0.42596">
        <ele>80</ele>
        <time>2011-11-24T09:52:36Z</time>
      </trkpt>
      <trkpt lat="46.40079" lon="-0.42598">
        <ele>81</ele>
        <time>2011-11-24T09:52:41Z</time>
      </trkpt>
      <trkpt lat="46.40082" lon="-0.42596">
        <ele>81</ele>
        <time>2011-11-24T09:52:46Z</time>
      </trkpt>
      <trkpt lat="46.40088" lon="-0.42595">
        <ele>83</ele>
        <time>2011-11-24T09:52:51Z</time>
      </trkpt>
      <trkpt lat="46.40093" lon="-0.42591">
        <ele>82</ele>
        <time>2011-11-24T09:52:56Z</time>
      </trkpt>
      <trkpt lat="46.40099" lon="-0.42589">
        <ele>82</ele>
        <time>2011-11-24T09:53:01Z</time>
      </trkpt>
      <trkpt lat="46.40105" lon="-0.42591">
        <ele>83</ele>
        <time>2011-11-24T09:53:06Z</time>
      </trkpt>
      <trkpt lat="46.4011" lon="-0.4259">
        <ele>83</ele>
        <time>2011-11-24T09:53:11Z</time>
      </trkpt>
      <trkpt lat="46.40116" lon="-0.42589">
        <ele>83</ele>
        <time>2011-11-24T09:53:16Z</time>
      </trkpt>
      <trkpt lat="46.40122" lon="-0.42588">
        <ele>82</ele>
        <time>2011-11-24T09:53:21Z</time>
      </trkpt>
      <trkpt lat="46.40128" lon="-0.42587">
        <ele>84</ele>
        <time>2011-11-24T09:53:26Z</time>
      </trkpt>
      <trkpt lat="46.40134" lon="-0.42588">
        <ele>84</ele>
        <time>2011-11-24T09:53:31Z</time>
      </trkpt>
      <trkpt lat="46.4014" lon="-0.42586">
        <ele>84</ele>
        <time>2011-11-24T09:53:36Z</time>
      </trkpt>
      <trkpt lat="46.40146" lon="-0.42584">
        <ele>84</ele>
        <time>2011-11-24T09:53:41Z</time>
      </trkpt>
      <trkpt lat="46.40152" lon="-0.42582">
        <ele>83</ele>
        <time>2011-11-24T09:53:46Z</time>
      </trkpt>
      <trkpt lat="46.40158" lon="-0.42581">
        <ele>83</ele>
        <time>2011-11-24T09:53:51Z</time>
      </trkpt>
      <trkpt lat="46.40164" lon="-0.4258">
        <ele>83</ele>
        <time>2011-11-24T09:53:56Z</time>
      </trkpt>
      <trkpt lat="46.4017" lon="-0.42579">
        <ele>83</ele>
        <time>2011-11-24T09:54:01Z</time>
      </trkpt>
      <trkpt lat="46.40175" lon="-0.42576">
        <ele>83</ele>
        <time>2011-11-24T09:54:06Z</time>
      </trkpt>
      <trkpt lat="46.40181" lon="-0.42575">
        <ele>83</ele>
        <time>2011-11-24T09:54:11Z</time>
      </trkpt>
      <trkpt lat="46.40187" lon="-0.42575">
        <ele>83</ele>
        <time>2011-11-24T09:54:16Z</time>
      </trkpt>
      <trkpt lat="46.40192" lon="-0.42573">
        <ele>81</ele>
        <time>2011-11-24T09:54:21Z</time>
      </trkpt>
      <trkpt lat="46.40197" lon="-0.42572">
        <ele>82</ele>
        <time>2011-11-24T09:54:26Z</time>
      </trkpt>
      <trkpt lat="46.40202" lon="-0.42569">
        <ele>82</ele>
        <time>2011-11-24T09:54:31Z</time>
      </trkpt>
      <trkpt lat="46.40208" lon="-0.42566">
        <ele>83</ele>
        <time>2011-11-24T09:54:36Z</time>
      </trkpt>
      <trkpt lat="46.40214" lon="-0.42564">
        <ele>82</ele>
        <time>2011-11-24T09:54:41Z</time>
      </trkpt>
      <trkpt lat="46.40219" lon="-0.42561">
        <ele>83</ele>
        <time>2011-11-24T09:54:46Z</time>
      </trkpt>
      <trkpt lat="46.40226" lon="-0.42555">
        <ele>84</ele>
        <time>2011-11-24T09:54:51Z</time>
      </trkpt>
      <trkpt lat="46.40231" lon="-0.42551">
        <ele>84</ele>
        <time>2011-11-24T09:54:56Z</time>
      </trkpt>
      <trkpt lat="46.40237" lon="-0.42548">
        <ele>85</ele>
        <time>2011-11-24T09:55:02Z</time>
      </trkpt>
      <trkpt lat="46.4024" lon="-0.42543">
        <ele>85</ele>
        <time>2011-11-24T09:55:06Z</time>
      </trkpt>
      <trkpt lat="46.40246" lon="-0.42538">
        <ele>86</ele>
        <time>2011-11-24T09:55:11Z</time>
      </trkpt>
      <trkpt lat="46.40251" lon="-0.42532">
        <ele>87</ele>
        <time>2011-11-24T09:55:16Z</time>
      </trkpt>
      <trkpt lat="46.40255" lon="-0.42527">
        <ele>87</ele>
        <time>2011-11-24T09:55:21Z</time>
      </trkpt>
      <trkpt lat="46.4026" lon="-0.42522">
        <ele>86</ele>
        <time>2011-11-24T09:55:26Z</time>
      </trkpt>
      <trkpt lat="46.40264" lon="-0.42519">
        <ele>84</ele>
        <time>2011-11-24T09:55:31Z</time>
      </trkpt>
      <trkpt lat="46.40269" lon="-0.42513">
        <ele>84</ele>
        <time>2011-11-24T09:55:36Z</time>
      </trkpt>
      <trkpt lat="46.40273" lon="-0.42509">
        <ele>82</ele>
        <time>2011-11-24T09:55:41Z</time>
      </trkpt>
      <trkpt lat="46.40279" lon="-0.42505">
        <ele>83</ele>
        <time>2011-11-24T09:55:46Z</time>
      </trkpt>
      <trkpt lat="46.40284" lon="-0.425">
        <ele>84</ele>
        <time>2011-11-24T09:55:51Z</time>
      </trkpt>
      <trkpt lat="46.40288" lon="-0.42495">
        <ele>83</ele>
        <time>2011-11-24T09:55:56Z</time>
      </trkpt>
      <trkpt lat="46.40294" lon="-0.42489">
        <ele>84</ele>
        <time>2011-11-24T09:56:01Z</time>
      </trkpt>
      <trkpt lat="46.40298" lon="-0.42485">
        <ele>84</ele>
        <time>2011-11-24T09:56:06Z</time>
      </trkpt>
      <trkpt lat="46.40305" lon="-0.4248">
        <ele>86</ele>
        <time>2011-11-24T09:56:11Z</time>
      </trkpt>
      <trkpt lat="46.40308" lon="-0.42476">
        <ele>84</ele>
        <time>2011-11-24T09:56:16Z</time>
      </trkpt>
      <trkpt lat="46.40313" lon="-0.42472">
        <ele>84</ele>
        <time>2011-11-24T09:56:21Z</time>
      </trkpt>
      <trkpt lat="46.40319" lon="-0.4247">
        <ele>83</ele>
        <time>2011-11-24T09:56:26Z</time>
      </trkpt>
      <trkpt lat="46.40324" lon="-0.42469">
        <ele>83</ele>
        <time>2011-11-24T09:56:31Z</time>
      </trkpt>
      <trkpt lat="46.40327" lon="-0.42468">
        <ele>82</ele>
        <time>2011-11-24T09:56:36Z</time>
      </trkpt>
      <trkpt lat="46.40333" lon="-0.42468">
        <ele>82</ele>
        <time>2011-11-24T09:56:41Z</time>
      </trkpt>
      <trkpt lat="46.40336" lon="-0.4247">
        <ele>82</ele>
        <time>2011-11-24T09:56:46Z</time>
      </trkpt>
      <trkpt lat="46.4034" lon="-0.42472">
        <ele>81</ele>
        <time>2011-11-24T09:56:51Z</time>
      </trkpt>
      <trkpt lat="46.40347" lon="-0.42475">
        <ele>82</ele>
        <time>2011-11-24T09:56:56Z</time>
      </trkpt>
      <trkpt lat="46.40354" lon="-0.42479">
        <ele>83</ele>
        <time>2011-11-24T09:57:01Z</time>
      </trkpt>
      <trkpt lat="46.4036" lon="-0.42484">
        <ele>83</ele>
        <time>2011-11-24T09:57:06Z</time>
      </trkpt>
      <trkpt lat="46.40368" lon="-0.4249">
        <ele>84</ele>
        <time>2011-11-24T09:57:11Z</time>
      </trkpt>
      <trkpt lat="46.40372" lon="-0.42494">
        <ele>84</ele>
        <time>2011-11-24T09:57:16Z</time>
      </trkpt>
      <trkpt lat="46.40378" lon="-0.42502">
        <ele>86</ele>
        <time>2011-11-24T09:57:21Z</time>
      </trkpt>
      <trkpt lat="46.40384" lon="-0.42508">
        <ele>86</ele>
        <time>2011-11-24T09:57:26Z</time>
      </trkpt>
      <trkpt lat="46.40388" lon="-0.42512">
        <ele>85</ele>
        <time>2011-11-24T09:57:31Z</time>
      </trkpt>
      <trkpt lat="46.40393" lon="-0.42515">
        <ele>83</ele>
        <time>2011-11-24T09:57:36Z</time>
      </trkpt>
      <trkpt lat="46.40396" lon="-0.42522">
        <ele>83</ele>
        <time>2011-11-24T09:57:41Z</time>
      </trkpt>
      <trkpt lat="46.40401" lon="-0.42526">
        <ele>82</ele>
        <time>2011-11-24T09:57:46Z</time>
      </trkpt>
      <trkpt lat="46.40406" lon="-0.42532">
        <ele>83</ele>
        <time>2011-11-24T09:57:51Z</time>
      </trkpt>
      <trkpt lat="46.40411" lon="-0.42539">
        <ele>83</ele>
        <time>2011-11-24T09:57:56Z</time>
      </trkpt>
      <trkpt lat="46.40415" lon="-0.42545">
        <ele>84</ele>
        <time>2011-11-24T09:58:01Z</time>
      </trkpt>
      <trkpt lat="46.40421" lon="-0.42548">
        <ele>84</ele>
        <time>2011-11-24T09:58:06Z</time>
      </trkpt>
      <trkpt lat="46.40425" lon="-0.42553">
        <ele>85</ele>
        <time>2011-11-24T09:58:11Z</time>
      </trkpt>
      <trkpt lat="46.4043" lon="-0.4256">
        <ele>85</ele>
        <time>2011-11-24T09:58:16Z</time>
      </trkpt>
      <trkpt lat="46.40436" lon="-0.42565">
        <ele>85</ele>
        <time>2011-11-24T09:58:21Z</time>
      </trkpt>
      <trkpt lat="46.4044" lon="-0.4257">
        <ele>84</ele>
        <time>2011-11-24T09:58:26Z</time>
      </trkpt>
      <trkpt lat="46.40444" lon="-0.42579">
        <ele>84</ele>
        <time>2011-11-24T09:58:31Z</time>
      </trkpt>
      <trkpt lat="46.40451" lon="-0.42582">
        <ele>84</ele>
        <time>2011-11-24T09:58:36Z</time>
      </trkpt>
      <trkpt lat="46.40455" lon="-0.42583">
        <ele>84</ele>
        <time>2011-11-24T09:58:41Z</time>
      </trkpt>
      <trkpt lat="46.4046" lon="-0.42587">
        <ele>85</ele>
        <time>2011-11-24T09:58:46Z</time>
      </trkpt>
      <trkpt lat="46.40467" lon="-0.4259">
        <ele>85</ele>
        <time>2011-11-24T09:58:51Z</time>
      </trkpt>
      <trkpt lat="46.40472" lon="-0.42589">
        <ele>83</ele>
        <time>2011-11-24T09:58:56Z</time>
      </trkpt>
      <trkpt lat="46.40475" lon="-0.42589">
        <ele>83</ele>
        <time>2011-11-24T09:59:01Z</time>
      </trkpt>
      <trkpt lat="46.40483" lon="-0.42592">
        <ele>81</ele>
        <time>2011-11-24T09:59:06Z</time>
      </trkpt>
      <trkpt lat="46.40491" lon="-0.42595">
        <ele>80</ele>
        <time>2011-11-24T09:59:11Z</time>
      </trkpt>
      <trkpt lat="46.40496" lon="-0.42598">
        <ele>80</ele>
        <time>2011-11-24T09:59:16Z</time>
      </trkpt>
      <trkpt lat="46.405" lon="-0.42602">
        <ele>81</ele>
        <time>2011-11-24T09:59:21Z</time>
      </trkpt>
      <trkpt lat="46.40505" lon="-0.42604">
        <ele>81</ele>
        <time>2011-11-24T09:59:26Z</time>
      </trkpt>
      <trkpt lat="46.4051" lon="-0.42605">
        <ele>80</ele>
        <time>2011-11-24T09:59:31Z</time>
      </trkpt>
      <trkpt lat="46.40516" lon="-0.42606">
        <ele>80</ele>
        <time>2011-11-24T09:59:36Z</time>
      </trkpt>
      <trkpt lat="46.40521" lon="-0.4261">
        <ele>81</ele>
        <time>2011-11-24T09:59:41Z</time>
      </trkpt>
      <trkpt lat="46.40527" lon="-0.42611">
        <ele>82</ele>
        <time>2011-11-24T09:59:46Z</time>
      </trkpt>
      <trkpt lat="46.4053" lon="-0.42615">
        <ele>81</ele>
        <time>2011-11-24T09:59:51Z</time>
      </trkpt>
      <trkpt lat="46.40535" lon="-0.42613">
        <ele>80</ele>
        <time>2011-11-24T09:59:56Z</time>
      </trkpt>
      <trkpt lat="46.40536" lon="-0.42617">
        <ele>81</ele>
        <time>2011-11-24T10:00:01Z</time>
      </trkpt>
      <trkpt lat="46.4054" lon="-0.42621">
        <ele>82</ele>
        <time>2011-11-24T10:00:06Z</time>
      </trkpt>
      <trkpt lat="46.40549" lon="-0.42621">
        <ele>81</ele>
        <time>2011-11-24T10:00:11Z</time>
      </trkpt>
      <trkpt lat="46.40556" lon="-0.42623">
        <ele>81</ele>
        <time>2011-11-24T10:00:16Z</time>
      </trkpt>
      <trkpt lat="46.40563" lon="-0.42624">
        <ele>80</ele>
        <time>2011-11-24T10:00:21Z</time>
      </trkpt>
      <trkpt lat="46.4057" lon="-0.42622">
        <ele>78</ele>
        <time>2011-11-24T10:00:26Z</time>
      </trkpt>
      <trkpt lat="46.40575" lon="-0.42615">
        <ele>77</ele>
        <time>2011-11-24T10:00:31Z</time>
      </trkpt>
      <trkpt lat="46.40582" lon="-0.42625">
        <ele>79</ele>
        <time>2011-11-24T10:00:36Z</time>
      </trkpt>
      <trkpt lat="46.40589" lon="-0.42627">
        <ele>79</ele>
        <time>2011-11-24T10:00:41Z</time>
      </trkpt>
      <trkpt lat="46.40594" lon="-0.42628">
        <ele>79</ele>
        <time>2011-11-24T10:00:46Z</time>
      </trkpt>
      <trkpt lat="46.40601" lon="-0.42631">
        <ele>80</ele>
        <time>2011-11-24T10:00:51Z</time>
      </trkpt>
      <trkpt lat="46.40607" lon="-0.4263">
        <ele>79</ele>
        <time>2011-11-24T10:00:56Z</time>
      </trkpt>
      <trkpt lat="46.40614" lon="-0.4263">
        <ele>80</ele>
        <time>2011-11-24T10:01:01Z</time>
      </trkpt>
      <trkpt lat="46.4062" lon="-0.42629">
        <ele>80</ele>
        <time>2011-11-24T10:01:06Z</time>
      </trkpt>
      <trkpt lat="46.40628" lon="-0.42633">
        <ele>79</ele>
        <time>2011-11-24T10:01:11Z</time>
      </trkpt>
      <trkpt lat="46.40633" lon="-0.42634">
        <ele>78</ele>
        <time>2011-11-24T10:01:16Z</time>
      </trkpt>
      <trkpt lat="46.40639" lon="-0.42635">
        <ele>79</ele>
        <time>2011-11-24T10:01:21Z</time>
      </trkpt>
      <trkpt lat="46.40644" lon="-0.42633">
        <ele>80</ele>
        <time>2011-11-24T10:01:26Z</time>
      </trkpt>
      <trkpt lat="46.40648" lon="-0.42634">
        <ele>80</ele>
        <time>2011-11-24T10:01:31Z</time>
      </trkpt>
      <trkpt lat="46.40651" lon="-0.42637">
        <ele>79</ele>
        <time>2011-11-24T10:01:36Z</time>
      </trkpt>
      <trkpt lat="46.4065" lon="-0.42636">
        <ele>79</ele>
        <time>2011-11-24T10:01:41Z</time>
      </trkpt>
      <trkpt lat="46.40652" lon="-0.42637">
        <ele>80</ele>
        <time>2011-11-24T10:01:46Z</time>
      </trkpt>
      <trkpt lat="46.40656" lon="-0.42637">
        <ele>80</ele>
        <time>2011-11-24T10:02:06Z</time>
      </trkpt>
      <trkpt lat="46.40658" lon="-0.42642">
        <ele>81</ele>
        <time>2011-11-24T10:02:11Z</time>
      </trkpt>
      <trkpt lat="46.40659" lon="-0.42651">
        <ele>82</ele>
        <time>2011-11-24T10:02:16Z</time>
      </trkpt>
      <trkpt lat="46.4066" lon="-0.42661">
        <ele>82</ele>
        <time>2011-11-24T10:02:21Z</time>
      </trkpt>
      <trkpt lat="46.40659" lon="-0.42669">
        <ele>81</ele>
        <time>2011-11-24T10:02:26Z</time>
      </trkpt>
      <trkpt lat="46.40659" lon="-0.42676">
        <ele>80</ele>
        <time>2011-11-24T10:02:31Z</time>
      </trkpt>
      <trkpt lat="46.40659" lon="-0.42683">
        <ele>82</ele>
        <time>2011-11-24T10:02:36Z</time>
      </trkpt>
      <trkpt lat="46.40659" lon="-0.42691">
        <ele>81</ele>
        <time>2011-11-24T10:02:41Z</time>
      </trkpt>
      <trkpt lat="46.40659" lon="-0.427">
        <ele>81</ele>
        <time>2011-11-24T10:02:46Z</time>
      </trkpt>
      <trkpt lat="46.40659" lon="-0.42707">
        <ele>82</ele>
        <time>2011-11-24T10:02:51Z</time>
      </trkpt>
      <trkpt lat="46.4066" lon="-0.42716">
        <ele>82</ele>
        <time>2011-11-24T10:02:56Z</time>
      </trkpt>
      <trkpt lat="46.40659" lon="-0.42726">
        <ele>82</ele>
        <time>2011-11-24T10:03:01Z</time>
      </trkpt>
      <trkpt lat="46.40659" lon="-0.42736">
        <ele>82</ele>
        <time>2011-11-24T10:03:06Z</time>
      </trkpt>
      <trkpt lat="46.4066" lon="-0.42744">
        <ele>83</ele>
        <time>2011-11-24T10:03:11Z</time>
      </trkpt>
      <trkpt lat="46.40661" lon="-0.42752">
        <ele>84</ele>
        <time>2011-11-24T10:03:16Z</time>
      </trkpt>
      <trkpt lat="46.40664" lon="-0.42759">
        <ele>84</ele>
        <time>2011-11-24T10:03:21Z</time>
      </trkpt>
      <trkpt lat="46.40666" lon="-0.42766">
        <ele>84</ele>
        <time>2011-11-24T10:03:26Z</time>
      </trkpt>
      <trkpt lat="46.40669" lon="-0.42771">
        <ele>85</ele>
        <time>2011-11-24T10:03:31Z</time>
      </trkpt>
      <trkpt lat="46.40674" lon="-0.42775">
        <ele>86</ele>
        <time>2011-11-24T10:03:36Z</time>
      </trkpt>
      <trkpt lat="46.40678" lon="-0.42778">
        <ele>84</ele>
        <time>2011-11-24T10:03:41Z</time>
      </trkpt>
      <trkpt lat="46.40681" lon="-0.42783">
        <ele>84</ele>
        <time>2011-11-24T10:03:46Z</time>
      </trkpt>
      <trkpt lat="46.40686" lon="-0.42785">
        <ele>83</ele>
        <time>2011-11-24T10:03:51Z</time>
      </trkpt>
      <trkpt lat="46.40693" lon="-0.42787">
        <ele>83</ele>
        <time>2011-11-24T10:03:56Z</time>
      </trkpt>
      <trkpt lat="46.40698" lon="-0.42788">
        <ele>83</ele>
        <time>2011-11-24T10:04:01Z</time>
      </trkpt>
      <trkpt lat="46.40705" lon="-0.42789">
        <ele>84</ele>
        <time>2011-11-24T10:04:06Z</time>
      </trkpt>
      <trkpt lat="46.40709" lon="-0.42788">
        <ele>84</ele>
        <time>2011-11-24T10:04:11Z</time>
      </trkpt>
      <trkpt lat="46.40709" lon="-0.4278">
        <ele>81</ele>
        <time>2011-11-24T10:04:16Z</time>
      </trkpt>
      <trkpt lat="46.40707" lon="-0.42777">
        <ele>81</ele>
        <time>2011-11-24T10:04:21Z</time>
      </trkpt>
      <trkpt lat="46.40705" lon="-0.42775">
        <ele>81</ele>
        <time>2011-11-24T10:04:26Z</time>
      </trkpt>
      <trkpt lat="46.40705" lon="-0.42775">
        <ele>81</ele>
        <time>2011-11-24T10:04:31Z</time>
      </trkpt>
      <trkpt lat="46.40705" lon="-0.42776">
        <ele>81</ele>
        <time>2011-11-24T10:05:36Z</time>
      </trkpt>
      <trkpt lat="46.40709" lon="-0.4278">
        <ele>84</ele>
        <time>2011-11-24T10:05:41Z</time>
      </trkpt>
      <trkpt lat="46.4071" lon="-0.42778">
        <ele>82</ele>
        <time>2011-11-24T10:05:46Z</time>
      </trkpt>
      <trkpt lat="46.4071" lon="-0.42777">
        <ele>81</ele>
        <time>2011-11-24T10:05:51Z</time>
      </trkpt>
      <trkpt lat="46.40714" lon="-0.42777">
        <ele>81</ele>
        <time>2011-11-24T10:05:56Z</time>
      </trkpt>
      <trkpt lat="46.40717" lon="-0.42777">
        <ele>81</ele>
        <time>2011-11-24T10:06:01Z</time>
      </trkpt>
      <trkpt lat="46.40719" lon="-0.42777">
        <ele>81</ele>
        <time>2011-11-24T10:06:06Z</time>
      </trkpt>
      <trkpt lat="46.4072" lon="-0.42777">
        <ele>81</ele>
        <time>2011-11-24T10:06:11Z</time>
      </trkpt>
      <trkpt lat="46.4072" lon="-0.4278">
        <ele>81</ele>
        <time>2011-11-24T10:06:16Z</time>
      </trkpt>
      <trkpt lat="46.40724" lon="-0.42783">
        <ele>80</ele>
        <time>2011-11-24T10:06:21Z</time>
      </trkpt>
      <trkpt lat="46.40726" lon="-0.42787">
        <ele>80</ele>
        <time>2011-11-24T10:06:26Z</time>
      </trkpt>
      <trkpt lat="46.4073" lon="-0.42792">
        <ele>80</ele>
        <time>2011-11-24T10:06:31Z</time>
      </trkpt>
      <trkpt lat="46.40734" lon="-0.42799">
        <ele>80</ele>
        <time>2011-11-24T10:06:36Z</time>
      </trkpt>
      <trkpt lat="46.40736" lon="-0.42809">
        <ele>82</ele>
        <time>2011-11-24T10:06:41Z</time>
      </trkpt>
      <trkpt lat="46.40737" lon="-0.42818">
        <ele>82</ele>
        <time>2011-11-24T10:06:46Z</time>
      </trkpt>
      <trkpt lat="46.40735" lon="-0.42823">
        <ele>80</ele>
        <time>2011-11-24T10:06:51Z</time>
      </trkpt>
      <trkpt lat="46.40731" lon="-0.42828">
        <ele>79</ele>
        <time>2011-11-24T10:06:56Z</time>
      </trkpt>
      <trkpt lat="46.40727" lon="-0.42834">
        <ele>78</ele>
        <time>2011-11-24T10:07:01Z</time>
      </trkpt>
      <trkpt lat="46.40722" lon="-0.42839">
        <ele>78</ele>
        <time>2011-11-24T10:07:06Z</time>
      </trkpt>
      <trkpt lat="46.40718" lon="-0.42845">
        <ele>76</ele>
        <time>2011-11-24T10:07:11Z</time>
      </trkpt>
      <trkpt lat="46.40713" lon="-0.42848">
        <ele>76</ele>
        <time>2011-11-24T10:07:16Z</time>
      </trkpt>
      <trkpt lat="46.40709" lon="-0.42854">
        <ele>76</ele>
        <time>2011-11-24T10:07:21Z</time>
      </trkpt>
      <trkpt lat="46.40706" lon="-0.4286">
        <ele>76</ele>
        <time>2011-11-24T10:07:26Z</time>
      </trkpt>
      <trkpt lat="46.40701" lon="-0.42867">
        <ele>76</ele>
        <time>2011-11-24T10:07:31Z</time>
      </trkpt>
      <trkpt lat="46.40697" lon="-0.42872">
        <ele>76</ele>
        <time>2011-11-24T10:07:36Z</time>
      </trkpt>
      <trkpt lat="46.40693" lon="-0.42877">
        <ele>76</ele>
        <time>2011-11-24T10:07:41Z</time>
      </trkpt>
      <trkpt lat="46.40688" lon="-0.42883">
        <ele>75</ele>
        <time>2011-11-24T10:07:46Z</time>
      </trkpt>
      <trkpt lat="46.40684" lon="-0.42886">
        <ele>76</ele>
        <time>2011-11-24T10:07:51Z</time>
      </trkpt>
      <trkpt lat="46.4068" lon="-0.42889">
        <ele>76</ele>
        <time>2011-11-24T10:07:56Z</time>
      </trkpt>
      <trkpt lat="46.40675" lon="-0.42892">
        <ele>76</ele>
        <time>2011-11-24T10:08:01Z</time>
      </trkpt>
      <trkpt lat="46.40672" lon="-0.42891">
        <ele>76</ele>
        <time>2011-11-24T10:08:06Z</time>
      </trkpt>
      <trkpt lat="46.40673" lon="-0.42891">
        <ele>76</ele>
        <time>2011-11-24T10:08:11Z</time>
      </trkpt>
      <trkpt lat="46.40668" lon="-0.42894">
        <ele>77</ele>
        <time>2011-11-24T10:09:56Z</time>
      </trkpt>
      <trkpt lat="46.40663" lon="-0.42901">
        <ele>80</ele>
        <time>2011-11-24T10:10:01Z</time>
      </trkpt>
      <trkpt lat="46.40661" lon="-0.42903">
        <ele>80</ele>
        <time>2011-11-24T10:10:06Z</time>
      </trkpt>
      <trkpt lat="46.40654" lon="-0.42904">
        <ele>82</ele>
        <time>2011-11-24T10:10:11Z</time>
      </trkpt>
      <trkpt lat="46.40652" lon="-0.42908">
        <ele>82</ele>
        <time>2011-11-24T10:10:16Z</time>
      </trkpt>
      <trkpt lat="46.40648" lon="-0.42916">
        <ele>81</ele>
        <time>2011-11-24T10:10:21Z</time>
      </trkpt>
      <trkpt lat="46.40643" lon="-0.4292">
        <ele>81</ele>
        <time>2011-11-24T10:10:26Z</time>
      </trkpt>
      <trkpt lat="46.40636" lon="-0.42922">
        <ele>83</ele>
        <time>2011-11-24T10:10:31Z</time>
      </trkpt>
      <trkpt lat="46.40631" lon="-0.42925">
        <ele>85</ele>
        <time>2011-11-24T10:10:36Z</time>
      </trkpt>
      <trkpt lat="46.40626" lon="-0.42929">
        <ele>83</ele>
        <time>2011-11-24T10:10:41Z</time>
      </trkpt>
      <trkpt lat="46.40622" lon="-0.42934">
        <ele>83</ele>
        <time>2011-11-24T10:10:46Z</time>
      </trkpt>
      <trkpt lat="46.40619" lon="-0.42939">
        <ele>82</ele>
        <time>2011-11-24T10:10:51Z</time>
      </trkpt>
      <trkpt lat="46.40612" lon="-0.42941">
        <ele>83</ele>
        <time>2011-11-24T10:10:56Z</time>
      </trkpt>
      <trkpt lat="46.40607" lon="-0.42944">
        <ele>83</ele>
        <time>2011-11-24T10:11:01Z</time>
      </trkpt>
      <trkpt lat="46.40606" lon="-0.42952">
        <ele>80</ele>
        <time>2011-11-24T10:11:06Z</time>
      </trkpt>
      <trkpt lat="46.40606" lon="-0.4296">
        <ele>78</ele>
        <time>2011-11-24T10:11:11Z</time>
      </trkpt>
      <trkpt lat="46.40601" lon="-0.42965">
        <ele>76</ele>
        <time>2011-11-24T10:11:16Z</time>
      </trkpt>
      <trkpt lat="46.40598" lon="-0.4297">
        <ele>75</ele>
        <time>2011-11-24T10:11:21Z</time>
      </trkpt>
      <trkpt lat="46.40595" lon="-0.42977">
        <ele>75</ele>
        <time>2011-11-24T10:11:26Z</time>
      </trkpt>
      <trkpt lat="46.4059" lon="-0.42983">
        <ele>75</ele>
        <time>2011-11-24T10:11:31Z</time>
      </trkpt>
      <trkpt lat="46.40584" lon="-0.42993">
        <ele>76</ele>
        <time>2011-11-24T10:11:36Z</time>
      </trkpt>
      <trkpt lat="46.4058" lon="-0.42998">
        <ele>77</ele>
        <time>2011-11-24T10:11:41Z</time>
      </trkpt>
      <trkpt lat="46.40578" lon="-0.43002">
        <ele>77</ele>
        <time>2011-11-24T10:11:46Z</time>
      </trkpt>
      <trkpt lat="46.40574" lon="-0.43006">
        <ele>77</ele>
        <time>2011-11-24T10:11:51Z</time>
      </trkpt>
      <trkpt lat="46.40565" lon="-0.4301">
        <ele>77</ele>
        <time>2011-11-24T10:11:56Z</time>
      </trkpt>
      <trkpt lat="46.4056" lon="-0.43016">
        <ele>77</ele>
        <time>2011-11-24T10:12:01Z</time>
      </trkpt>
      <trkpt lat="46.40556" lon="-0.43021">
        <ele>78</ele>
        <time>2011-11-24T10:12:06Z</time>
      </trkpt>
      <trkpt lat="46.40555" lon="-0.43027">
        <ele>75</ele>
        <time>2011-11-24T10:12:11Z</time>
      </trkpt>
      <trkpt lat="46.40552" lon="-0.43034">
        <ele>72</ele>
        <time>2011-11-24T10:12:16Z</time>
      </trkpt>
      <trkpt lat="46.40548" lon="-0.4304">
        <ele>74</ele>
        <time>2011-11-24T10:12:21Z</time>
      </trkpt>
      <trkpt lat="46.40542" lon="-0.43047">
        <ele>74</ele>
        <time>2011-11-24T10:12:26Z</time>
      </trkpt>
      <trkpt lat="46.40536" lon="-0.43052">
        <ele>75</ele>
        <time>2011-11-24T10:12:31Z</time>
      </trkpt>
      <trkpt lat="46.40531" lon="-0.43052">
        <ele>77</ele>
        <time>2011-11-24T10:12:36Z</time>
      </trkpt>
      <trkpt lat="46.40528" lon="-0.43056">
        <ele>77</ele>
        <time>2011-11-24T10:12:41Z</time>
      </trkpt>
      <trkpt lat="46.40522" lon="-0.43063">
        <ele>77</ele>
        <time>2011-11-24T10:12:46Z</time>
      </trkpt>
      <trkpt lat="46.40516" lon="-0.43066">
        <ele>78</ele>
        <time>2011-11-24T10:12:51Z</time>
      </trkpt>
      <trkpt lat="46.40511" lon="-0.43072">
        <ele>79</ele>
        <time>2011-11-24T10:12:56Z</time>
      </trkpt>
      <trkpt lat="46.40505" lon="-0.43079">
        <ele>81</ele>
        <time>2011-11-24T10:13:01Z</time>
      </trkpt>
      <trkpt lat="46.40498" lon="-0.43084">
        <ele>83</ele>
        <time>2011-11-24T10:13:06Z</time>
      </trkpt>
      <trkpt lat="46.40498" lon="-0.43098">
        <ele>81</ele>
        <time>2011-11-24T10:13:11Z</time>
      </trkpt>
      <trkpt lat="46.4049" lon="-0.43099">
        <ele>82</ele>
        <time>2011-11-24T10:13:16Z</time>
      </trkpt>
      <trkpt lat="46.40489" lon="-0.43101">
        <ele>80</ele>
        <time>2011-11-24T10:13:21Z</time>
      </trkpt>
      <trkpt lat="46.40483" lon="-0.43106">
        <ele>80</ele>
        <time>2011-11-24T10:13:26Z</time>
      </trkpt>
      <trkpt lat="46.4048" lon="-0.4311">
        <ele>81</ele>
        <time>2011-11-24T10:13:31Z</time>
      </trkpt>
      <trkpt lat="46.40473" lon="-0.43117">
        <ele>83</ele>
        <time>2011-11-24T10:13:36Z</time>
      </trkpt>
      <trkpt lat="46.40468" lon="-0.43121">
        <ele>84</ele>
        <time>2011-11-24T10:13:41Z</time>
      </trkpt>
      <trkpt lat="46.40463" lon="-0.43126">
        <ele>84</ele>
        <time>2011-11-24T10:13:46Z</time>
      </trkpt>
      <trkpt lat="46.40459" lon="-0.43129">
        <ele>84</ele>
        <time>2011-11-24T10:13:51Z</time>
      </trkpt>
      <trkpt lat="46.40454" lon="-0.43134">
        <ele>86</ele>
        <time>2011-11-24T10:13:56Z</time>
      </trkpt>
      <trkpt lat="46.40449" lon="-0.43142">
        <ele>84</ele>
        <time>2011-11-24T10:14:01Z</time>
      </trkpt>
      <trkpt lat="46.40444" lon="-0.43145">
        <ele>86</ele>
        <time>2011-11-24T10:14:06Z</time>
      </trkpt>
      <trkpt lat="46.4044" lon="-0.4315">
        <ele>86</ele>
        <time>2011-11-24T10:14:11Z</time>
      </trkpt>
      <trkpt lat="46.40438" lon="-0.43152">
        <ele>86</ele>
        <time>2011-11-24T10:14:16Z</time>
      </trkpt>
      <trkpt lat="46.40436" lon="-0.43156">
        <ele>87</ele>
        <time>2011-11-24T10:14:21Z</time>
      </trkpt>
      <trkpt lat="46.40431" lon="-0.4316">
        <ele>90</ele>
        <time>2011-11-24T10:14:26Z</time>
      </trkpt>
      <trkpt lat="46.40427" lon="-0.43166">
        <ele>88</ele>
        <time>2011-11-24T10:14:31Z</time>
      </trkpt>
      <trkpt lat="46.40422" lon="-0.43172">
        <ele>87</ele>
        <time>2011-11-24T10:14:36Z</time>
      </trkpt>
      <trkpt lat="46.40416" lon="-0.43177">
        <ele>86</ele>
        <time>2011-11-24T10:14:41Z</time>
      </trkpt>
      <trkpt lat="46.40412" lon="-0.43181">
        <ele>86</ele>
        <time>2011-11-24T10:14:46Z</time>
      </trkpt>
      <trkpt lat="46.40406" lon="-0.43185">
        <ele>85</ele>
        <time>2011-11-24T10:14:51Z</time>
      </trkpt>
      <trkpt lat="46.40402" lon="-0.43192">
        <ele>86</ele>
        <time>2011-11-24T10:14:56Z</time>
      </trkpt>
      <trkpt lat="46.40399" lon="-0.43198">
        <ele>87</ele>
        <time>2011-11-24T10:15:01Z</time>
      </trkpt>
      <trkpt lat="46.40395" lon="-0.43205">
        <ele>87</ele>
        <time>2011-11-24T10:15:06Z</time>
      </trkpt>
      <trkpt lat="46.40391" lon="-0.4321">
        <ele>86</ele>
        <time>2011-11-24T10:15:11Z</time>
      </trkpt>
      <trkpt lat="46.40388" lon="-0.43214">
        <ele>87</ele>
        <time>2011-11-24T10:15:16Z</time>
      </trkpt>
      <trkpt lat="46.40383" lon="-0.4322">
        <ele>87</ele>
        <time>2011-11-24T10:15:21Z</time>
      </trkpt>
      <trkpt lat="46.40377" lon="-0.43226">
        <ele>87</ele>
        <time>2011-11-24T10:15:26Z</time>
      </trkpt>
      <trkpt lat="46.40373" lon="-0.43233">
        <ele>86</ele>
        <time>2011-11-24T10:15:31Z</time>
      </trkpt>
      <trkpt lat="46.40369" lon="-0.4324">
        <ele>86</ele>
        <time>2011-11-24T10:15:36Z</time>
      </trkpt>
      <trkpt lat="46.40366" lon="-0.43248">
        <ele>86</ele>
        <time>2011-11-24T10:15:41Z</time>
      </trkpt>
      <trkpt lat="46.40363" lon="-0.43251">
        <ele>86</ele>
        <time>2011-11-24T10:15:46Z</time>
      </trkpt>
      <trkpt lat="46.40359" lon="-0.43261">
        <ele>88</ele>
        <time>2011-11-24T10:15:51Z</time>
      </trkpt>
      <trkpt lat="46.40359" lon="-0.43267">
        <ele>84</ele>
        <time>2011-11-24T10:15:56Z</time>
      </trkpt>
      <trkpt lat="46.40352" lon="-0.43273">
        <ele>87</ele>
        <time>2011-11-24T10:16:01Z</time>
      </trkpt>
      <trkpt lat="46.40349" lon="-0.43281">
        <ele>88</ele>
        <time>2011-11-24T10:16:06Z</time>
      </trkpt>
      <trkpt lat="46.40346" lon="-0.43287">
        <ele>87</ele>
        <time>2011-11-24T10:16:11Z</time>
      </trkpt>
      <trkpt lat="46.40344" lon="-0.43292">
        <ele>87</ele>
        <time>2011-11-24T10:16:16Z</time>
      </trkpt>
      <trkpt lat="46.40342" lon="-0.43298">
        <ele>87</ele>
        <time>2011-11-24T10:16:21Z</time>
      </trkpt>
      <trkpt lat="46.40341" lon="-0.43304">
        <ele>87</ele>
        <time>2011-11-24T10:16:26Z</time>
      </trkpt>
      <trkpt lat="46.40337" lon="-0.4331">
        <ele>87</ele>
        <time>2011-11-24T10:16:31Z</time>
      </trkpt>
      <trkpt lat="46.40335" lon="-0.43316">
        <ele>87</ele>
        <time>2011-11-24T10:16:36Z</time>
      </trkpt>
      <trkpt lat="46.40334" lon="-0.43318">
        <ele>88</ele>
        <time>2011-11-24T10:16:41Z</time>
      </trkpt>
      <trkpt lat="46.4033" lon="-0.43324">
        <ele>87</ele>
        <time>2011-11-24T10:16:46Z</time>
      </trkpt>
      <trkpt lat="46.40327" lon="-0.43331">
        <ele>87</ele>
        <time>2011-11-24T10:16:51Z</time>
      </trkpt>
      <trkpt lat="46.40325" lon="-0.43337">
        <ele>85</ele>
        <time>2011-11-24T10:16:56Z</time>
      </trkpt>
      <trkpt lat="46.40321" lon="-0.43342">
        <ele>83</ele>
        <time>2011-11-24T10:17:01Z</time>
      </trkpt>
      <trkpt lat="46.40316" lon="-0.43347">
        <ele>84</ele>
        <time>2011-11-24T10:17:06Z</time>
      </trkpt>
      <trkpt lat="46.40311" lon="-0.43353">
        <ele>84</ele>
        <time>2011-11-24T10:17:11Z</time>
      </trkpt>
      <trkpt lat="46.4031" lon="-0.43354">
        <ele>84</ele>
        <time>2011-11-24T10:17:16Z</time>
      </trkpt>
      <trkpt lat="46.40309" lon="-0.43355">
        <ele>84</ele>
        <time>2011-11-24T10:17:21Z</time>
      </trkpt>
      <trkpt lat="46.40302" lon="-0.43357">
        <ele>84</ele>
        <time>2011-11-24T10:17:26Z</time>
      </trkpt>
      <trkpt lat="46.40292" lon="-0.43358">
        <ele>83</ele>
        <time>2011-11-24T10:17:31Z</time>
      </trkpt>
      <trkpt lat="46.40284" lon="-0.43363">
        <ele>84</ele>
        <time>2011-11-24T10:17:36Z</time>
      </trkpt>
      <trkpt lat="46.40277" lon="-0.43366">
        <ele>83</ele>
        <time>2011-11-24T10:17:41Z</time>
      </trkpt>
      <trkpt lat="46.4027" lon="-0.4337">
        <ele>83</ele>
        <time>2011-11-24T10:17:46Z</time>
      </trkpt>
      <trkpt lat="46.40264" lon="-0.43372">
        <ele>82</ele>
        <time>2011-11-24T10:17:51Z</time>
      </trkpt>
      <trkpt lat="46.4026" lon="-0.43373">
        <ele>83</ele>
        <time>2011-11-24T10:17:56Z</time>
      </trkpt>
      <trkpt lat="46.40255" lon="-0.43376">
        <ele>83</ele>
        <time>2011-11-24T10:18:01Z</time>
      </trkpt>
      <trkpt lat="46.40247" lon="-0.43378">
        <ele>84</ele>
        <time>2011-11-24T10:18:06Z</time>
      </trkpt>
      <trkpt lat="46.4024" lon="-0.4338">
        <ele>84</ele>
        <time>2011-11-24T10:18:11Z</time>
      </trkpt>
      <trkpt lat="46.40236" lon="-0.43381">
        <ele>83</ele>
        <time>2011-11-24T10:18:16Z</time>
      </trkpt>
      <trkpt lat="46.40231" lon="-0.43383">
        <ele>83</ele>
        <time>2011-11-24T10:18:21Z</time>
      </trkpt>
      <trkpt lat="46.40225" lon="-0.43385">
        <ele>83</ele>
        <time>2011-11-24T10:18:26Z</time>
      </trkpt>
      <trkpt lat="46.40219" lon="-0.43387">
        <ele>83</ele>
        <time>2011-11-24T10:18:31Z</time>
      </trkpt>
      <trkpt lat="46.40212" lon="-0.43391">
        <ele>83</ele>
        <time>2011-11-24T10:18:36Z</time>
      </trkpt>
      <trkpt lat="46.40207" lon="-0.43394">
        <ele>81</ele>
        <time>2011-11-24T10:18:41Z</time>
      </trkpt>
      <trkpt lat="46.40202" lon="-0.43397">
        <ele>81</ele>
        <time>2011-11-24T10:18:46Z</time>
      </trkpt>
      <trkpt lat="46.40197" lon="-0.43399">
        <ele>80</ele>
        <time>2011-11-24T10:18:51Z</time>
      </trkpt>
      <trkpt lat="46.40192" lon="-0.43401">
        <ele>81</ele>
        <time>2011-11-24T10:18:56Z</time>
      </trkpt>
      <trkpt lat="46.40186" lon="-0.43401">
        <ele>80</ele>
        <time>2011-11-24T10:19:01Z</time>
      </trkpt>
      <trkpt lat="46.4018" lon="-0.43402">
        <ele>81</ele>
        <time>2011-11-24T10:19:06Z</time>
      </trkpt>
      <trkpt lat="46.40174" lon="-0.43403">
        <ele>79</ele>
        <time>2011-11-24T10:19:11Z</time>
      </trkpt>
      <trkpt lat="46.40168" lon="-0.43403">
        <ele>79</ele>
        <time>2011-11-24T10:19:16Z</time>
      </trkpt>
      <trkpt lat="46.40162" lon="-0.43403">
        <ele>80</ele>
        <time>2011-11-24T10:19:21Z</time>
      </trkpt>
      <trkpt lat="46.40156" lon="-0.43402">
        <ele>80</ele>
        <time>2011-11-24T10:19:26Z</time>
      </trkpt>
      <trkpt lat="46.4015" lon="-0.43405">
        <ele>79</ele>
        <time>2011-11-24T10:19:31Z</time>
      </trkpt>
      <trkpt lat="46.40144" lon="-0.43407">
        <ele>79</ele>
        <time>2011-11-24T10:19:36Z</time>
      </trkpt>
      <trkpt lat="46.40138" lon="-0.43412">
        <ele>79</ele>
        <time>2011-11-24T10:19:41Z</time>
      </trkpt>
      <trkpt lat="46.40133" lon="-0.43416">
        <ele>79</ele>
        <time>2011-11-24T10:19:46Z</time>
      </trkpt>
      <trkpt lat="46.40127" lon="-0.43421">
        <ele>79</ele>
        <time>2011-11-24T10:19:51Z</time>
      </trkpt>
      <trkpt lat="46.40121" lon="-0.43425">
        <ele>80</ele>
        <time>2011-11-24T10:19:56Z</time>
      </trkpt>
      <trkpt lat="46.40115" lon="-0.43429">
        <ele>79</ele>
        <time>2011-11-24T10:20:01Z</time>
      </trkpt>
      <trkpt lat="46.4011" lon="-0.43434">
        <ele>79</ele>
        <time>2011-11-24T10:20:06Z</time>
      </trkpt>
      <trkpt lat="46.40104" lon="-0.43436">
        <ele>80</ele>
        <time>2011-11-24T10:20:11Z</time>
      </trkpt>
      <trkpt lat="46.40098" lon="-0.43438">
        <ele>80</ele>
        <time>2011-11-24T10:20:16Z</time>
      </trkpt>
      <trkpt lat="46.40095" lon="-0.4344">
        <ele>80</ele>
        <time>2011-11-24T10:20:21Z</time>
      </trkpt>
      <trkpt lat="46.40086" lon="-0.43443">
        <ele>79</ele>
        <time>2011-11-24T10:20:26Z</time>
      </trkpt>
      <trkpt lat="46.4008" lon="-0.43446">
        <ele>80</ele>
        <time>2011-11-24T10:20:31Z</time>
      </trkpt>
      <trkpt lat="46.40075" lon="-0.43448">
        <ele>81</ele>
        <time>2011-11-24T10:20:36Z</time>
      </trkpt>
      <trkpt lat="46.40069" lon="-0.4345">
        <ele>81</ele>
        <time>2011-11-24T10:20:41Z</time>
      </trkpt>
      <trkpt lat="46.40063" lon="-0.43454">
        <ele>82</ele>
        <time>2011-11-24T10:20:46Z</time>
      </trkpt>
      <trkpt lat="46.40059" lon="-0.43457">
        <ele>82</ele>
        <time>2011-11-24T10:20:51Z</time>
      </trkpt>
      <trkpt lat="46.40053" lon="-0.43459">
        <ele>82</ele>
        <time>2011-11-24T10:20:56Z</time>
      </trkpt>
      <trkpt lat="46.4005" lon="-0.43461">
        <ele>82</ele>
        <time>2011-11-24T10:21:01Z</time>
      </trkpt>
      <trkpt lat="46.40047" lon="-0.43464">
        <ele>82</ele>
        <time>2011-11-24T10:21:06Z</time>
      </trkpt>
      <trkpt lat="46.4004" lon="-0.43468">
        <ele>81</ele>
        <time>2011-11-24T10:21:11Z</time>
      </trkpt>
      <trkpt lat="46.40037" lon="-0.43471">
        <ele>81</ele>
        <time>2011-11-24T10:21:16Z</time>
      </trkpt>
      <trkpt lat="46.40035" lon="-0.43471">
        <ele>80</ele>
        <time>2011-11-24T10:21:21Z</time>
      </trkpt>
      <trkpt lat="46.40028" lon="-0.43476">
        <ele>79</ele>
        <time>2011-11-24T10:21:26Z</time>
      </trkpt>
      <trkpt lat="46.40022" lon="-0.43483">
        <ele>79</ele>
        <time>2011-11-24T10:21:31Z</time>
      </trkpt>
      <trkpt lat="46.40015" lon="-0.4349">
        <ele>81</ele>
        <time>2011-11-24T10:21:36Z</time>
      </trkpt>
      <trkpt lat="46.40011" lon="-0.43496">
        <ele>82</ele>
        <time>2011-11-24T10:21:41Z</time>
      </trkpt>
      <trkpt lat="46.40006" lon="-0.43503">
        <ele>82</ele>
        <time>2011-11-24T10:21:46Z</time>
      </trkpt>
      <trkpt lat="46.40002" lon="-0.43509">
        <ele>83</ele>
        <time>2011-11-24T10:21:51Z</time>
      </trkpt>
      <trkpt lat="46.39997" lon="-0.43516">
        <ele>84</ele>
        <time>2011-11-24T10:21:56Z</time>
      </trkpt>
      <trkpt lat="46.39993" lon="-0.43522">
        <ele>84</ele>
        <time>2011-11-24T10:22:01Z</time>
      </trkpt>
      <trkpt lat="46.39988" lon="-0.43528">
        <ele>85</ele>
        <time>2011-11-24T10:22:06Z</time>
      </trkpt>
      <trkpt lat="46.39986" lon="-0.43532">
        <ele>86</ele>
        <time>2011-11-24T10:22:11Z</time>
      </trkpt>
      <trkpt lat="46.3998" lon="-0.43538">
        <ele>86</ele>
        <time>2011-11-24T10:22:16Z</time>
      </trkpt>
      <trkpt lat="46.39974" lon="-0.43543">
        <ele>86</ele>
        <time>2011-11-24T10:22:21Z</time>
      </trkpt>
      <trkpt lat="46.39968" lon="-0.43548">
        <ele>86</ele>
        <time>2011-11-24T10:22:26Z</time>
      </trkpt>
      <trkpt lat="46.39964" lon="-0.4355">
        <ele>86</ele>
        <time>2011-11-24T10:22:31Z</time>
      </trkpt>
      <trkpt lat="46.39958" lon="-0.43555">
        <ele>87</ele>
        <time>2011-11-24T10:22:36Z</time>
      </trkpt>
      <trkpt lat="46.39953" lon="-0.4356">
        <ele>86</ele>
        <time>2011-11-24T10:22:41Z</time>
      </trkpt>
      <trkpt lat="46.39949" lon="-0.43563">
        <ele>85</ele>
        <time>2011-11-24T10:22:46Z</time>
      </trkpt>
      <trkpt lat="46.39944" lon="-0.43568">
        <ele>84</ele>
        <time>2011-11-24T10:22:51Z</time>
      </trkpt>
      <trkpt lat="46.39939" lon="-0.43572">
        <ele>83</ele>
        <time>2011-11-24T10:22:56Z</time>
      </trkpt>
      <trkpt lat="46.39935" lon="-0.43576">
        <ele>83</ele>
        <time>2011-11-24T10:23:01Z</time>
      </trkpt>
      <trkpt lat="46.3993" lon="-0.43582">
        <ele>83</ele>
        <time>2011-11-24T10:23:06Z</time>
      </trkpt>
      <trkpt lat="46.39925" lon="-0.43586">
        <ele>83</ele>
        <time>2011-11-24T10:23:11Z</time>
      </trkpt>
      <trkpt lat="46.39921" lon="-0.4359">
        <ele>81</ele>
        <time>2011-11-24T10:23:16Z</time>
      </trkpt>
      <trkpt lat="46.39916" lon="-0.43593">
        <ele>81</ele>
        <time>2011-11-24T10:23:21Z</time>
      </trkpt>
      <trkpt lat="46.3991" lon="-0.43596">
        <ele>80</ele>
        <time>2011-11-24T10:23:26Z</time>
      </trkpt>
      <trkpt lat="46.39905" lon="-0.43598">
        <ele>79</ele>
        <time>2011-11-24T10:23:31Z</time>
      </trkpt>
      <trkpt lat="46.399" lon="-0.43601">
        <ele>79</ele>
        <time>2011-11-24T10:23:36Z</time>
      </trkpt>
      <trkpt lat="46.39894" lon="-0.43604">
        <ele>79</ele>
        <time>2011-11-24T10:23:41Z</time>
      </trkpt>
      <trkpt lat="46.39888" lon="-0.43605">
        <ele>79</ele>
        <time>2011-11-24T10:23:46Z</time>
      </trkpt>
      <trkpt lat="46.39884" lon="-0.43607">
        <ele>80</ele>
        <time>2011-11-24T10:23:51Z</time>
      </trkpt>
      <trkpt lat="46.39877" lon="-0.43607">
        <ele>81</ele>
        <time>2011-11-24T10:23:56Z</time>
      </trkpt>
      <trkpt lat="46.39872" lon="-0.43607">
        <ele>80</ele>
        <time>2011-11-24T10:24:01Z</time>
      </trkpt>
      <trkpt lat="46.39872" lon="-0.43607">
        <ele>80</ele>
        <time>2011-11-24T10:24:06Z</time>
      </trkpt>
      <trkpt lat="46.39872" lon="-0.43607">
        <ele>80</ele>
        <time>2011-11-24T10:24:16Z</time>
      </trkpt>
      <trkpt lat="46.39861" lon="-0.43603">
        <ele>82</ele>
        <time>2011-11-24T10:24:56Z</time>
      </trkpt>
      <trkpt lat="46.39853" lon="-0.43598">
        <ele>82</ele>
        <time>2011-11-24T10:25:01Z</time>
      </trkpt>
      <trkpt lat="46.39848" lon="-0.43592">
        <ele>82</ele>
        <time>2011-11-24T10:25:06Z</time>
      </trkpt>
      <trkpt lat="46.39843" lon="-0.43585">
        <ele>81</ele>
        <time>2011-11-24T10:25:11Z</time>
      </trkpt>
      <trkpt lat="46.39841" lon="-0.43575">
        <ele>82</ele>
        <time>2011-11-24T10:25:16Z</time>
      </trkpt>
      <trkpt lat="46.39842" lon="-0.43568">
        <ele>81</ele>
        <time>2011-11-24T10:25:21Z</time>
      </trkpt>
      <trkpt lat="46.39834" lon="-0.43558">
        <ele>80</ele>
        <time>2011-11-24T10:25:26Z</time>
      </trkpt>
      <trkpt lat="46.39827" lon="-0.43548">
        <ele>79</ele>
        <time>2011-11-24T10:25:31Z</time>
      </trkpt>
      <trkpt lat="46.39818" lon="-0.43546">
        <ele>79</ele>
        <time>2011-11-24T10:25:36Z</time>
      </trkpt>
      <trkpt lat="46.39811" lon="-0.43548">
        <ele>79</ele>
        <time>2011-11-24T10:25:41Z</time>
      </trkpt>
      <trkpt lat="46.39805" lon="-0.43552">
        <ele>78</ele>
        <time>2011-11-24T10:25:46Z</time>
      </trkpt>
      <trkpt lat="46.39803" lon="-0.43554">
        <ele>78</ele>
        <time>2011-11-24T10:25:51Z</time>
      </trkpt>
      <trkpt lat="46.39795" lon="-0.43558">
        <ele>79</ele>
        <time>2011-11-24T10:25:56Z</time>
      </trkpt>
      <trkpt lat="46.3979" lon="-0.43562">
        <ele>78</ele>
        <time>2011-11-24T10:26:01Z</time>
      </trkpt>
      <trkpt lat="46.39784" lon="-0.43564">
        <ele>77</ele>
        <time>2011-11-24T10:26:06Z</time>
      </trkpt>
      <trkpt lat="46.39777" lon="-0.43567">
        <ele>76</ele>
        <time>2011-11-24T10:26:11Z</time>
      </trkpt>
      <trkpt lat="46.3977" lon="-0.43571">
        <ele>76</ele>
        <time>2011-11-24T10:26:16Z</time>
      </trkpt>
      <trkpt lat="46.39763" lon="-0.43576">
        <ele>76</ele>
        <time>2011-11-24T10:26:21Z</time>
      </trkpt>
      <trkpt lat="46.39758" lon="-0.43581">
        <ele>77</ele>
        <time>2011-11-24T10:26:26Z</time>
      </trkpt>
      <trkpt lat="46.39753" lon="-0.43584">
        <ele>77</ele>
        <time>2011-11-24T10:26:31Z</time>
      </trkpt>
      <trkpt lat="46.39746" lon="-0.4359">
        <ele>78</ele>
        <time>2011-11-24T10:26:36Z</time>
      </trkpt>
      <trkpt lat="46.39741" lon="-0.43594">
        <ele>78</ele>
        <time>2011-11-24T10:26:41Z</time>
      </trkpt>
      <trkpt lat="46.39737" lon="-0.43599">
        <ele>78</ele>
        <time>2011-11-24T10:26:46Z</time>
      </trkpt>
      <trkpt lat="46.39732" lon="-0.43604">
        <ele>78</ele>
        <time>2011-11-24T10:26:51Z</time>
      </trkpt>
      <trkpt lat="46.39727" lon="-0.43609">
        <ele>78</ele>
        <time>2011-11-24T10:26:56Z</time>
      </trkpt>
      <trkpt lat="46.39721" lon="-0.43615">
        <ele>76</ele>
        <time>2011-11-24T10:27:01Z</time>
      </trkpt>
      <trkpt lat="46.39716" lon="-0.43621">
        <ele>76</ele>
        <time>2011-11-24T10:27:06Z</time>
      </trkpt>
      <trkpt lat="46.3971" lon="-0.43623">
        <ele>75</ele>
        <time>2011-11-24T10:27:11Z</time>
      </trkpt>
      <trkpt lat="46.39705" lon="-0.43628">
        <ele>74</ele>
        <time>2011-11-24T10:27:16Z</time>
      </trkpt>
      <trkpt lat="46.39699" lon="-0.43632">
        <ele>74</ele>
        <time>2011-11-24T10:27:21Z</time>
      </trkpt>
      <trkpt lat="46.39693" lon="-0.43637">
        <ele>75</ele>
        <time>2011-11-24T10:27:26Z</time>
      </trkpt>
      <trkpt lat="46.39686" lon="-0.43641">
        <ele>74</ele>
        <time>2011-11-24T10:27:31Z</time>
      </trkpt>
      <trkpt lat="46.39678" lon="-0.43646">
        <ele>75</ele>
        <time>2011-11-24T10:27:36Z</time>
      </trkpt>
      <trkpt lat="46.39673" lon="-0.43652">
        <ele>75</ele>
        <time>2011-11-24T10:27:41Z</time>
      </trkpt>
      <trkpt lat="46.39669" lon="-0.43657">
        <ele>75</ele>
        <time>2011-11-24T10:27:46Z</time>
      </trkpt>
      <trkpt lat="46.39666" lon="-0.4366">
        <ele>74</ele>
        <time>2011-11-24T10:27:51Z</time>
      </trkpt>
      <trkpt lat="46.39662" lon="-0.43664">
        <ele>73</ele>
        <time>2011-11-24T10:27:56Z</time>
      </trkpt>
      <trkpt lat="46.39657" lon="-0.43671">
        <ele>73</ele>
        <time>2011-11-24T10:28:01Z</time>
      </trkpt>
      <trkpt lat="46.39652" lon="-0.43675">
        <ele>72</ele>
        <time>2011-11-24T10:28:06Z</time>
      </trkpt>
      <trkpt lat="46.39648" lon="-0.4368">
        <ele>72</ele>
        <time>2011-11-24T10:28:11Z</time>
      </trkpt>
      <trkpt lat="46.39644" lon="-0.43683">
        <ele>72</ele>
        <time>2011-11-24T10:28:16Z</time>
      </trkpt>
      <trkpt lat="46.39638" lon="-0.4369">
        <ele>72</ele>
        <time>2011-11-24T10:28:21Z</time>
      </trkpt>
      <trkpt lat="46.39634" lon="-0.43698">
        <ele>71</ele>
        <time>2011-11-24T10:28:26Z</time>
      </trkpt>
      <trkpt lat="46.39627" lon="-0.43704">
        <ele>72</ele>
        <time>2011-11-24T10:28:31Z</time>
      </trkpt>
      <trkpt lat="46.39623" lon="-0.43709">
        <ele>71</ele>
        <time>2011-11-24T10:28:36Z</time>
      </trkpt>
      <trkpt lat="46.39623" lon="-0.43711">
        <ele>74</ele>
        <time>2011-11-24T10:28:41Z</time>
      </trkpt>
      <trkpt lat="46.39622" lon="-0.43714">
        <ele>75</ele>
        <time>2011-11-24T10:28:46Z</time>
      </trkpt>
      <trkpt lat="46.39619" lon="-0.43716">
        <ele>74</ele>
        <time>2011-11-24T10:28:51Z</time>
      </trkpt>
      <trkpt lat="46.39615" lon="-0.43719">
        <ele>73</ele>
        <time>2011-11-24T10:28:56Z</time>
      </trkpt>
      <trkpt lat="46.39612" lon="-0.43722">
        <ele>74</ele>
        <time>2011-11-24T10:29:01Z</time>
      </trkpt>
      <trkpt lat="46.39608" lon="-0.43726">
        <ele>75</ele>
        <time>2011-11-24T10:29:06Z</time>
      </trkpt>
      <trkpt lat="46.39605" lon="-0.43729">
        <ele>74</ele>
        <time>2011-11-24T10:29:11Z</time>
      </trkpt>
      <trkpt lat="46.39601" lon="-0.43731">
        <ele>73</ele>
        <time>2011-11-24T10:29:16Z</time>
      </trkpt>
      <trkpt lat="46.39597" lon="-0.43736">
        <ele>73</ele>
        <time>2011-11-24T10:29:21Z</time>
      </trkpt>
      <trkpt lat="46.39592" lon="-0.43742">
        <ele>74</ele>
        <time>2011-11-24T10:29:26Z</time>
      </trkpt>
      <trkpt lat="46.39591" lon="-0.43746">
        <ele>73</ele>
        <time>2011-11-24T10:29:31Z</time>
      </trkpt>
      <trkpt lat="46.39587" lon="-0.43749">
        <ele>73</ele>
        <time>2011-11-24T10:29:36Z</time>
      </trkpt>
      <trkpt lat="46.39587" lon="-0.4375">
        <ele>73</ele>
        <time>2011-11-24T10:29:41Z</time>
      </trkpt>
      <trkpt lat="46.39586" lon="-0.4375">
        <ele>73</ele>
        <time>2011-11-24T10:29:46Z</time>
      </trkpt>
      <trkpt lat="46.39586" lon="-0.43749">
        <ele>73</ele>
        <time>2011-11-24T10:29:51Z</time>
      </trkpt>
      <trkpt lat="46.39585" lon="-0.43749">
        <ele>73</ele>
        <time>2011-11-24T10:30:06Z</time>
      </trkpt>
      <trkpt lat="46.39586" lon="-0.4375">
        <ele>74</ele>
        <time>2011-11-24T10:32:46Z</time>
      </trkpt>
      <trkpt lat="46.39583" lon="-0.43752">
        <ele>75</ele>
        <time>2011-11-24T10:32:51Z</time>
      </trkpt>
      <trkpt lat="46.39582" lon="-0.43752">
        <ele>75</ele>
        <time>2011-11-24T10:32:56Z</time>
      </trkpt>
      <trkpt lat="46.39582" lon="-0.43752">
        <ele>75</ele>
        <time>2011-11-24T10:33:01Z</time>
      </trkpt>
      <trkpt lat="46.39579" lon="-0.43748">
        <ele>76</ele>
        <time>2011-11-24T10:33:41Z</time>
      </trkpt>
      <trkpt lat="46.39581" lon="-0.4375">
        <ele>75</ele>
        <time>2011-11-24T10:33:46Z</time>
      </trkpt>
      <trkpt lat="46.39582" lon="-0.43752">
        <ele>75</ele>
        <time>2011-11-24T10:33:51Z</time>
      </trkpt>
      <trkpt lat="46.3958" lon="-0.43752">
        <ele>76</ele>
        <time>2011-11-24T10:33:56Z</time>
      </trkpt>
      <trkpt lat="46.39581" lon="-0.43752">
        <ele>76</ele>
        <time>2011-11-24T10:34:01Z</time>
      </trkpt>
      <trkpt lat="46.39581" lon="-0.43753">
        <ele>77</ele>
        <time>2011-11-24T10:34:41Z</time>
      </trkpt>
      <trkpt lat="46.39582" lon="-0.43752">
        <ele>77</ele>
        <time>2011-11-24T10:34:46Z</time>
      </trkpt>
      <trkpt lat="46.39582" lon="-0.43751">
        <ele>77</ele>
        <time>2011-11-24T10:34:51Z</time>
      </trkpt>
      <trkpt lat="46.39582" lon="-0.43751">
        <ele>77</ele>
        <time>2011-11-24T10:34:56Z</time>
      </trkpt>
      <trkpt lat="46.39579" lon="-0.43755">
        <ele>76</ele>
        <time>2011-11-24T10:35:26Z</time>
      </trkpt>
      <trkpt lat="46.39578" lon="-0.43755">
        <ele>76</ele>
        <time>2011-11-24T10:35:31Z</time>
      </trkpt>
      <trkpt lat="46.39571" lon="-0.4376">
        <ele>76</ele>
        <time>2011-11-24T10:35:36Z</time>
      </trkpt>
      <trkpt lat="46.39567" lon="-0.43766">
        <ele>77</ele>
        <time>2011-11-24T10:35:41Z</time>
      </trkpt>
      <trkpt lat="46.39563" lon="-0.4377">
        <ele>77</ele>
        <time>2011-11-24T10:35:46Z</time>
      </trkpt>
      <trkpt lat="46.3956" lon="-0.43777">
        <ele>76</ele>
        <time>2011-11-24T10:35:51Z</time>
      </trkpt>
      <trkpt lat="46.39556" lon="-0.43782">
        <ele>75</ele>
        <time>2011-11-24T10:35:56Z</time>
      </trkpt>
      <trkpt lat="46.39553" lon="-0.43788">
        <ele>74</ele>
        <time>2011-11-24T10:36:01Z</time>
      </trkpt>
      <trkpt lat="46.39553" lon="-0.43789">
        <ele>74</ele>
        <time>2011-11-24T10:36:06Z</time>
      </trkpt>
      <trkpt lat="46.39545" lon="-0.43797">
        <ele>74</ele>
        <time>2011-11-24T10:36:11Z</time>
      </trkpt>
      <trkpt lat="46.39541" lon="-0.43805">
        <ele>73</ele>
        <time>2011-11-24T10:36:16Z</time>
      </trkpt>
      <trkpt lat="46.39538" lon="-0.43811">
        <ele>73</ele>
        <time>2011-11-24T10:36:21Z</time>
      </trkpt>
      <trkpt lat="46.39536" lon="-0.43814">
        <ele>74</ele>
        <time>2011-11-24T10:36:26Z</time>
      </trkpt>
      <trkpt lat="46.3953" lon="-0.43823">
        <ele>74</ele>
        <time>2011-11-24T10:36:31Z</time>
      </trkpt>
      <trkpt lat="46.39526" lon="-0.43829">
        <ele>75</ele>
        <time>2011-11-24T10:36:36Z</time>
      </trkpt>
      <trkpt lat="46.39523" lon="-0.43834">
        <ele>74</ele>
        <time>2011-11-24T10:36:41Z</time>
      </trkpt>
      <trkpt lat="46.39522" lon="-0.43837">
        <ele>75</ele>
        <time>2011-11-24T10:36:46Z</time>
      </trkpt>
      <trkpt lat="46.3952" lon="-0.43843">
        <ele>75</ele>
        <time>2011-11-24T10:36:51Z</time>
      </trkpt>
      <trkpt lat="46.39515" lon="-0.43847">
        <ele>74</ele>
        <time>2011-11-24T10:36:56Z</time>
      </trkpt>
      <trkpt lat="46.39511" lon="-0.43853">
        <ele>73</ele>
        <time>2011-11-24T10:37:01Z</time>
      </trkpt>
      <trkpt lat="46.39508" lon="-0.43859">
        <ele>72</ele>
        <time>2011-11-24T10:37:06Z</time>
      </trkpt>
      <trkpt lat="46.39504" lon="-0.43864">
        <ele>72</ele>
        <time>2011-11-24T10:37:11Z</time>
      </trkpt>
      <trkpt lat="46.39501" lon="-0.43872">
        <ele>71</ele>
        <time>2011-11-24T10:37:16Z</time>
      </trkpt>
      <trkpt lat="46.395" lon="-0.43882">
        <ele>70</ele>
        <time>2011-11-24T10:37:21Z</time>
      </trkpt>
      <trkpt lat="46.39493" lon="-0.4389">
        <ele>72</ele>
        <time>2011-11-24T10:37:26Z</time>
      </trkpt>
      <trkpt lat="46.39488" lon="-0.43897">
        <ele>72</ele>
        <time>2011-11-24T10:37:31Z</time>
      </trkpt>
      <trkpt lat="46.39485" lon="-0.43902">
        <ele>73</ele>
        <time>2011-11-24T10:37:36Z</time>
      </trkpt>
      <trkpt lat="46.39482" lon="-0.43909">
        <ele>73</ele>
        <time>2011-11-24T10:37:41Z</time>
      </trkpt>
      <trkpt lat="46.39478" lon="-0.43916">
        <ele>74</ele>
        <time>2011-11-24T10:37:46Z</time>
      </trkpt>
      <trkpt lat="46.39475" lon="-0.43922">
        <ele>74</ele>
        <time>2011-11-24T10:37:51Z</time>
      </trkpt>
      <trkpt lat="46.39472" lon="-0.43928">
        <ele>73</ele>
        <time>2011-11-24T10:37:56Z</time>
      </trkpt>
      <trkpt lat="46.39468" lon="-0.43934">
        <ele>72</ele>
        <time>2011-11-24T10:38:01Z</time>
      </trkpt>
      <trkpt lat="46.39465" lon="-0.4394">
        <ele>72</ele>
        <time>2011-11-24T10:38:06Z</time>
      </trkpt>
      <trkpt lat="46.39461" lon="-0.43947">
        <ele>73</ele>
        <time>2011-11-24T10:38:11Z</time>
      </trkpt>
      <trkpt lat="46.39461" lon="-0.43954">
        <ele>70</ele>
        <time>2011-11-24T10:38:16Z</time>
      </trkpt>
      <trkpt lat="46.39459" lon="-0.43962">
        <ele>70</ele>
        <time>2011-11-24T10:38:21Z</time>
      </trkpt>
      <trkpt lat="46.39456" lon="-0.43969">
        <ele>70</ele>
        <time>2011-11-24T10:38:26Z</time>
      </trkpt>
      <trkpt lat="46.39454" lon="-0.43976">
        <ele>71</ele>
        <time>2011-11-24T10:38:31Z</time>
      </trkpt>
      <trkpt lat="46.39453" lon="-0.43986">
        <ele>71</ele>
        <time>2011-11-24T10:38:36Z</time>
      </trkpt>
      <trkpt lat="46.39451" lon="-0.43994">
        <ele>72</ele>
        <time>2011-11-24T10:38:41Z</time>
      </trkpt>
      <trkpt lat="46.39449" lon="-0.44002">
        <ele>72</ele>
        <time>2011-11-24T10:38:46Z</time>
      </trkpt>
      <trkpt lat="46.39449" lon="-0.44009">
        <ele>71</ele>
        <time>2011-11-24T10:38:51Z</time>
      </trkpt>
      <trkpt lat="46.3945" lon="-0.44013">
        <ele>69</ele>
        <time>2011-11-24T10:38:56Z</time>
      </trkpt>
      <trkpt lat="46.3945" lon="-0.4402">
        <ele>69</ele>
        <time>2011-11-24T10:39:01Z</time>
      </trkpt>
      <trkpt lat="46.39449" lon="-0.44032">
        <ele>71</ele>
        <time>2011-11-24T10:39:06Z</time>
      </trkpt>
      <trkpt lat="46.39449" lon="-0.44038">
        <ele>72</ele>
        <time>2011-11-24T10:39:11Z</time>
      </trkpt>
      <trkpt lat="46.39446" lon="-0.44049">
        <ele>72</ele>
        <time>2011-11-24T10:39:16Z</time>
      </trkpt>
      <trkpt lat="46.39443" lon="-0.44059">
        <ele>72</ele>
        <time>2011-11-24T10:39:21Z</time>
      </trkpt>
      <trkpt lat="46.3944" lon="-0.44068">
        <ele>72</ele>
        <time>2011-11-24T10:39:26Z</time>
      </trkpt>
      <trkpt lat="46.39441" lon="-0.44072">
        <ele>71</ele>
        <time>2011-11-24T10:39:31Z</time>
      </trkpt>
      <trkpt lat="46.39439" lon="-0.4408">
        <ele>73</ele>
        <time>2011-11-24T10:39:36Z</time>
      </trkpt>
      <trkpt lat="46.39439" lon="-0.4409">
        <ele>72</ele>
        <time>2011-11-24T10:39:41Z</time>
      </trkpt>
      <trkpt lat="46.3944" lon="-0.44095">
        <ele>72</ele>
        <time>2011-11-24T10:39:46Z</time>
      </trkpt>
      <trkpt lat="46.39438" lon="-0.44102">
        <ele>73</ele>
        <time>2011-11-24T10:39:51Z</time>
      </trkpt>
      <trkpt lat="46.39432" lon="-0.44121">
        <ele>79</ele>
        <time>2011-11-24T10:39:56Z</time>
      </trkpt>
      <trkpt lat="46.3943" lon="-0.44128">
        <ele>76</ele>
        <time>2011-11-24T10:40:01Z</time>
      </trkpt>
      <trkpt lat="46.3943" lon="-0.44135">
        <ele>74</ele>
        <time>2011-11-24T10:40:06Z</time>
      </trkpt>
      <trkpt lat="46.39429" lon="-0.44143">
        <ele>73</ele>
        <time>2011-11-24T10:40:11Z</time>
      </trkpt>
      <trkpt lat="46.39428" lon="-0.44151">
        <ele>74</ele>
        <time>2011-11-24T10:40:16Z</time>
      </trkpt>
      <trkpt lat="46.39428" lon="-0.44157">
        <ele>72</ele>
        <time>2011-11-24T10:40:21Z</time>
      </trkpt>
      <trkpt lat="46.39425" lon="-0.44168">
        <ele>75</ele>
        <time>2011-11-24T10:40:26Z</time>
      </trkpt>
      <trkpt lat="46.39424" lon="-0.44175">
        <ele>74</ele>
        <time>2011-11-24T10:40:31Z</time>
      </trkpt>
      <trkpt lat="46.39423" lon="-0.44183">
        <ele>76</ele>
        <time>2011-11-24T10:40:36Z</time>
      </trkpt>
      <trkpt lat="46.39421" lon="-0.4419">
        <ele>76</ele>
        <time>2011-11-24T10:40:41Z</time>
      </trkpt>
      <trkpt lat="46.39415" lon="-0.44203">
        <ele>81</ele>
        <time>2011-11-24T10:40:46Z</time>
      </trkpt>
      <trkpt lat="46.39414" lon="-0.44209">
        <ele>81</ele>
        <time>2011-11-24T10:40:51Z</time>
      </trkpt>
      <trkpt lat="46.39413" lon="-0.44214">
        <ele>80</ele>
        <time>2011-11-24T10:40:56Z</time>
      </trkpt>
      <trkpt lat="46.39411" lon="-0.44219">
        <ele>77</ele>
        <time>2011-11-24T10:41:01Z</time>
      </trkpt>
      <trkpt lat="46.39409" lon="-0.44227">
        <ele>79</ele>
        <time>2011-11-24T10:41:06Z</time>
      </trkpt>
      <trkpt lat="46.3941" lon="-0.44231">
        <ele>77</ele>
        <time>2011-11-24T10:41:11Z</time>
      </trkpt>
      <trkpt lat="46.39408" lon="-0.44237">
        <ele>75</ele>
        <time>2011-11-24T10:41:16Z</time>
      </trkpt>
      <trkpt lat="46.39407" lon="-0.44243">
        <ele>74</ele>
        <time>2011-11-24T10:41:21Z</time>
      </trkpt>
      <trkpt lat="46.39405" lon="-0.44251">
        <ele>73</ele>
        <time>2011-11-24T10:41:26Z</time>
      </trkpt>
      <trkpt lat="46.39402" lon="-0.44258">
        <ele>74</ele>
        <time>2011-11-24T10:41:31Z</time>
      </trkpt>
      <trkpt lat="46.39399" lon="-0.44266">
        <ele>74</ele>
        <time>2011-11-24T10:41:36Z</time>
      </trkpt>
      <trkpt lat="46.39398" lon="-0.44273">
        <ele>72</ele>
        <time>2011-11-24T10:41:41Z</time>
      </trkpt>
      <trkpt lat="46.39393" lon="-0.44284">
        <ele>73</ele>
        <time>2011-11-24T10:41:46Z</time>
      </trkpt>
      <trkpt lat="46.39392" lon="-0.44288">
        <ele>71</ele>
        <time>2011-11-24T10:41:51Z</time>
      </trkpt>
      <trkpt lat="46.3939" lon="-0.44295">
        <ele>72</ele>
        <time>2011-11-24T10:41:56Z</time>
      </trkpt>
      <trkpt lat="46.39386" lon="-0.443">
        <ele>73</ele>
        <time>2011-11-24T10:42:01Z</time>
      </trkpt>
      <trkpt lat="46.39384" lon="-0.44306">
        <ele>72</ele>
        <time>2011-11-24T10:42:06Z</time>
      </trkpt>
      <trkpt lat="46.3938" lon="-0.44314">
        <ele>72</ele>
        <time>2011-11-24T10:42:11Z</time>
      </trkpt>
      <trkpt lat="46.3938" lon="-0.44319">
        <ele>68</ele>
        <time>2011-11-24T10:42:16Z</time>
      </trkpt>
      <trkpt lat="46.39379" lon="-0.44324">
        <ele>65</ele>
        <time>2011-11-24T10:42:21Z</time>
      </trkpt>
      <trkpt lat="46.39378" lon="-0.44328">
        <ele>62</ele>
        <time>2011-11-24T10:42:26Z</time>
      </trkpt>
      <trkpt lat="46.39377" lon="-0.44333">
        <ele>59</ele>
        <time>2011-11-24T10:42:31Z</time>
      </trkpt>
      <trkpt lat="46.39372" lon="-0.44347">
        <ele>63</ele>
        <time>2011-11-24T10:42:36Z</time>
      </trkpt>
      <trkpt lat="46.39369" lon="-0.44355">
        <ele>65</ele>
        <time>2011-11-24T10:42:41Z</time>
      </trkpt>
      <trkpt lat="46.39364" lon="-0.44367">
        <ele>68</ele>
        <time>2011-11-24T10:42:46Z</time>
      </trkpt>
      <trkpt lat="46.39361" lon="-0.44377">
        <ele>68</ele>
        <time>2011-11-24T10:42:51Z</time>
      </trkpt>
      <trkpt lat="46.39358" lon="-0.44386">
        <ele>69</ele>
        <time>2011-11-24T10:42:56Z</time>
      </trkpt>
      <trkpt lat="46.39356" lon="-0.44395">
        <ele>69</ele>
        <time>2011-11-24T10:43:01Z</time>
      </trkpt>
      <trkpt lat="46.39356" lon="-0.44402">
        <ele>68</ele>
        <time>2011-11-24T10:43:06Z</time>
      </trkpt>
      <trkpt lat="46.39354" lon="-0.4441">
        <ele>69</ele>
        <time>2011-11-24T10:43:11Z</time>
      </trkpt>
      <trkpt lat="46.39353" lon="-0.44421">
        <ele>71</ele>
        <time>2011-11-24T10:43:16Z</time>
      </trkpt>
      <trkpt lat="46.39351" lon="-0.44431">
        <ele>72</ele>
        <time>2011-11-24T10:43:21Z</time>
      </trkpt>
      <trkpt lat="46.39349" lon="-0.44441">
        <ele>73</ele>
        <time>2011-11-24T10:43:26Z</time>
      </trkpt>
      <trkpt lat="46.3935" lon="-0.44447">
        <ele>74</ele>
        <time>2011-11-24T10:43:31Z</time>
      </trkpt>
      <trkpt lat="46.39351" lon="-0.44454">
        <ele>72</ele>
        <time>2011-11-24T10:43:36Z</time>
      </trkpt>
      <trkpt lat="46.3935" lon="-0.44464">
        <ele>73</ele>
        <time>2011-11-24T10:43:41Z</time>
      </trkpt>
      <trkpt lat="46.39349" lon="-0.44474">
        <ele>73</ele>
        <time>2011-11-24T10:43:46Z</time>
      </trkpt>
      <trkpt lat="46.39348" lon="-0.44483">
        <ele>75</ele>
        <time>2011-11-24T10:43:51Z</time>
      </trkpt>
      <trkpt lat="46.39349" lon="-0.44492">
        <ele>75</ele>
        <time>2011-11-24T10:43:56Z</time>
      </trkpt>
      <trkpt lat="46.3935" lon="-0.44498">
        <ele>75</ele>
        <time>2011-11-24T10:44:01Z</time>
      </trkpt>
      <trkpt lat="46.39353" lon="-0.44502">
        <ele>75</ele>
        <time>2011-11-24T10:44:06Z</time>
      </trkpt>
      <trkpt lat="46.39356" lon="-0.44504">
        <ele>70</ele>
        <time>2011-11-24T10:44:11Z</time>
      </trkpt>
      <trkpt lat="46.39358" lon="-0.44509">
        <ele>70</ele>
        <time>2011-11-24T10:44:16Z</time>
      </trkpt>
      <trkpt lat="46.39353" lon="-0.44526">
        <ele>73</ele>
        <time>2011-11-24T10:44:21Z</time>
      </trkpt>
      <trkpt lat="46.39351" lon="-0.44538">
        <ele>75</ele>
        <time>2011-11-24T10:44:26Z</time>
      </trkpt>
      <trkpt lat="46.39349" lon="-0.44548">
        <ele>76</ele>
        <time>2011-11-24T10:44:31Z</time>
      </trkpt>
      <trkpt lat="46.3935" lon="-0.44556">
        <ele>77</ele>
        <time>2011-11-24T10:44:36Z</time>
      </trkpt>
      <trkpt lat="46.39351" lon="-0.44565">
        <ele>80</ele>
        <time>2011-11-24T10:44:41Z</time>
      </trkpt>
      <trkpt lat="46.39354" lon="-0.44573">
        <ele>78</ele>
        <time>2011-11-24T10:44:46Z</time>
      </trkpt>
      <trkpt lat="46.39355" lon="-0.4458">
        <ele>78</ele>
        <time>2011-11-24T10:44:51Z</time>
      </trkpt>
      <trkpt lat="46.39354" lon="-0.44592">
        <ele>82</ele>
        <time>2011-11-24T10:44:56Z</time>
      </trkpt>
      <trkpt lat="46.39355" lon="-0.446">
        <ele>84</ele>
        <time>2011-11-24T10:45:01Z</time>
      </trkpt>
      <trkpt lat="46.39354" lon="-0.44611">
        <ele>87</ele>
        <time>2011-11-24T10:45:06Z</time>
      </trkpt>
      <trkpt lat="46.39355" lon="-0.44616">
        <ele>86</ele>
        <time>2011-11-24T10:45:11Z</time>
      </trkpt>
      <trkpt lat="46.39355" lon="-0.44623">
        <ele>83</ele>
        <time>2011-11-24T10:45:16Z</time>
      </trkpt>
      <trkpt lat="46.39358" lon="-0.44632">
        <ele>83</ele>
        <time>2011-11-24T10:45:21Z</time>
      </trkpt>
      <trkpt lat="46.39364" lon="-0.44638">
        <ele>82</ele>
        <time>2011-11-24T10:45:26Z</time>
      </trkpt>
      <trkpt lat="46.39369" lon="-0.44646">
        <ele>75</ele>
        <time>2011-11-24T10:45:31Z</time>
      </trkpt>
      <trkpt lat="46.39372" lon="-0.44653">
        <ele>72</ele>
        <time>2011-11-24T10:45:36Z</time>
      </trkpt>
      <trkpt lat="46.39376" lon="-0.44659">
        <ele>73</ele>
        <time>2011-11-24T10:45:41Z</time>
      </trkpt>
      <trkpt lat="46.3938" lon="-0.44662">
        <ele>67</ele>
        <time>2011-11-24T10:45:46Z</time>
      </trkpt>
      <trkpt lat="46.39379" lon="-0.44675">
        <ele>72</ele>
        <time>2011-11-24T10:45:51Z</time>
      </trkpt>
      <trkpt lat="46.39381" lon="-0.44681">
        <ele>72</ele>
        <time>2011-11-24T10:45:56Z</time>
      </trkpt>
      <trkpt lat="46.39384" lon="-0.4469">
        <ele>71</ele>
        <time>2011-11-24T10:46:01Z</time>
      </trkpt>
      <trkpt lat="46.39384" lon="-0.44703">
        <ele>72</ele>
        <time>2011-11-24T10:46:06Z</time>
      </trkpt>
      <trkpt lat="46.39388" lon="-0.44709">
        <ele>71</ele>
        <time>2011-11-24T10:46:11Z</time>
      </trkpt>
      <trkpt lat="46.39391" lon="-0.44714">
        <ele>71</ele>
        <time>2011-11-24T10:46:16Z</time>
      </trkpt>
      <trkpt lat="46.3939" lon="-0.44727">
        <ele>72</ele>
        <time>2011-11-24T10:46:21Z</time>
      </trkpt>
      <trkpt lat="46.39389" lon="-0.44738">
        <ele>74</ele>
        <time>2011-11-24T10:46:26Z</time>
      </trkpt>
      <trkpt lat="46.39388" lon="-0.44746">
        <ele>74</ele>
        <time>2011-11-24T10:46:31Z</time>
      </trkpt>
      <trkpt lat="46.39389" lon="-0.44759">
        <ele>75</ele>
        <time>2011-11-24T10:46:36Z</time>
      </trkpt>
      <trkpt lat="46.39392" lon="-0.44766">
        <ele>74</ele>
        <time>2011-11-24T10:46:41Z</time>
      </trkpt>
      <trkpt lat="46.39398" lon="-0.44768">
        <ele>67</ele>
        <time>2011-11-24T10:46:46Z</time>
      </trkpt>
      <trkpt lat="46.39401" lon="-0.44774">
        <ele>67</ele>
        <time>2011-11-24T10:46:51Z</time>
      </trkpt>
      <trkpt lat="46.394" lon="-0.44786">
        <ele>69</ele>
        <time>2011-11-24T10:46:56Z</time>
      </trkpt>
      <trkpt lat="46.39405" lon="-0.4479">
        <ele>66</ele>
        <time>2011-11-24T10:47:01Z</time>
      </trkpt>
      <trkpt lat="46.39409" lon="-0.44796">
        <ele>63</ele>
        <time>2011-11-24T10:47:06Z</time>
      </trkpt>
      <trkpt lat="46.3941" lon="-0.44811">
        <ele>67</ele>
        <time>2011-11-24T10:47:11Z</time>
      </trkpt>
      <trkpt lat="46.39413" lon="-0.44819">
        <ele>69</ele>
        <time>2011-11-24T10:47:16Z</time>
      </trkpt>
      <trkpt lat="46.39414" lon="-0.44827">
        <ele>70</ele>
        <time>2011-11-24T10:47:21Z</time>
      </trkpt>
      <trkpt lat="46.39417" lon="-0.44834">
        <ele>68</ele>
        <time>2011-11-24T10:47:26Z</time>
      </trkpt>
      <trkpt lat="46.39425" lon="-0.44837">
        <ele>63</ele>
        <time>2011-11-24T10:47:31Z</time>
      </trkpt>
      <trkpt lat="46.39432" lon="-0.44841">
        <ele>61</ele>
        <time>2011-11-24T10:47:36Z</time>
      </trkpt>
      <trkpt lat="46.39434" lon="-0.44853">
        <ele>64</ele>
        <time>2011-11-24T10:47:41Z</time>
      </trkpt>
      <trkpt lat="46.39437" lon="-0.4486">
        <ele>65</ele>
        <time>2011-11-24T10:47:46Z</time>
      </trkpt>
      <trkpt lat="46.3944" lon="-0.44869">
        <ele>66</ele>
        <time>2011-11-24T10:47:51Z</time>
      </trkpt>
      <trkpt lat="46.39441" lon="-0.44879">
        <ele>70</ele>
        <time>2011-11-24T10:47:56Z</time>
      </trkpt>
      <trkpt lat="46.39441" lon="-0.44888">
        <ele>70</ele>
        <time>2011-11-24T10:48:01Z</time>
      </trkpt>
      <trkpt lat="46.39442" lon="-0.44897">
        <ele>71</ele>
        <time>2011-11-24T10:48:06Z</time>
      </trkpt>
      <trkpt lat="46.39442" lon="-0.44904">
        <ele>70</ele>
        <time>2011-11-24T10:48:11Z</time>
      </trkpt>
      <trkpt lat="46.39444" lon="-0.4491">
        <ele>69</ele>
        <time>2011-11-24T10:48:16Z</time>
      </trkpt>
      <trkpt lat="46.39444" lon="-0.44919">
        <ele>68</ele>
        <time>2011-11-24T10:48:21Z</time>
      </trkpt>
      <trkpt lat="46.39445" lon="-0.44928">
        <ele>68</ele>
        <time>2011-11-24T10:48:26Z</time>
      </trkpt>
      <trkpt lat="46.39448" lon="-0.44933">
        <ele>66</ele>
        <time>2011-11-24T10:48:31Z</time>
      </trkpt>
      <trkpt lat="46.39449" lon="-0.4494">
        <ele>67</ele>
        <time>2011-11-24T10:48:36Z</time>
      </trkpt>
      <trkpt lat="46.39451" lon="-0.44953">
        <ele>69</ele>
        <time>2011-11-24T10:48:41Z</time>
      </trkpt>
      <trkpt lat="46.39453" lon="-0.4496">
        <ele>68</ele>
        <time>2011-11-24T10:48:46Z</time>
      </trkpt>
      <trkpt lat="46.39453" lon="-0.4497">
        <ele>72</ele>
        <time>2011-11-24T10:48:51Z</time>
      </trkpt>
      <trkpt lat="46.39456" lon="-0.44979">
        <ele>70</ele>
        <time>2011-11-24T10:48:56Z</time>
      </trkpt>
      <trkpt lat="46.39459" lon="-0.44987">
        <ele>70</ele>
        <time>2011-11-24T10:49:01Z</time>
      </trkpt>
      <trkpt lat="46.39459" lon="-0.44998">
        <ele>72</ele>
        <time>2011-11-24T10:49:06Z</time>
      </trkpt>
      <trkpt lat="46.39463" lon="-0.45002">
        <ele>68</ele>
        <time>2011-11-24T10:49:11Z</time>
      </trkpt>
      <trkpt lat="46.39461" lon="-0.45013">
        <ele>71</ele>
        <time>2011-11-24T10:49:16Z</time>
      </trkpt>
      <trkpt lat="46.39459" lon="-0.45021">
        <ele>74</ele>
        <time>2011-11-24T10:49:21Z</time>
      </trkpt>
      <trkpt lat="46.39457" lon="-0.45025">
        <ele>74</ele>
        <time>2011-11-24T10:49:26Z</time>
      </trkpt>
      <trkpt lat="46.39458" lon="-0.45027">
        <ele>75</ele>
        <time>2011-11-24T10:49:31Z</time>
      </trkpt>
      <trkpt lat="46.39458" lon="-0.45027">
        <ele>75</ele>
        <time>2011-11-24T10:49:36Z</time>
      </trkpt>
      <trkpt lat="46.39459" lon="-0.45025">
        <ele>73</ele>
        <time>2011-11-24T10:49:46Z</time>
      </trkpt>
      <trkpt lat="46.3946" lon="-0.45024">
        <ele>73</ele>
        <time>2011-11-24T10:49:51Z</time>
      </trkpt>
      <trkpt lat="46.39456" lon="-0.45024">
        <ele>72</ele>
        <time>2011-11-24T10:49:56Z</time>
      </trkpt>
      <trkpt lat="46.39452" lon="-0.45025">
        <ele>73</ele>
        <time>2011-11-24T10:50:01Z</time>
      </trkpt>
      <trkpt lat="46.39446" lon="-0.45021">
        <ele>73</ele>
        <time>2011-11-24T10:50:06Z</time>
      </trkpt>
      <trkpt lat="46.3944" lon="-0.4502">
        <ele>73</ele>
        <time>2011-11-24T10:50:11Z</time>
      </trkpt>
      <trkpt lat="46.39431" lon="-0.45017">
        <ele>72</ele>
        <time>2011-11-24T10:50:16Z</time>
      </trkpt>
      <trkpt lat="46.39425" lon="-0.45019">
        <ele>73</ele>
        <time>2011-11-24T10:50:21Z</time>
      </trkpt>
      <trkpt lat="46.3942" lon="-0.45021">
        <ele>73</ele>
        <time>2011-11-24T10:50:26Z</time>
      </trkpt>
      <trkpt lat="46.39412" lon="-0.4502">
        <ele>76</ele>
        <time>2011-11-24T10:50:31Z</time>
      </trkpt>
      <trkpt lat="46.39406" lon="-0.45022">
        <ele>77</ele>
        <time>2011-11-24T10:50:36Z</time>
      </trkpt>
      <trkpt lat="46.394" lon="-0.45024">
        <ele>77</ele>
        <time>2011-11-24T10:50:41Z</time>
      </trkpt>
      <trkpt lat="46.39395" lon="-0.45029">
        <ele>77</ele>
        <time>2011-11-24T10:50:46Z</time>
      </trkpt>
      <trkpt lat="46.3939" lon="-0.45032">
        <ele>76</ele>
        <time>2011-11-24T10:50:51Z</time>
      </trkpt>
      <trkpt lat="46.39382" lon="-0.45032">
        <ele>77</ele>
        <time>2011-11-24T10:50:56Z</time>
      </trkpt>
      <trkpt lat="46.39377" lon="-0.45034">
        <ele>77</ele>
        <time>2011-11-24T10:51:01Z</time>
      </trkpt>
      <trkpt lat="46.39372" lon="-0.45036">
        <ele>76</ele>
        <time>2011-11-24T10:51:06Z</time>
      </trkpt>
      <trkpt lat="46.39367" lon="-0.45039">
        <ele>76</ele>
        <time>2011-11-24T10:51:11Z</time>
      </trkpt>
      <trkpt lat="46.39361" lon="-0.45041">
        <ele>76</ele>
        <time>2011-11-24T10:51:16Z</time>
      </trkpt>
      <trkpt lat="46.39355" lon="-0.45046">
        <ele>77</ele>
        <time>2011-11-24T10:51:21Z</time>
      </trkpt>
      <trkpt lat="46.39349" lon="-0.45049">
        <ele>76</ele>
        <time>2011-11-24T10:51:26Z</time>
      </trkpt>
      <trkpt lat="46.39345" lon="-0.45051">
        <ele>77</ele>
        <time>2011-11-24T10:51:31Z</time>
      </trkpt>
      <trkpt lat="46.39339" lon="-0.45054">
        <ele>77</ele>
        <time>2011-11-24T10:51:36Z</time>
      </trkpt>
      <trkpt lat="46.39336" lon="-0.45057">
        <ele>76</ele>
        <time>2011-11-24T10:51:41Z</time>
      </trkpt>
      <trkpt lat="46.39334" lon="-0.45059">
        <ele>76</ele>
        <time>2011-11-24T10:51:46Z</time>
      </trkpt>
      <trkpt lat="46.39328" lon="-0.45064">
        <ele>75</ele>
        <time>2011-11-24T10:51:51Z</time>
      </trkpt>
      <trkpt lat="46.39318" lon="-0.45073">
        <ele>76</ele>
        <time>2011-11-24T10:51:56Z</time>
      </trkpt>
      <trkpt lat="46.39314" lon="-0.45072">
        <ele>77</ele>
        <time>2011-11-24T10:52:01Z</time>
      </trkpt>
      <trkpt lat="46.39311" lon="-0.45072">
        <ele>77</ele>
        <time>2011-11-24T10:52:06Z</time>
      </trkpt>
      <trkpt lat="46.39306" lon="-0.45072">
        <ele>77</ele>
        <time>2011-11-24T10:52:11Z</time>
      </trkpt>
      <trkpt lat="46.39299" lon="-0.45076">
        <ele>75</ele>
        <time>2011-11-24T10:52:16Z</time>
      </trkpt>
      <trkpt lat="46.39295" lon="-0.45081">
        <ele>75</ele>
        <time>2011-11-24T10:52:21Z</time>
      </trkpt>
      <trkpt lat="46.39294" lon="-0.45082">
        <ele>76</ele>
        <time>2011-11-24T10:52:26Z</time>
      </trkpt>
      <trkpt lat="46.39291" lon="-0.45084">
        <ele>76</ele>
        <time>2011-11-24T10:52:31Z</time>
      </trkpt>
      <trkpt lat="46.39288" lon="-0.45084">
        <ele>76</ele>
        <time>2011-11-24T10:52:36Z</time>
      </trkpt>
      <trkpt lat="46.39282" lon="-0.45086">
        <ele>75</ele>
        <time>2011-11-24T10:52:41Z</time>
      </trkpt>
      <trkpt lat="46.39276" lon="-0.45089">
        <ele>75</ele>
        <time>2011-11-24T10:52:46Z</time>
      </trkpt>
      <trkpt lat="46.39272" lon="-0.45091">
        <ele>75</ele>
        <time>2011-11-24T10:52:51Z</time>
      </trkpt>
      <trkpt lat="46.39265" lon="-0.45093">
        <ele>75</ele>
        <time>2011-11-24T10:52:56Z</time>
      </trkpt>
      <trkpt lat="46.3926" lon="-0.45096">
        <ele>75</ele>
        <time>2011-11-24T10:53:01Z</time>
      </trkpt>
      <trkpt lat="46.39253" lon="-0.45099">
        <ele>75</ele>
        <time>2011-11-24T10:53:06Z</time>
      </trkpt>
      <trkpt lat="46.39249" lon="-0.45103">
        <ele>75</ele>
        <time>2011-11-24T10:53:11Z</time>
      </trkpt>
      <trkpt lat="46.39242" lon="-0.45104">
        <ele>75</ele>
        <time>2011-11-24T10:53:16Z</time>
      </trkpt>
      <trkpt lat="46.39236" lon="-0.45105">
        <ele>74</ele>
        <time>2011-11-24T10:53:21Z</time>
      </trkpt>
      <trkpt lat="46.3923" lon="-0.45108">
        <ele>75</ele>
        <time>2011-11-24T10:53:26Z</time>
      </trkpt>
      <trkpt lat="46.39225" lon="-0.4511">
        <ele>75</ele>
        <time>2011-11-24T10:53:31Z</time>
      </trkpt>
      <trkpt lat="46.3922" lon="-0.45114">
        <ele>76</ele>
        <time>2011-11-24T10:53:36Z</time>
      </trkpt>
      <trkpt lat="46.39215" lon="-0.45117">
        <ele>75</ele>
        <time>2011-11-24T10:53:41Z</time>
      </trkpt>
      <trkpt lat="46.3921" lon="-0.45119">
        <ele>73</ele>
        <time>2011-11-24T10:53:46Z</time>
      </trkpt>
      <trkpt lat="46.39205" lon="-0.45121">
        <ele>71</ele>
        <time>2011-11-24T10:53:51Z</time>
      </trkpt>
      <trkpt lat="46.39201" lon="-0.45123">
        <ele>72</ele>
        <time>2011-11-24T10:53:56Z</time>
      </trkpt>
      <trkpt lat="46.39195" lon="-0.45127">
        <ele>72</ele>
        <time>2011-11-24T10:54:01Z</time>
      </trkpt>
      <trkpt lat="46.39189" lon="-0.4513">
        <ele>71</ele>
        <time>2011-11-24T10:54:06Z</time>
      </trkpt>
      <trkpt lat="46.39184" lon="-0.45134">
        <ele>75</ele>
        <time>2011-11-24T10:54:11Z</time>
      </trkpt>
      <trkpt lat="46.39178" lon="-0.45136">
        <ele>75</ele>
        <time>2011-11-24T10:54:16Z</time>
      </trkpt>
      <trkpt lat="46.39173" lon="-0.45142">
        <ele>75</ele>
        <time>2011-11-24T10:54:21Z</time>
      </trkpt>
      <trkpt lat="46.39169" lon="-0.45144">
        <ele>75</ele>
        <time>2011-11-24T10:54:26Z</time>
      </trkpt>
      <trkpt lat="46.39164" lon="-0.45144">
        <ele>74</ele>
        <time>2011-11-24T10:54:31Z</time>
      </trkpt>
      <trkpt lat="46.3916" lon="-0.45151">
        <ele>73</ele>
        <time>2011-11-24T10:54:36Z</time>
      </trkpt>
      <trkpt lat="46.39157" lon="-0.45157">
        <ele>72</ele>
        <time>2011-11-24T10:54:41Z</time>
      </trkpt>
      <trkpt lat="46.39149" lon="-0.45168">
        <ele>74</ele>
        <time>2011-11-24T10:54:46Z</time>
      </trkpt>
      <trkpt lat="46.39145" lon="-0.4517">
        <ele>73</ele>
        <time>2011-11-24T10:54:51Z</time>
      </trkpt>
      <trkpt lat="46.39141" lon="-0.45171">
        <ele>73</ele>
        <time>2011-11-24T10:54:56Z</time>
      </trkpt>
      <trkpt lat="46.39135" lon="-0.45174">
        <ele>73</ele>
        <time>2011-11-24T10:55:01Z</time>
      </trkpt>
      <trkpt lat="46.39129" lon="-0.45176">
        <ele>73</ele>
        <time>2011-11-24T10:55:06Z</time>
      </trkpt>
      <trkpt lat="46.39127" lon="-0.45179">
        <ele>71</ele>
        <time>2011-11-24T10:55:11Z</time>
      </trkpt>
      <trkpt lat="46.39121" lon="-0.4518">
        <ele>71</ele>
        <time>2011-11-24T10:55:16Z</time>
      </trkpt>
      <trkpt lat="46.39114" lon="-0.45182">
        <ele>71</ele>
        <time>2011-11-24T10:55:21Z</time>
      </trkpt>
      <trkpt lat="46.39111" lon="-0.4518">
        <ele>71</ele>
        <time>2011-11-24T10:55:26Z</time>
      </trkpt>
      <trkpt lat="46.39107" lon="-0.45173">
        <ele>71</ele>
        <time>2011-11-24T10:55:31Z</time>
      </trkpt>
      <trkpt lat="46.39103" lon="-0.45169">
        <ele>70</ele>
        <time>2011-11-24T10:55:36Z</time>
      </trkpt>
      <trkpt lat="46.39102" lon="-0.45163">
        <ele>60</ele>
        <time>2011-11-24T10:55:41Z</time>
      </trkpt>
      <trkpt lat="46.391" lon="-0.45157">
        <ele>60</ele>
        <time>2011-11-24T10:55:46Z</time>
      </trkpt>
      <trkpt lat="46.39098" lon="-0.4515">
        <ele>61</ele>
        <time>2011-11-24T10:55:51Z</time>
      </trkpt>
      <trkpt lat="46.39098" lon="-0.45142">
        <ele>61</ele>
        <time>2011-11-24T10:55:56Z</time>
      </trkpt>
      <trkpt lat="46.39097" lon="-0.45135">
        <ele>61</ele>
        <time>2011-11-24T10:56:01Z</time>
      </trkpt>
      <trkpt lat="46.39096" lon="-0.45127">
        <ele>64</ele>
        <time>2011-11-24T10:56:06Z</time>
      </trkpt>
      <trkpt lat="46.39096" lon="-0.45118">
        <ele>64</ele>
        <time>2011-11-24T10:56:11Z</time>
      </trkpt>
      <trkpt lat="46.39094" lon="-0.4511">
        <ele>65</ele>
        <time>2011-11-24T10:56:16Z</time>
      </trkpt>
      <trkpt lat="46.39092" lon="-0.45101">
        <ele>67</ele>
        <time>2011-11-24T10:56:21Z</time>
      </trkpt>
      <trkpt lat="46.39093" lon="-0.45094">
        <ele>66</ele>
        <time>2011-11-24T10:56:26Z</time>
      </trkpt>
      <trkpt lat="46.39095" lon="-0.45087">
        <ele>64</ele>
        <time>2011-11-24T10:56:31Z</time>
      </trkpt>
      <trkpt lat="46.39095" lon="-0.45078">
        <ele>63</ele>
        <time>2011-11-24T10:56:36Z</time>
      </trkpt>
      <trkpt lat="46.39094" lon="-0.45071">
        <ele>66</ele>
        <time>2011-11-24T10:56:41Z</time>
      </trkpt>
      <trkpt lat="46.39094" lon="-0.45064">
        <ele>67</ele>
        <time>2011-11-24T10:56:46Z</time>
      </trkpt>
      <trkpt lat="46.39093" lon="-0.45054">
        <ele>68</ele>
        <time>2011-11-24T10:56:51Z</time>
      </trkpt>
      <trkpt lat="46.39092" lon="-0.45046">
        <ele>69</ele>
        <time>2011-11-24T10:56:56Z</time>
      </trkpt>
      <trkpt lat="46.39092" lon="-0.45041">
        <ele>70</ele>
        <time>2011-11-24T10:57:01Z</time>
      </trkpt>
      <trkpt lat="46.3909" lon="-0.45031">
        <ele>73</ele>
        <time>2011-11-24T10:57:06Z</time>
      </trkpt>
      <trkpt lat="46.3909" lon="-0.45028">
        <ele>73</ele>
        <time>2011-11-24T10:57:11Z</time>
      </trkpt>
      <trkpt lat="46.3909" lon="-0.45025">
        <ele>72</ele>
        <time>2011-11-24T10:57:16Z</time>
      </trkpt>
      <trkpt lat="46.3909" lon="-0.45018">
        <ele>73</ele>
        <time>2011-11-24T10:57:21Z</time>
      </trkpt>
      <trkpt lat="46.3909" lon="-0.45011">
        <ele>74</ele>
        <time>2011-11-24T10:57:26Z</time>
      </trkpt>
      <trkpt lat="46.39089" lon="-0.45001">
        <ele>76</ele>
        <time>2011-11-24T10:57:31Z</time>
      </trkpt>
      <trkpt lat="46.39088" lon="-0.44991">
        <ele>76</ele>
        <time>2011-11-24T10:57:36Z</time>
      </trkpt>
      <trkpt lat="46.39088" lon="-0.44983">
        <ele>74</ele>
        <time>2011-11-24T10:57:41Z</time>
      </trkpt>
      <trkpt lat="46.39086" lon="-0.44974">
        <ele>76</ele>
        <time>2011-11-24T10:57:46Z</time>
      </trkpt>
      <trkpt lat="46.39086" lon="-0.44965">
        <ele>77</ele>
        <time>2011-11-24T10:57:51Z</time>
      </trkpt>
      <trkpt lat="46.39085" lon="-0.44955">
        <ele>79</ele>
        <time>2011-11-24T10:57:56Z</time>
      </trkpt>
      <trkpt lat="46.39086" lon="-0.44946">
        <ele>79</ele>
        <time>2011-11-24T10:58:01Z</time>
      </trkpt>
      <trkpt lat="46.39086" lon="-0.44938">
        <ele>79</ele>
        <time>2011-11-24T10:58:06Z</time>
      </trkpt>
      <trkpt lat="46.39083" lon="-0.4493">
        <ele>81</ele>
        <time>2011-11-24T10:58:11Z</time>
      </trkpt>
      <trkpt lat="46.39082" lon="-0.44924">
        <ele>81</ele>
        <time>2011-11-24T10:58:16Z</time>
      </trkpt>
      <trkpt lat="46.39082" lon="-0.44916">
        <ele>80</ele>
        <time>2011-11-24T10:58:21Z</time>
      </trkpt>
      <trkpt lat="46.39081" lon="-0.44907">
        <ele>80</ele>
        <time>2011-11-24T10:58:26Z</time>
      </trkpt>
      <trkpt lat="46.3908" lon="-0.44901">
        <ele>79</ele>
        <time>2011-11-24T10:58:31Z</time>
      </trkpt>
      <trkpt lat="46.39078" lon="-0.44896">
        <ele>78</ele>
        <time>2011-11-24T10:58:36Z</time>
      </trkpt>
      <trkpt lat="46.39077" lon="-0.44887">
        <ele>78</ele>
        <time>2011-11-24T10:58:41Z</time>
      </trkpt>
      <trkpt lat="46.39077" lon="-0.44879">
        <ele>77</ele>
        <time>2011-11-24T10:58:46Z</time>
      </trkpt>
      <trkpt lat="46.39076" lon="-0.44873">
        <ele>76</ele>
        <time>2011-11-24T10:58:51Z</time>
      </trkpt>
      <trkpt lat="46.39075" lon="-0.44863">
        <ele>74</ele>
        <time>2011-11-24T10:58:56Z</time>
      </trkpt>
      <trkpt lat="46.39074" lon="-0.44854">
        <ele>73</ele>
        <time>2011-11-24T10:59:01Z</time>
      </trkpt>
      <trkpt lat="46.39074" lon="-0.44847">
        <ele>72</ele>
        <time>2011-11-24T10:59:06Z</time>
      </trkpt>
      <trkpt lat="46.39072" lon="-0.44838">
        <ele>72</ele>
        <time>2011-11-24T10:59:11Z</time>
      </trkpt>
      <trkpt lat="46.39071" lon="-0.4483">
        <ele>73</ele>
        <time>2011-11-24T10:59:16Z</time>
      </trkpt>
      <trkpt lat="46.39071" lon="-0.44823">
        <ele>74</ele>
        <time>2011-11-24T10:59:21Z</time>
      </trkpt>
      <trkpt lat="46.39071" lon="-0.44814">
        <ele>73</ele>
        <time>2011-11-24T10:59:26Z</time>
      </trkpt>
      <trkpt lat="46.39071" lon="-0.44804">
        <ele>72</ele>
        <time>2011-11-24T10:59:31Z</time>
      </trkpt>
      <trkpt lat="46.3907" lon="-0.44799">
        <ele>72</ele>
        <time>2011-11-24T10:59:36Z</time>
      </trkpt>
      <trkpt lat="46.39071" lon="-0.44787">
        <ele>70</ele>
        <time>2011-11-24T10:59:41Z</time>
      </trkpt>
      <trkpt lat="46.39071" lon="-0.44781">
        <ele>69</ele>
        <time>2011-11-24T10:59:46Z</time>
      </trkpt>
      <trkpt lat="46.39071" lon="-0.44774">
        <ele>71</ele>
        <time>2011-11-24T10:59:51Z</time>
      </trkpt>
      <trkpt lat="46.3907" lon="-0.44765">
        <ele>73</ele>
        <time>2011-11-24T10:59:56Z</time>
      </trkpt>
      <trkpt lat="46.39071" lon="-0.44759">
        <ele>71</ele>
        <time>2011-11-24T11:00:01Z</time>
      </trkpt>
      <trkpt lat="46.39069" lon="-0.44753">
        <ele>71</ele>
        <time>2011-11-24T11:00:06Z</time>
      </trkpt>
      <trkpt lat="46.39068" lon="-0.44745">
        <ele>73</ele>
        <time>2011-11-24T11:00:11Z</time>
      </trkpt>
      <trkpt lat="46.39068" lon="-0.44738">
        <ele>73</ele>
        <time>2011-11-24T11:00:16Z</time>
      </trkpt>
      <trkpt lat="46.39069" lon="-0.44727">
        <ele>69</ele>
        <time>2011-11-24T11:00:21Z</time>
      </trkpt>
      <trkpt lat="46.3907" lon="-0.44719">
        <ele>68</ele>
        <time>2011-11-24T11:00:26Z</time>
      </trkpt>
      <trkpt lat="46.3907" lon="-0.44711">
        <ele>68</ele>
        <time>2011-11-24T11:00:31Z</time>
      </trkpt>
      <trkpt lat="46.3907" lon="-0.44703">
        <ele>68</ele>
        <time>2011-11-24T11:00:36Z</time>
      </trkpt>
      <trkpt lat="46.39069" lon="-0.44694">
        <ele>71</ele>
        <time>2011-11-24T11:00:41Z</time>
      </trkpt>
      <trkpt lat="46.39068" lon="-0.44686">
        <ele>71</ele>
        <time>2011-11-24T11:00:46Z</time>
      </trkpt>
      <trkpt lat="46.39068" lon="-0.44676">
        <ele>72</ele>
        <time>2011-11-24T11:00:51Z</time>
      </trkpt>
      <trkpt lat="46.39067" lon="-0.44669">
        <ele>73</ele>
        <time>2011-11-24T11:00:56Z</time>
      </trkpt>
      <trkpt lat="46.39068" lon="-0.4466">
        <ele>70</ele>
        <time>2011-11-24T11:01:01Z</time>
      </trkpt>
      <trkpt lat="46.39067" lon="-0.44655">
        <ele>71</ele>
        <time>2011-11-24T11:01:06Z</time>
      </trkpt>
      <trkpt lat="46.39068" lon="-0.44649">
        <ele>71</ele>
        <time>2011-11-24T11:01:11Z</time>
      </trkpt>
      <trkpt lat="46.39069" lon="-0.44641">
        <ele>71</ele>
        <time>2011-11-24T11:01:16Z</time>
      </trkpt>
      <trkpt lat="46.39068" lon="-0.44634">
        <ele>72</ele>
        <time>2011-11-24T11:01:21Z</time>
      </trkpt>
      <trkpt lat="46.39069" lon="-0.44624">
        <ele>73</ele>
        <time>2011-11-24T11:01:26Z</time>
      </trkpt>
      <trkpt lat="46.3907" lon="-0.44621">
        <ele>73</ele>
        <time>2011-11-24T11:01:31Z</time>
      </trkpt>
      <trkpt lat="46.39069" lon="-0.44611">
        <ele>74</ele>
        <time>2011-11-24T11:01:36Z</time>
      </trkpt>
      <trkpt lat="46.39068" lon="-0.44598">
        <ele>75</ele>
        <time>2011-11-24T11:01:41Z</time>
      </trkpt>
      <trkpt lat="46.39068" lon="-0.44591">
        <ele>74</ele>
        <time>2011-11-24T11:01:46Z</time>
      </trkpt>
      <trkpt lat="46.39068" lon="-0.44583">
        <ele>74</ele>
        <time>2011-11-24T11:01:51Z</time>
      </trkpt>
      <trkpt lat="46.39069" lon="-0.44576">
        <ele>75</ele>
        <time>2011-11-24T11:01:56Z</time>
      </trkpt>
      <trkpt lat="46.39069" lon="-0.44569">
        <ele>75</ele>
        <time>2011-11-24T11:02:01Z</time>
      </trkpt>
      <trkpt lat="46.39073" lon="-0.44563">
        <ele>68</ele>
        <time>2011-11-24T11:02:06Z</time>
      </trkpt>
      <trkpt lat="46.39075" lon="-0.44555">
        <ele>69</ele>
        <time>2011-11-24T11:02:11Z</time>
      </trkpt>
      <trkpt lat="46.39073" lon="-0.44548">
        <ele>69</ele>
        <time>2011-11-24T11:02:16Z</time>
      </trkpt>
      <trkpt lat="46.39074" lon="-0.44539">
        <ele>71</ele>
        <time>2011-11-24T11:02:21Z</time>
      </trkpt>
      <trkpt lat="46.39074" lon="-0.44532">
        <ele>73</ele>
        <time>2011-11-24T11:02:26Z</time>
      </trkpt>
      <trkpt lat="46.39075" lon="-0.44523">
        <ele>74</ele>
        <time>2011-11-24T11:02:31Z</time>
      </trkpt>
      <trkpt lat="46.39076" lon="-0.44514">
        <ele>75</ele>
        <time>2011-11-24T11:02:36Z</time>
      </trkpt>
      <trkpt lat="46.39078" lon="-0.44506">
        <ele>76</ele>
        <time>2011-11-24T11:02:41Z</time>
      </trkpt>
      <trkpt lat="46.39076" lon="-0.44499">
        <ele>76</ele>
        <time>2011-11-24T11:02:46Z</time>
      </trkpt>
      <trkpt lat="46.39078" lon="-0.44493">
        <ele>75</ele>
        <time>2011-11-24T11:02:51Z</time>
      </trkpt>
      <trkpt lat="46.3908" lon="-0.44484">
        <ele>76</ele>
        <time>2011-11-24T11:02:56Z</time>
      </trkpt>
      <trkpt lat="46.39081" lon="-0.44476">
        <ele>76</ele>
        <time>2011-11-24T11:03:01Z</time>
      </trkpt>
      <trkpt lat="46.39082" lon="-0.4447">
        <ele>75</ele>
        <time>2011-11-24T11:03:06Z</time>
      </trkpt>
      <trkpt lat="46.39083" lon="-0.44461">
        <ele>76</ele>
        <time>2011-11-24T11:03:11Z</time>
      </trkpt>
      <trkpt lat="46.39083" lon="-0.44453">
        <ele>76</ele>
        <time>2011-11-24T11:03:16Z</time>
      </trkpt>
      <trkpt lat="46.39084" lon="-0.44446">
        <ele>75</ele>
        <time>2011-11-24T11:03:21Z</time>
      </trkpt>
      <trkpt lat="46.39084" lon="-0.44438">
        <ele>75</ele>
        <time>2011-11-24T11:03:26Z</time>
      </trkpt>
      <trkpt lat="46.39084" lon="-0.44429">
        <ele>76</ele>
        <time>2011-11-24T11:03:31Z</time>
      </trkpt>
      <trkpt lat="46.39083" lon="-0.4442">
        <ele>76</ele>
        <time>2011-11-24T11:03:36Z</time>
      </trkpt>
      <trkpt lat="46.39083" lon="-0.44413">
        <ele>76</ele>
        <time>2011-11-24T11:03:41Z</time>
      </trkpt>
      <trkpt lat="46.39085" lon="-0.44406">
        <ele>75</ele>
        <time>2011-11-24T11:03:46Z</time>
      </trkpt>
      <trkpt lat="46.39086" lon="-0.44399">
        <ele>75</ele>
        <time>2011-11-24T11:03:51Z</time>
      </trkpt>
      <trkpt lat="46.39089" lon="-0.44391">
        <ele>75</ele>
        <time>2011-11-24T11:03:56Z</time>
      </trkpt>
      <trkpt lat="46.3909" lon="-0.44381">
        <ele>76</ele>
        <time>2011-11-24T11:04:01Z</time>
      </trkpt>
      <trkpt lat="46.39091" lon="-0.44374">
        <ele>75</ele>
        <time>2011-11-24T11:04:06Z</time>
      </trkpt>
      <trkpt lat="46.39093" lon="-0.44367">
        <ele>76</ele>
        <time>2011-11-24T11:04:11Z</time>
      </trkpt>
      <trkpt lat="46.39095" lon="-0.44361">
        <ele>76</ele>
        <time>2011-11-24T11:04:16Z</time>
      </trkpt>
      <trkpt lat="46.39093" lon="-0.44351">
        <ele>77</ele>
        <time>2011-11-24T11:04:21Z</time>
      </trkpt>
      <trkpt lat="46.3909" lon="-0.44342">
        <ele>78</ele>
        <time>2011-11-24T11:04:26Z</time>
      </trkpt>
      <trkpt lat="46.39088" lon="-0.44335">
        <ele>77</ele>
        <time>2011-11-24T11:04:31Z</time>
      </trkpt>
      <trkpt lat="46.39088" lon="-0.44327">
        <ele>74</ele>
        <time>2011-11-24T11:04:36Z</time>
      </trkpt>
      <trkpt lat="46.39087" lon="-0.44321">
        <ele>75</ele>
        <time>2011-11-24T11:04:41Z</time>
      </trkpt>
      <trkpt lat="46.39086" lon="-0.44321">
        <ele>74</ele>
        <time>2011-11-24T11:04:46Z</time>
      </trkpt>
      <trkpt lat="46.39086" lon="-0.44321">
        <ele>74</ele>
        <time>2011-11-24T11:04:51Z</time>
      </trkpt>
      <trkpt lat="46.39086" lon="-0.44322">
        <ele>74</ele>
        <time>2011-11-24T11:05:11Z</time>
      </trkpt>
      <trkpt lat="46.39086" lon="-0.44321">
        <ele>74</ele>
        <time>2011-11-24T11:05:16Z</time>
      </trkpt>
      <trkpt lat="46.39085" lon="-0.44318">
        <ele>74</ele>
        <time>2011-11-24T11:05:21Z</time>
      </trkpt>
      <trkpt lat="46.39085" lon="-0.44318">
        <ele>74</ele>
        <time>2011-11-24T11:05:26Z</time>
      </trkpt>
      <trkpt lat="46.39085" lon="-0.44318">
        <ele>74</ele>
        <time>2011-11-24T11:05:32Z</time>
      </trkpt>
      <trkpt lat="46.39085" lon="-0.44318">
        <ele>74</ele>
        <time>2011-11-24T11:06:01Z</time>
      </trkpt>
      <trkpt lat="46.39086" lon="-0.44317">
        <ele>73</ele>
        <time>2011-11-24T11:06:06Z</time>
      </trkpt>
      <trkpt lat="46.39089" lon="-0.44315">
        <ele>71</ele>
        <time>2011-11-24T11:06:11Z</time>
      </trkpt>
      <trkpt lat="46.39092" lon="-0.44312">
        <ele>73</ele>
        <time>2011-11-24T11:06:16Z</time>
      </trkpt>
      <trkpt lat="46.39096" lon="-0.44307">
        <ele>72</ele>
        <time>2011-11-24T11:06:21Z</time>
      </trkpt>
      <trkpt lat="46.39102" lon="-0.44301">
        <ele>70</ele>
        <time>2011-11-24T11:06:26Z</time>
      </trkpt>
      <trkpt lat="46.39103" lon="-0.44295">
        <ele>70</ele>
        <time>2011-11-24T11:06:31Z</time>
      </trkpt>
      <trkpt lat="46.39104" lon="-0.44291">
        <ele>67</ele>
        <time>2011-11-24T11:06:36Z</time>
      </trkpt>
      <trkpt lat="46.39105" lon="-0.44285">
        <ele>65</ele>
        <time>2011-11-24T11:06:41Z</time>
      </trkpt>
      <trkpt lat="46.39105" lon="-0.44278">
        <ele>65</ele>
        <time>2011-11-24T11:06:46Z</time>
      </trkpt>
      <trkpt lat="46.39105" lon="-0.44277">
        <ele>65</ele>
        <time>2011-11-24T11:06:51Z</time>
      </trkpt>
      <trkpt lat="46.39106" lon="-0.44276">
        <ele>65</ele>
        <time>2011-11-24T11:06:56Z</time>
      </trkpt>
      <trkpt lat="46.39107" lon="-0.44273">
        <ele>65</ele>
        <time>2011-11-24T11:07:01Z</time>
      </trkpt>
      <trkpt lat="46.39107" lon="-0.44273">
        <ele>67</ele>
        <time>2011-11-24T11:07:06Z</time>
      </trkpt>
      <trkpt lat="46.39107" lon="-0.44273">
        <ele>67</ele>
        <time>2011-11-24T11:07:11Z</time>
      </trkpt>
      <trkpt lat="46.39107" lon="-0.44269">
        <ele>67</ele>
        <time>2011-11-24T11:07:31Z</time>
      </trkpt>
      <trkpt lat="46.39108" lon="-0.44268">
        <ele>67</ele>
        <time>2011-11-24T11:07:36Z</time>
      </trkpt>
      <trkpt lat="46.39108" lon="-0.44264">
        <ele>67</ele>
        <time>2011-11-24T11:08:21Z</time>
      </trkpt>
      <trkpt lat="46.39108" lon="-0.44256">
        <ele>68</ele>
        <time>2011-11-24T11:08:26Z</time>
      </trkpt>
      <trkpt lat="46.39111" lon="-0.44248">
        <ele>67</ele>
        <time>2011-11-24T11:08:31Z</time>
      </trkpt>
      <trkpt lat="46.39111" lon="-0.44241">
        <ele>67</ele>
        <time>2011-11-24T11:08:36Z</time>
      </trkpt>
      <trkpt lat="46.39111" lon="-0.44239">
        <ele>67</ele>
        <time>2011-11-24T11:08:41Z</time>
      </trkpt>
      <trkpt lat="46.39112" lon="-0.44239">
        <ele>67</ele>
        <time>2011-11-24T11:08:46Z</time>
      </trkpt>
      <trkpt lat="46.39114" lon="-0.44232">
        <ele>69</ele>
        <time>2011-11-24T11:08:51Z</time>
      </trkpt>
      <trkpt lat="46.39116" lon="-0.44225">
        <ele>70</ele>
        <time>2011-11-24T11:08:56Z</time>
      </trkpt>
      <trkpt lat="46.39118" lon="-0.44219">
        <ele>73</ele>
        <time>2011-11-24T11:09:01Z</time>
      </trkpt>
      <trkpt lat="46.39124" lon="-0.44214">
        <ele>73</ele>
        <time>2011-11-24T11:09:06Z</time>
      </trkpt>
      <trkpt lat="46.39126" lon="-0.44207">
        <ele>75</ele>
        <time>2011-11-24T11:09:11Z</time>
      </trkpt>
      <trkpt lat="46.39129" lon="-0.44202">
        <ele>74</ele>
        <time>2011-11-24T11:09:16Z</time>
      </trkpt>
      <trkpt lat="46.39129" lon="-0.44201">
        <ele>74</ele>
        <time>2011-11-24T11:09:21Z</time>
      </trkpt>
      <trkpt lat="46.39129" lon="-0.44202">
        <ele>73</ele>
        <time>2011-11-24T11:09:26Z</time>
      </trkpt>
      <trkpt lat="46.39131" lon="-0.44201">
        <ele>71</ele>
        <time>2011-11-24T11:09:31Z</time>
      </trkpt>
      <trkpt lat="46.39135" lon="-0.44197">
        <ele>71</ele>
        <time>2011-11-24T11:09:36Z</time>
      </trkpt>
      <trkpt lat="46.39141" lon="-0.44187">
        <ele>71</ele>
        <time>2011-11-24T11:09:41Z</time>
      </trkpt>
      <trkpt lat="46.39145" lon="-0.44183">
        <ele>72</ele>
        <time>2011-11-24T11:09:46Z</time>
      </trkpt>
      <trkpt lat="46.39148" lon="-0.44178">
        <ele>72</ele>
        <time>2011-11-24T11:09:51Z</time>
      </trkpt>
      <trkpt lat="46.39152" lon="-0.44174">
        <ele>68</ele>
        <time>2011-11-24T11:09:56Z</time>
      </trkpt>
      <trkpt lat="46.39154" lon="-0.44171">
        <ele>67</ele>
        <time>2011-11-24T11:10:01Z</time>
      </trkpt>
      <trkpt lat="46.39157" lon="-0.44166">
        <ele>71</ele>
        <time>2011-11-24T11:10:06Z</time>
      </trkpt>
      <trkpt lat="46.39161" lon="-0.44159">
        <ele>73</ele>
        <time>2011-11-24T11:10:11Z</time>
      </trkpt>
      <trkpt lat="46.39165" lon="-0.44153">
        <ele>73</ele>
        <time>2011-11-24T11:10:16Z</time>
      </trkpt>
      <trkpt lat="46.39172" lon="-0.44149">
        <ele>73</ele>
        <time>2011-11-24T11:10:21Z</time>
      </trkpt>
      <trkpt lat="46.39175" lon="-0.44141">
        <ele>74</ele>
        <time>2011-11-24T11:10:26Z</time>
      </trkpt>
      <trkpt lat="46.39178" lon="-0.44136">
        <ele>75</ele>
        <time>2011-11-24T11:10:31Z</time>
      </trkpt>
      <trkpt lat="46.39181" lon="-0.44128">
        <ele>72</ele>
        <time>2011-11-24T11:10:36Z</time>
      </trkpt>
      <trkpt lat="46.39184" lon="-0.44123">
        <ele>72</ele>
        <time>2011-11-24T11:10:41Z</time>
      </trkpt>
      <trkpt lat="46.39186" lon="-0.44116">
        <ele>73</ele>
        <time>2011-11-24T11:10:46Z</time>
      </trkpt>
      <trkpt lat="46.3919" lon="-0.44111">
        <ele>75</ele>
        <time>2011-11-24T11:10:51Z</time>
      </trkpt>
      <trkpt lat="46.39193" lon="-0.44105">
        <ele>75</ele>
        <time>2011-11-24T11:10:56Z</time>
      </trkpt>
      <trkpt lat="46.39196" lon="-0.44097">
        <ele>72</ele>
        <time>2011-11-24T11:11:01Z</time>
      </trkpt>
      <trkpt lat="46.39199" lon="-0.44091">
        <ele>72</ele>
        <time>2011-11-24T11:11:06Z</time>
      </trkpt>
      <trkpt lat="46.39201" lon="-0.44087">
        <ele>74</ele>
        <time>2011-11-24T11:11:11Z</time>
      </trkpt>
      <trkpt lat="46.39204" lon="-0.44079">
        <ele>75</ele>
        <time>2011-11-24T11:11:16Z</time>
      </trkpt>
      <trkpt lat="46.39208" lon="-0.44074">
        <ele>75</ele>
        <time>2011-11-24T11:11:21Z</time>
      </trkpt>
      <trkpt lat="46.39211" lon="-0.44068">
        <ele>76</ele>
        <time>2011-11-24T11:11:26Z</time>
      </trkpt>
      <trkpt lat="46.39215" lon="-0.44059">
        <ele>74</ele>
        <time>2011-11-24T11:11:31Z</time>
      </trkpt>
      <trkpt lat="46.39217" lon="-0.44053">
        <ele>73</ele>
        <time>2011-11-24T11:11:36Z</time>
      </trkpt>
      <trkpt lat="46.39222" lon="-0.44044">
        <ele>71</ele>
        <time>2011-11-24T11:11:41Z</time>
      </trkpt>
      <trkpt lat="46.39225" lon="-0.4404">
        <ele>70</ele>
        <time>2011-11-24T11:11:46Z</time>
      </trkpt>
      <trkpt lat="46.39228" lon="-0.44035">
        <ele>67</ele>
        <time>2011-11-24T11:11:51Z</time>
      </trkpt>
      <trkpt lat="46.39233" lon="-0.44027">
        <ele>67</ele>
        <time>2011-11-24T11:11:56Z</time>
      </trkpt>
      <trkpt lat="46.39235" lon="-0.44023">
        <ele>66</ele>
        <time>2011-11-24T11:12:01Z</time>
      </trkpt>
      <trkpt lat="46.39239" lon="-0.44016">
        <ele>68</ele>
        <time>2011-11-24T11:12:06Z</time>
      </trkpt>
      <trkpt lat="46.39242" lon="-0.4401">
        <ele>68</ele>
        <time>2011-11-24T11:12:11Z</time>
      </trkpt>
      <trkpt lat="46.39246" lon="-0.44004">
        <ele>69</ele>
        <time>2011-11-24T11:12:16Z</time>
      </trkpt>
      <trkpt lat="46.39247" lon="-0.43999">
        <ele>70</ele>
        <time>2011-11-24T11:12:21Z</time>
      </trkpt>
      <trkpt lat="46.39251" lon="-0.43994">
        <ele>70</ele>
        <time>2011-11-24T11:12:26Z</time>
      </trkpt>
      <trkpt lat="46.39254" lon="-0.43988">
        <ele>70</ele>
        <time>2011-11-24T11:12:31Z</time>
      </trkpt>
      <trkpt lat="46.39257" lon="-0.43982">
        <ele>70</ele>
        <time>2011-11-24T11:12:36Z</time>
      </trkpt>
      <trkpt lat="46.39259" lon="-0.43978">
        <ele>70</ele>
        <time>2011-11-24T11:12:41Z</time>
      </trkpt>
      <trkpt lat="46.39262" lon="-0.43972">
        <ele>69</ele>
        <time>2011-11-24T11:12:46Z</time>
      </trkpt>
      <trkpt lat="46.39267" lon="-0.43964">
        <ele>69</ele>
        <time>2011-11-24T11:12:51Z</time>
      </trkpt>
      <trkpt lat="46.39271" lon="-0.43957">
        <ele>69</ele>
        <time>2011-11-24T11:12:56Z</time>
      </trkpt>
      <trkpt lat="46.39274" lon="-0.4395">
        <ele>71</ele>
        <time>2011-11-24T11:13:01Z</time>
      </trkpt>
      <trkpt lat="46.39276" lon="-0.43944">
        <ele>69</ele>
        <time>2011-11-24T11:13:06Z</time>
      </trkpt>
      <trkpt lat="46.3928" lon="-0.43938">
        <ele>70</ele>
        <time>2011-11-24T11:13:11Z</time>
      </trkpt>
      <trkpt lat="46.39283" lon="-0.4393">
        <ele>73</ele>
        <time>2011-11-24T11:13:16Z</time>
      </trkpt>
      <trkpt lat="46.39287" lon="-0.43924">
        <ele>76</ele>
        <time>2011-11-24T11:13:21Z</time>
      </trkpt>
      <trkpt lat="46.3929" lon="-0.43918">
        <ele>76</ele>
        <time>2011-11-24T11:13:26Z</time>
      </trkpt>
      <trkpt lat="46.39294" lon="-0.43913">
        <ele>78</ele>
        <time>2011-11-24T11:13:31Z</time>
      </trkpt>
      <trkpt lat="46.39297" lon="-0.43908">
        <ele>78</ele>
        <time>2011-11-24T11:13:36Z</time>
      </trkpt>
      <trkpt lat="46.39301" lon="-0.43901">
        <ele>79</ele>
        <time>2011-11-24T11:13:41Z</time>
      </trkpt>
      <trkpt lat="46.39305" lon="-0.43893">
        <ele>79</ele>
        <time>2011-11-24T11:13:46Z</time>
      </trkpt>
      <trkpt lat="46.39307" lon="-0.43887">
        <ele>78</ele>
        <time>2011-11-24T11:13:51Z</time>
      </trkpt>
      <trkpt lat="46.39311" lon="-0.4388">
        <ele>79</ele>
        <time>2011-11-24T11:13:56Z</time>
      </trkpt>
      <trkpt lat="46.39316" lon="-0.43876">
        <ele>78</ele>
        <time>2011-11-24T11:14:01Z</time>
      </trkpt>
      <trkpt lat="46.3932" lon="-0.4387">
        <ele>78</ele>
        <time>2011-11-24T11:14:06Z</time>
      </trkpt>
      <trkpt lat="46.39325" lon="-0.43863">
        <ele>78</ele>
        <time>2011-11-24T11:14:11Z</time>
      </trkpt>
      <trkpt lat="46.39328" lon="-0.43854">
        <ele>77</ele>
        <time>2011-11-24T11:14:16Z</time>
      </trkpt>
      <trkpt lat="46.39332" lon="-0.43847">
        <ele>77</ele>
        <time>2011-11-24T11:14:21Z</time>
      </trkpt>
      <trkpt lat="46.39332" lon="-0.4384">
        <ele>77</ele>
        <time>2011-11-24T11:14:26Z</time>
      </trkpt>
      <trkpt lat="46.39337" lon="-0.43832">
        <ele>77</ele>
        <time>2011-11-24T11:14:31Z</time>
      </trkpt>
      <trkpt lat="46.3934" lon="-0.43821">
        <ele>77</ele>
        <time>2011-11-24T11:14:36Z</time>
      </trkpt>
      <trkpt lat="46.39342" lon="-0.43816">
        <ele>77</ele>
        <time>2011-11-24T11:14:41Z</time>
      </trkpt>
      <trkpt lat="46.39343" lon="-0.43808">
        <ele>77</ele>
        <time>2011-11-24T11:14:46Z</time>
      </trkpt>
      <trkpt lat="46.39347" lon="-0.43802">
        <ele>75</ele>
        <time>2011-11-24T11:14:51Z</time>
      </trkpt>
      <trkpt lat="46.3935" lon="-0.43795">
        <ele>74</ele>
        <time>2011-11-24T11:14:56Z</time>
      </trkpt>
      <trkpt lat="46.39353" lon="-0.43788">
        <ele>75</ele>
        <time>2011-11-24T11:15:01Z</time>
      </trkpt>
      <trkpt lat="46.39357" lon="-0.43781">
        <ele>79</ele>
        <time>2011-11-24T11:15:06Z</time>
      </trkpt>
      <trkpt lat="46.39361" lon="-0.43774">
        <ele>78</ele>
        <time>2011-11-24T11:15:11Z</time>
      </trkpt>
      <trkpt lat="46.39363" lon="-0.43768">
        <ele>76</ele>
        <time>2011-11-24T11:15:16Z</time>
      </trkpt>
      <trkpt lat="46.39367" lon="-0.43762">
        <ele>76</ele>
        <time>2011-11-24T11:15:21Z</time>
      </trkpt>
      <trkpt lat="46.3937" lon="-0.43754">
        <ele>76</ele>
        <time>2011-11-24T11:15:26Z</time>
      </trkpt>
      <trkpt lat="46.39372" lon="-0.43746">
        <ele>75</ele>
        <time>2011-11-24T11:15:31Z</time>
      </trkpt>
      <trkpt lat="46.39377" lon="-0.4374">
        <ele>75</ele>
        <time>2011-11-24T11:15:36Z</time>
      </trkpt>
      <trkpt lat="46.39382" lon="-0.43733">
        <ele>72</ele>
        <time>2011-11-24T11:15:41Z</time>
      </trkpt>
      <trkpt lat="46.39384" lon="-0.43727">
        <ele>73</ele>
        <time>2011-11-24T11:15:46Z</time>
      </trkpt>
      <trkpt lat="46.39386" lon="-0.43721">
        <ele>73</ele>
        <time>2011-11-24T11:15:51Z</time>
      </trkpt>
      <trkpt lat="46.39391" lon="-0.43716">
        <ele>73</ele>
        <time>2011-11-24T11:15:56Z</time>
      </trkpt>
      <trkpt lat="46.39393" lon="-0.43711">
        <ele>73</ele>
        <time>2011-11-24T11:16:01Z</time>
      </trkpt>
      <trkpt lat="46.39395" lon="-0.43707">
        <ele>73</ele>
        <time>2011-11-24T11:16:06Z</time>
      </trkpt>
      <trkpt lat="46.39399" lon="-0.43702">
        <ele>74</ele>
        <time>2011-11-24T11:16:11Z</time>
      </trkpt>
      <trkpt lat="46.39404" lon="-0.43697">
        <ele>74</ele>
        <time>2011-11-24T11:16:16Z</time>
      </trkpt>
      <trkpt lat="46.39411" lon="-0.43692">
        <ele>74</ele>
        <time>2011-11-24T11:16:21Z</time>
      </trkpt>
      <trkpt lat="46.39417" lon="-0.43684">
        <ele>76</ele>
        <time>2011-11-24T11:16:26Z</time>
      </trkpt>
      <trkpt lat="46.39421" lon="-0.4368">
        <ele>75</ele>
        <time>2011-11-24T11:16:31Z</time>
      </trkpt>
      <trkpt lat="46.39424" lon="-0.43676">
        <ele>76</ele>
        <time>2011-11-24T11:16:36Z</time>
      </trkpt>
      <trkpt lat="46.39429" lon="-0.43672">
        <ele>75</ele>
        <time>2011-11-24T11:16:41Z</time>
      </trkpt>
      <trkpt lat="46.39433" lon="-0.43667">
        <ele>76</ele>
        <time>2011-11-24T11:16:46Z</time>
      </trkpt>
      <trkpt lat="46.39439" lon="-0.43662">
        <ele>75</ele>
        <time>2011-11-24T11:16:51Z</time>
      </trkpt>
      <trkpt lat="46.39444" lon="-0.43659">
        <ele>77</ele>
        <time>2011-11-24T11:16:56Z</time>
      </trkpt>
      <trkpt lat="46.39448" lon="-0.43653">
        <ele>76</ele>
        <time>2011-11-24T11:17:01Z</time>
      </trkpt>
      <trkpt lat="46.39451" lon="-0.43648">
        <ele>77</ele>
        <time>2011-11-24T11:17:06Z</time>
      </trkpt>
      <trkpt lat="46.39457" lon="-0.43643">
        <ele>77</ele>
        <time>2011-11-24T11:17:11Z</time>
      </trkpt>
      <trkpt lat="46.3946" lon="-0.43638">
        <ele>77</ele>
        <time>2011-11-24T11:17:16Z</time>
      </trkpt>
      <trkpt lat="46.39465" lon="-0.43631">
        <ele>77</ele>
        <time>2011-11-24T11:17:21Z</time>
      </trkpt>
      <trkpt lat="46.39468" lon="-0.43625">
        <ele>76</ele>
        <time>2011-11-24T11:17:26Z</time>
      </trkpt>
      <trkpt lat="46.39471" lon="-0.43621">
        <ele>75</ele>
        <time>2011-11-24T11:17:31Z</time>
      </trkpt>
      <trkpt lat="46.39475" lon="-0.43614">
        <ele>76</ele>
        <time>2011-11-24T11:17:36Z</time>
      </trkpt>
      <trkpt lat="46.3948" lon="-0.43611">
        <ele>77</ele>
        <time>2011-11-24T11:17:41Z</time>
      </trkpt>
      <trkpt lat="46.39484" lon="-0.43604">
        <ele>77</ele>
        <time>2011-11-24T11:17:46Z</time>
      </trkpt>
      <trkpt lat="46.39488" lon="-0.43598">
        <ele>74</ele>
        <time>2011-11-24T11:17:51Z</time>
      </trkpt>
      <trkpt lat="46.39491" lon="-0.43592">
        <ele>74</ele>
        <time>2011-11-24T11:17:56Z</time>
      </trkpt>
      <trkpt lat="46.39495" lon="-0.43587">
        <ele>75</ele>
        <time>2011-11-24T11:18:01Z</time>
      </trkpt>
      <trkpt lat="46.39501" lon="-0.4358">
        <ele>75</ele>
        <time>2011-11-24T11:18:06Z</time>
      </trkpt>
      <trkpt lat="46.39503" lon="-0.43574">
        <ele>76</ele>
        <time>2011-11-24T11:18:11Z</time>
      </trkpt>
      <trkpt lat="46.39508" lon="-0.43567">
        <ele>77</ele>
        <time>2011-11-24T11:18:16Z</time>
      </trkpt>
      <trkpt lat="46.39512" lon="-0.43562">
        <ele>76</ele>
        <time>2011-11-24T11:18:21Z</time>
      </trkpt>
      <trkpt lat="46.39517" lon="-0.43556">
        <ele>77</ele>
        <time>2011-11-24T11:18:26Z</time>
      </trkpt>
      <trkpt lat="46.3952" lon="-0.4355">
        <ele>76</ele>
        <time>2011-11-24T11:18:31Z</time>
      </trkpt>
      <trkpt lat="46.39524" lon="-0.43545">
        <ele>76</ele>
        <time>2011-11-24T11:18:36Z</time>
      </trkpt>
      <trkpt lat="46.39527" lon="-0.43539">
        <ele>75</ele>
        <time>2011-11-24T11:18:41Z</time>
      </trkpt>
      <trkpt lat="46.39531" lon="-0.43534">
        <ele>75</ele>
        <time>2011-11-24T11:18:46Z</time>
      </trkpt>
      <trkpt lat="46.39536" lon="-0.43528">
        <ele>76</ele>
        <time>2011-11-24T11:18:51Z</time>
      </trkpt>
      <trkpt lat="46.39541" lon="-0.43522">
        <ele>77</ele>
        <time>2011-11-24T11:18:56Z</time>
      </trkpt>
      <trkpt lat="46.39544" lon="-0.43517">
        <ele>77</ele>
        <time>2011-11-24T11:19:01Z</time>
      </trkpt>
      <trkpt lat="46.39549" lon="-0.43511">
        <ele>78</ele>
        <time>2011-11-24T11:19:06Z</time>
      </trkpt>
      <trkpt lat="46.39552" lon="-0.43504">
        <ele>77</ele>
        <time>2011-11-24T11:19:11Z</time>
      </trkpt>
      <trkpt lat="46.39556" lon="-0.43498">
        <ele>78</ele>
        <time>2011-11-24T11:19:16Z</time>
      </trkpt>
      <trkpt lat="46.39559" lon="-0.43494">
        <ele>79</ele>
        <time>2011-11-24T11:19:21Z</time>
      </trkpt>
      <trkpt lat="46.39562" lon="-0.43488">
        <ele>79</ele>
        <time>2011-11-24T11:19:26Z</time>
      </trkpt>
      <trkpt lat="46.39566" lon="-0.43482">
        <ele>79</ele>
        <time>2011-11-24T11:19:31Z</time>
      </trkpt>
      <trkpt lat="46.39573" lon="-0.43475">
        <ele>79</ele>
        <time>2011-11-24T11:19:36Z</time>
      </trkpt>
      <trkpt lat="46.39578" lon="-0.43471">
        <ele>80</ele>
        <time>2011-11-24T11:19:41Z</time>
      </trkpt>
      <trkpt lat="46.39583" lon="-0.43466">
        <ele>83</ele>
        <time>2011-11-24T11:19:46Z</time>
      </trkpt>
      <trkpt lat="46.39589" lon="-0.43461">
        <ele>83</ele>
        <time>2011-11-24T11:19:51Z</time>
      </trkpt>
      <trkpt lat="46.39592" lon="-0.43455">
        <ele>82</ele>
        <time>2011-11-24T11:19:56Z</time>
      </trkpt>
      <trkpt lat="46.39595" lon="-0.43449">
        <ele>81</ele>
        <time>2011-11-24T11:20:01Z</time>
      </trkpt>
      <trkpt lat="46.396" lon="-0.43445">
        <ele>83</ele>
        <time>2011-11-24T11:20:06Z</time>
      </trkpt>
      <trkpt lat="46.39604" lon="-0.43441">
        <ele>84</ele>
        <time>2011-11-24T11:20:11Z</time>
      </trkpt>
      <trkpt lat="46.39609" lon="-0.43436">
        <ele>82</ele>
        <time>2011-11-24T11:20:16Z</time>
      </trkpt>
      <trkpt lat="46.39615" lon="-0.43429">
        <ele>81</ele>
        <time>2011-11-24T11:20:21Z</time>
      </trkpt>
      <trkpt lat="46.39619" lon="-0.43425">
        <ele>83</ele>
        <time>2011-11-24T11:20:26Z</time>
      </trkpt>
      <trkpt lat="46.39621" lon="-0.43418">
        <ele>85</ele>
        <time>2011-11-24T11:20:31Z</time>
      </trkpt>
      <trkpt lat="46.39626" lon="-0.43414">
        <ele>87</ele>
        <time>2011-11-24T11:20:36Z</time>
      </trkpt>
      <trkpt lat="46.3963" lon="-0.43408">
        <ele>85</ele>
        <time>2011-11-24T11:20:41Z</time>
      </trkpt>
      <trkpt lat="46.39634" lon="-0.43407">
        <ele>83</ele>
        <time>2011-11-24T11:20:46Z</time>
      </trkpt>
      <trkpt lat="46.39639" lon="-0.43401">
        <ele>83</ele>
        <time>2011-11-24T11:20:51Z</time>
      </trkpt>
      <trkpt lat="46.39644" lon="-0.43396">
        <ele>82</ele>
        <time>2011-11-24T11:20:56Z</time>
      </trkpt>
      <trkpt lat="46.39647" lon="-0.43391">
        <ele>80</ele>
        <time>2011-11-24T11:21:01Z</time>
      </trkpt>
      <trkpt lat="46.3965" lon="-0.43387">
        <ele>77</ele>
        <time>2011-11-24T11:21:06Z</time>
      </trkpt>
      <trkpt lat="46.39651" lon="-0.43386">
        <ele>75</ele>
        <time>2011-11-24T11:21:11Z</time>
      </trkpt>
      <trkpt lat="46.39655" lon="-0.43382">
        <ele>75</ele>
        <time>2011-11-24T11:21:16Z</time>
      </trkpt>
      <trkpt lat="46.39661" lon="-0.43377">
        <ele>73</ele>
        <time>2011-11-24T11:21:21Z</time>
      </trkpt>
      <trkpt lat="46.39667" lon="-0.43371">
        <ele>72</ele>
        <time>2011-11-24T11:21:26Z</time>
      </trkpt>
      <trkpt lat="46.39673" lon="-0.43368">
        <ele>75</ele>
        <time>2011-11-24T11:21:31Z</time>
      </trkpt>
      <trkpt lat="46.39678" lon="-0.43364">
        <ele>74</ele>
        <time>2011-11-24T11:21:36Z</time>
      </trkpt>
      <trkpt lat="46.39684" lon="-0.43361">
        <ele>75</ele>
        <time>2011-11-24T11:21:41Z</time>
      </trkpt>
      <trkpt lat="46.39689" lon="-0.43357">
        <ele>74</ele>
        <time>2011-11-24T11:21:46Z</time>
      </trkpt>
      <trkpt lat="46.39695" lon="-0.43354">
        <ele>76</ele>
        <time>2011-11-24T11:21:51Z</time>
      </trkpt>
      <trkpt lat="46.39699" lon="-0.43351">
        <ele>76</ele>
        <time>2011-11-24T11:21:56Z</time>
      </trkpt>
      <trkpt lat="46.39702" lon="-0.43349">
        <ele>76</ele>
        <time>2011-11-24T11:22:01Z</time>
      </trkpt>
      <trkpt lat="46.3971" lon="-0.43346">
        <ele>76</ele>
        <time>2011-11-24T11:22:06Z</time>
      </trkpt>
      <trkpt lat="46.39717" lon="-0.43341">
        <ele>76</ele>
        <time>2011-11-24T11:22:11Z</time>
      </trkpt>
      <trkpt lat="46.39722" lon="-0.43339">
        <ele>77</ele>
        <time>2011-11-24T11:22:16Z</time>
      </trkpt>
      <trkpt lat="46.39727" lon="-0.43334">
        <ele>77</ele>
        <time>2011-11-24T11:22:21Z</time>
      </trkpt>
      <trkpt lat="46.3973" lon="-0.43332">
        <ele>75</ele>
        <time>2011-11-24T11:22:26Z</time>
      </trkpt>
      <trkpt lat="46.39731" lon="-0.43329">
        <ele>75</ele>
        <time>2011-11-24T11:22:31Z</time>
      </trkpt>
      <trkpt lat="46.39736" lon="-0.43327">
        <ele>76</ele>
        <time>2011-11-24T11:22:36Z</time>
      </trkpt>
      <trkpt lat="46.39747" lon="-0.43322">
        <ele>76</ele>
        <time>2011-11-24T11:22:41Z</time>
      </trkpt>
      <trkpt lat="46.39753" lon="-0.43319">
        <ele>77</ele>
        <time>2011-11-24T11:22:46Z</time>
      </trkpt>
      <trkpt lat="46.39756" lon="-0.43317">
        <ele>77</ele>
        <time>2011-11-24T11:22:51Z</time>
      </trkpt>
      <trkpt lat="46.3976" lon="-0.43313">
        <ele>77</ele>
        <time>2011-11-24T11:22:56Z</time>
      </trkpt>
      <trkpt lat="46.39765" lon="-0.4331">
        <ele>78</ele>
        <time>2011-11-24T11:23:01Z</time>
      </trkpt>
      <trkpt lat="46.39767" lon="-0.43306">
        <ele>77</ele>
        <time>2011-11-24T11:23:06Z</time>
      </trkpt>
      <trkpt lat="46.39773" lon="-0.43302">
        <ele>77</ele>
        <time>2011-11-24T11:23:11Z</time>
      </trkpt>
      <trkpt lat="46.39781" lon="-0.43299">
        <ele>76</ele>
        <time>2011-11-24T11:23:16Z</time>
      </trkpt>
      <trkpt lat="46.39786" lon="-0.43296">
        <ele>76</ele>
        <time>2011-11-24T11:23:21Z</time>
      </trkpt>
      <trkpt lat="46.3979" lon="-0.43292">
        <ele>79</ele>
        <time>2011-11-24T11:23:26Z</time>
      </trkpt>
      <trkpt lat="46.39798" lon="-0.43288">
        <ele>80</ele>
        <time>2011-11-24T11:23:31Z</time>
      </trkpt>
      <trkpt lat="46.39804" lon="-0.43286">
        <ele>79</ele>
        <time>2011-11-24T11:23:36Z</time>
      </trkpt>
      <trkpt lat="46.39809" lon="-0.43283">
        <ele>78</ele>
        <time>2011-11-24T11:23:41Z</time>
      </trkpt>
      <trkpt lat="46.39815" lon="-0.43279">
        <ele>78</ele>
        <time>2011-11-24T11:23:46Z</time>
      </trkpt>
      <trkpt lat="46.39821" lon="-0.43276">
        <ele>75</ele>
        <time>2011-11-24T11:23:51Z</time>
      </trkpt>
      <trkpt lat="46.39827" lon="-0.43272">
        <ele>74</ele>
        <time>2011-11-24T11:23:56Z</time>
      </trkpt>
      <trkpt lat="46.39833" lon="-0.43269">
        <ele>74</ele>
        <time>2011-11-24T11:24:01Z</time>
      </trkpt>
      <trkpt lat="46.39839" lon="-0.43266">
        <ele>74</ele>
        <time>2011-11-24T11:24:06Z</time>
      </trkpt>
      <trkpt lat="46.39845" lon="-0.4326">
        <ele>74</ele>
        <time>2011-11-24T11:24:11Z</time>
      </trkpt>
      <trkpt lat="46.39848" lon="-0.43258">
        <ele>74</ele>
        <time>2011-11-24T11:24:16Z</time>
      </trkpt>
      <trkpt lat="46.39855" lon="-0.43255">
        <ele>74</ele>
        <time>2011-11-24T11:24:21Z</time>
      </trkpt>
      <trkpt lat="46.39858" lon="-0.43252">
        <ele>73</ele>
        <time>2011-11-24T11:24:26Z</time>
      </trkpt>
      <trkpt lat="46.39861" lon="-0.43251">
        <ele>74</ele>
        <time>2011-11-24T11:24:31Z</time>
      </trkpt>
      <trkpt lat="46.39867" lon="-0.43248">
        <ele>73</ele>
        <time>2011-11-24T11:24:36Z</time>
      </trkpt>
      <trkpt lat="46.39872" lon="-0.43245">
        <ele>73</ele>
        <time>2011-11-24T11:24:41Z</time>
      </trkpt>
      <trkpt lat="46.39878" lon="-0.43241">
        <ele>73</ele>
        <time>2011-11-24T11:24:46Z</time>
      </trkpt>
      <trkpt lat="46.39885" lon="-0.43235">
        <ele>74</ele>
        <time>2011-11-24T11:24:51Z</time>
      </trkpt>
      <trkpt lat="46.3989" lon="-0.43232">
        <ele>74</ele>
        <time>2011-11-24T11:24:56Z</time>
      </trkpt>
      <trkpt lat="46.39897" lon="-0.43228">
        <ele>73</ele>
        <time>2011-11-24T11:25:01Z</time>
      </trkpt>
      <trkpt lat="46.39902" lon="-0.43224">
        <ele>73</ele>
        <time>2011-11-24T11:25:06Z</time>
      </trkpt>
      <trkpt lat="46.39907" lon="-0.43221">
        <ele>72</ele>
        <time>2011-11-24T11:25:11Z</time>
      </trkpt>
      <trkpt lat="46.39912" lon="-0.43216">
        <ele>73</ele>
        <time>2011-11-24T11:25:16Z</time>
      </trkpt>
      <trkpt lat="46.39917" lon="-0.43213">
        <ele>74</ele>
        <time>2011-11-24T11:25:21Z</time>
      </trkpt>
      <trkpt lat="46.39923" lon="-0.4321">
        <ele>75</ele>
        <time>2011-11-24T11:25:26Z</time>
      </trkpt>
      <trkpt lat="46.39928" lon="-0.43207">
        <ele>75</ele>
        <time>2011-11-24T11:25:31Z</time>
      </trkpt>
      <trkpt lat="46.39932" lon="-0.43203">
        <ele>75</ele>
        <time>2011-11-24T11:25:36Z</time>
      </trkpt>
      <trkpt lat="46.39938" lon="-0.432">
        <ele>74</ele>
        <time>2011-11-24T11:25:41Z</time>
      </trkpt>
      <trkpt lat="46.39943" lon="-0.43196">
        <ele>75</ele>
        <time>2011-11-24T11:25:46Z</time>
      </trkpt>
      <trkpt lat="46.39947" lon="-0.43192">
        <ele>75</ele>
        <time>2011-11-24T11:25:51Z</time>
      </trkpt>
      <trkpt lat="46.39952" lon="-0.43188">
        <ele>76</ele>
        <time>2011-11-24T11:25:56Z</time>
      </trkpt>
      <trkpt lat="46.39957" lon="-0.43184">
        <ele>75</ele>
        <time>2011-11-24T11:26:01Z</time>
      </trkpt>
      <trkpt lat="46.39963" lon="-0.4318">
        <ele>75</ele>
        <time>2011-11-24T11:26:06Z</time>
      </trkpt>
      <trkpt lat="46.39969" lon="-0.43177">
        <ele>74</ele>
        <time>2011-11-24T11:26:11Z</time>
      </trkpt>
      <trkpt lat="46.39973" lon="-0.43174">
        <ele>74</ele>
        <time>2011-11-24T11:26:16Z</time>
      </trkpt>
      <trkpt lat="46.3998" lon="-0.4317">
        <ele>74</ele>
        <time>2011-11-24T11:26:21Z</time>
      </trkpt>
      <trkpt lat="46.39985" lon="-0.43167">
        <ele>75</ele>
        <time>2011-11-24T11:26:26Z</time>
      </trkpt>
      <trkpt lat="46.3999" lon="-0.43165">
        <ele>74</ele>
        <time>2011-11-24T11:26:31Z</time>
      </trkpt>
      <trkpt lat="46.39994" lon="-0.43163">
        <ele>75</ele>
        <time>2011-11-24T11:26:36Z</time>
      </trkpt>
      <trkpt lat="46.4" lon="-0.4316">
        <ele>75</ele>
        <time>2011-11-24T11:26:41Z</time>
      </trkpt>
      <trkpt lat="46.40005" lon="-0.43158">
        <ele>74</ele>
        <time>2011-11-24T11:26:46Z</time>
      </trkpt>
      <trkpt lat="46.40011" lon="-0.43154">
        <ele>74</ele>
        <time>2011-11-24T11:26:51Z</time>
      </trkpt>
      <trkpt lat="46.40017" lon="-0.43152">
        <ele>74</ele>
        <time>2011-11-24T11:26:56Z</time>
      </trkpt>
      <trkpt lat="46.40023" lon="-0.43148">
        <ele>73</ele>
        <time>2011-11-24T11:27:01Z</time>
      </trkpt>
      <trkpt lat="46.40025" lon="-0.43145">
        <ele>73</ele>
        <time>2011-11-24T11:27:06Z</time>
      </trkpt>
      <trkpt lat="46.40027" lon="-0.43145">
        <ele>72</ele>
        <time>2011-11-24T11:27:11Z</time>
      </trkpt>
      <trkpt lat="46.40031" lon="-0.43144">
        <ele>71</ele>
        <time>2011-11-24T11:27:16Z</time>
      </trkpt>
      <trkpt lat="46.40039" lon="-0.4314">
        <ele>71</ele>
        <time>2011-11-24T11:27:21Z</time>
      </trkpt>
      <trkpt lat="46.40046" lon="-0.43136">
        <ele>72</ele>
        <time>2011-11-24T11:27:26Z</time>
      </trkpt>
      <trkpt lat="46.40052" lon="-0.43135">
        <ele>73</ele>
        <time>2011-11-24T11:27:31Z</time>
      </trkpt>
      <trkpt lat="46.40057" lon="-0.43133">
        <ele>73</ele>
        <time>2011-11-24T11:27:36Z</time>
      </trkpt>
      <trkpt lat="46.40062" lon="-0.4313">
        <ele>73</ele>
        <time>2011-11-24T11:27:41Z</time>
      </trkpt>
      <trkpt lat="46.40067" lon="-0.43129">
        <ele>75</ele>
        <time>2011-11-24T11:27:46Z</time>
      </trkpt>
      <trkpt lat="46.40072" lon="-0.43126">
        <ele>74</ele>
        <time>2011-11-24T11:27:51Z</time>
      </trkpt>
      <trkpt lat="46.40077" lon="-0.43123">
        <ele>75</ele>
        <time>2011-11-24T11:27:56Z</time>
      </trkpt>
      <trkpt lat="46.40083" lon="-0.43122">
        <ele>74</ele>
        <time>2011-11-24T11:28:01Z</time>
      </trkpt>
      <trkpt lat="46.40087" lon="-0.43119">
        <ele>74</ele>
        <time>2011-11-24T11:28:06Z</time>
      </trkpt>
      <trkpt lat="46.40092" lon="-0.43119">
        <ele>73</ele>
        <time>2011-11-24T11:28:11Z</time>
      </trkpt>
      <trkpt lat="46.40097" lon="-0.43115">
        <ele>73</ele>
        <time>2011-11-24T11:28:16Z</time>
      </trkpt>
      <trkpt lat="46.40101" lon="-0.43113">
        <ele>74</ele>
        <time>2011-11-24T11:28:21Z</time>
      </trkpt>
      <trkpt lat="46.40109" lon="-0.43109">
        <ele>74</ele>
        <time>2011-11-24T11:28:26Z</time>
      </trkpt>
      <trkpt lat="46.40116" lon="-0.43106">
        <ele>75</ele>
        <time>2011-11-24T11:28:31Z</time>
      </trkpt>
      <trkpt lat="46.40121" lon="-0.43104">
        <ele>74</ele>
        <time>2011-11-24T11:28:36Z</time>
      </trkpt>
      <trkpt lat="46.40127" lon="-0.43101">
        <ele>75</ele>
        <time>2011-11-24T11:28:41Z</time>
      </trkpt>
      <trkpt lat="46.40133" lon="-0.431">
        <ele>76</ele>
        <time>2011-11-24T11:28:46Z</time>
      </trkpt>
      <trkpt lat="46.40139" lon="-0.43098">
        <ele>77</ele>
        <time>2011-11-24T11:28:51Z</time>
      </trkpt>
      <trkpt lat="46.40144" lon="-0.43095">
        <ele>77</ele>
        <time>2011-11-24T11:28:56Z</time>
      </trkpt>
      <trkpt lat="46.40149" lon="-0.43092">
        <ele>77</ele>
        <time>2011-11-24T11:29:01Z</time>
      </trkpt>
      <trkpt lat="46.40151" lon="-0.43092">
        <ele>76</ele>
        <time>2011-11-24T11:29:06Z</time>
      </trkpt>
      <trkpt lat="46.40157" lon="-0.43088">
        <ele>77</ele>
        <time>2011-11-24T11:29:11Z</time>
      </trkpt>
      <trkpt lat="46.40164" lon="-0.43084">
        <ele>77</ele>
        <time>2011-11-24T11:29:16Z</time>
      </trkpt>
      <trkpt lat="46.40168" lon="-0.43082">
        <ele>77</ele>
        <time>2011-11-24T11:29:21Z</time>
      </trkpt>
      <trkpt lat="46.40174" lon="-0.43078">
        <ele>77</ele>
        <time>2011-11-24T11:29:26Z</time>
      </trkpt>
      <trkpt lat="46.4018" lon="-0.43076">
        <ele>76</ele>
        <time>2011-11-24T11:29:31Z</time>
      </trkpt>
      <trkpt lat="46.40185" lon="-0.43071">
        <ele>76</ele>
        <time>2011-11-24T11:29:36Z</time>
      </trkpt>
      <trkpt lat="46.40189" lon="-0.43069">
        <ele>76</ele>
        <time>2011-11-24T11:29:41Z</time>
      </trkpt>
      <trkpt lat="46.40194" lon="-0.43066">
        <ele>77</ele>
        <time>2011-11-24T11:29:46Z</time>
      </trkpt>
      <trkpt lat="46.40196" lon="-0.43064">
        <ele>77</ele>
        <time>2011-11-24T11:29:51Z</time>
      </trkpt>
      <trkpt lat="46.40204" lon="-0.43061">
        <ele>78</ele>
        <time>2011-11-24T11:29:56Z</time>
      </trkpt>
      <trkpt lat="46.40209" lon="-0.43059">
        <ele>78</ele>
        <time>2011-11-24T11:30:01Z</time>
      </trkpt>
      <trkpt lat="46.40214" lon="-0.43055">
        <ele>78</ele>
        <time>2011-11-24T11:30:06Z</time>
      </trkpt>
      <trkpt lat="46.4022" lon="-0.43053">
        <ele>77</ele>
        <time>2011-11-24T11:30:11Z</time>
      </trkpt>
      <trkpt lat="46.40225" lon="-0.43051">
        <ele>77</ele>
        <time>2011-11-24T11:30:16Z</time>
      </trkpt>
      <trkpt lat="46.40229" lon="-0.43047">
        <ele>76</ele>
        <time>2011-11-24T11:30:21Z</time>
      </trkpt>
      <trkpt lat="46.40231" lon="-0.43046">
        <ele>76</ele>
        <time>2011-11-24T11:30:26Z</time>
      </trkpt>
      <trkpt lat="46.40239" lon="-0.43041">
        <ele>76</ele>
        <time>2011-11-24T11:30:31Z</time>
      </trkpt>
      <trkpt lat="46.40245" lon="-0.43038">
        <ele>76</ele>
        <time>2011-11-24T11:30:36Z</time>
      </trkpt>
      <trkpt lat="46.40249" lon="-0.43036">
        <ele>77</ele>
        <time>2011-11-24T11:30:41Z</time>
      </trkpt>
      <trkpt lat="46.40254" lon="-0.43031">
        <ele>78</ele>
        <time>2011-11-24T11:30:46Z</time>
      </trkpt>
      <trkpt lat="46.40258" lon="-0.4303">
        <ele>78</ele>
        <time>2011-11-24T11:30:51Z</time>
      </trkpt>
      <trkpt lat="46.4026" lon="-0.43028">
        <ele>79</ele>
        <time>2011-11-24T11:30:56Z</time>
      </trkpt>
      <trkpt lat="46.40263" lon="-0.43026">
        <ele>80</ele>
        <time>2011-11-24T11:31:01Z</time>
      </trkpt>
      <trkpt lat="46.4027" lon="-0.43022">
        <ele>80</ele>
        <time>2011-11-24T11:31:06Z</time>
      </trkpt>
      <trkpt lat="46.40278" lon="-0.43016">
        <ele>80</ele>
        <time>2011-11-24T11:31:11Z</time>
      </trkpt>
      <trkpt lat="46.40284" lon="-0.43013">
        <ele>79</ele>
        <time>2011-11-24T11:31:16Z</time>
      </trkpt>
      <trkpt lat="46.40288" lon="-0.43009">
        <ele>79</ele>
        <time>2011-11-24T11:31:21Z</time>
      </trkpt>
      <trkpt lat="46.40293" lon="-0.43005">
        <ele>79</ele>
        <time>2011-11-24T11:31:26Z</time>
      </trkpt>
      <trkpt lat="46.40297" lon="-0.43001">
        <ele>78</ele>
        <time>2011-11-24T11:31:31Z</time>
      </trkpt>
      <trkpt lat="46.40301" lon="-0.42997">
        <ele>77</ele>
        <time>2011-11-24T11:31:36Z</time>
      </trkpt>
      <trkpt lat="46.40307" lon="-0.42992">
        <ele>77</ele>
        <time>2011-11-24T11:31:41Z</time>
      </trkpt>
      <trkpt lat="46.40312" lon="-0.42988">
        <ele>77</ele>
        <time>2011-11-24T11:31:46Z</time>
      </trkpt>
      <trkpt lat="46.40317" lon="-0.42981">
        <ele>79</ele>
        <time>2011-11-24T11:31:51Z</time>
      </trkpt>
      <trkpt lat="46.40321" lon="-0.42978">
        <ele>80</ele>
        <time>2011-11-24T11:31:56Z</time>
      </trkpt>
      <trkpt lat="46.40324" lon="-0.42974">
        <ele>80</ele>
        <time>2011-11-24T11:32:01Z</time>
      </trkpt>
      <trkpt lat="46.40328" lon="-0.42971">
        <ele>77</ele>
        <time>2011-11-24T11:32:06Z</time>
      </trkpt>
      <trkpt lat="46.40332" lon="-0.42967">
        <ele>75</ele>
        <time>2011-11-24T11:32:11Z</time>
      </trkpt>
      <trkpt lat="46.40336" lon="-0.42964">
        <ele>75</ele>
        <time>2011-11-24T11:32:16Z</time>
      </trkpt>
      <trkpt lat="46.40341" lon="-0.42959">
        <ele>74</ele>
        <time>2011-11-24T11:32:21Z</time>
      </trkpt>
      <trkpt lat="46.40345" lon="-0.42956">
        <ele>75</ele>
        <time>2011-11-24T11:32:26Z</time>
      </trkpt>
      <trkpt lat="46.40348" lon="-0.42953">
        <ele>75</ele>
        <time>2011-11-24T11:32:31Z</time>
      </trkpt>
      <trkpt lat="46.40351" lon="-0.42948">
        <ele>74</ele>
        <time>2011-11-24T11:32:36Z</time>
      </trkpt>
      <trkpt lat="46.40356" lon="-0.42942">
        <ele>76</ele>
        <time>2011-11-24T11:32:41Z</time>
      </trkpt>
      <trkpt lat="46.40357" lon="-0.42941">
        <ele>75</ele>
        <time>2011-11-24T11:32:46Z</time>
      </trkpt>
      <trkpt lat="46.40363" lon="-0.42933">
        <ele>76</ele>
        <time>2011-11-24T11:32:51Z</time>
      </trkpt>
      <trkpt lat="46.40368" lon="-0.42929">
        <ele>76</ele>
        <time>2011-11-24T11:32:56Z</time>
      </trkpt>
      <trkpt lat="46.40374" lon="-0.42923">
        <ele>76</ele>
        <time>2011-11-24T11:33:01Z</time>
      </trkpt>
      <trkpt lat="46.40379" lon="-0.42921">
        <ele>75</ele>
        <time>2011-11-24T11:33:06Z</time>
      </trkpt>
      <trkpt lat="46.40385" lon="-0.42917">
        <ele>75</ele>
        <time>2011-11-24T11:33:11Z</time>
      </trkpt>
      <trkpt lat="46.4039" lon="-0.42913">
        <ele>76</ele>
        <time>2011-11-24T11:33:16Z</time>
      </trkpt>
      <trkpt lat="46.40394" lon="-0.42908">
        <ele>75</ele>
        <time>2011-11-24T11:33:21Z</time>
      </trkpt>
      <trkpt lat="46.40399" lon="-0.42902">
        <ele>76</ele>
        <time>2011-11-24T11:33:26Z</time>
      </trkpt>
      <trkpt lat="46.40404" lon="-0.42899">
        <ele>76</ele>
        <time>2011-11-24T11:33:31Z</time>
      </trkpt>
      <trkpt lat="46.40408" lon="-0.42895">
        <ele>77</ele>
        <time>2011-11-24T11:33:36Z</time>
      </trkpt>
      <trkpt lat="46.4041" lon="-0.42892">
        <ele>76</ele>
        <time>2011-11-24T11:33:41Z</time>
      </trkpt>
      <trkpt lat="46.40413" lon="-0.42887">
        <ele>75</ele>
        <time>2011-11-24T11:33:46Z</time>
      </trkpt>
      <trkpt lat="46.40417" lon="-0.42883">
        <ele>73</ele>
        <time>2011-11-24T11:33:51Z</time>
      </trkpt>
      <trkpt lat="46.40421" lon="-0.42876">
        <ele>74</ele>
        <time>2011-11-24T11:33:56Z</time>
      </trkpt>
      <trkpt lat="46.40423" lon="-0.4287">
        <ele>73</ele>
        <time>2011-11-24T11:34:01Z</time>
      </trkpt>
      <trkpt lat="46.40426" lon="-0.42862">
        <ele>74</ele>
        <time>2011-11-24T11:34:06Z</time>
      </trkpt>
      <trkpt lat="46.40428" lon="-0.42856">
        <ele>76</ele>
        <time>2011-11-24T11:34:11Z</time>
      </trkpt>
      <trkpt lat="46.40431" lon="-0.4285">
        <ele>73</ele>
        <time>2011-11-24T11:34:16Z</time>
      </trkpt>
      <trkpt lat="46.40435" lon="-0.42843">
        <ele>73</ele>
        <time>2011-11-24T11:34:21Z</time>
      </trkpt>
      <trkpt lat="46.40435" lon="-0.42835">
        <ele>74</ele>
        <time>2011-11-24T11:34:26Z</time>
      </trkpt>
      <trkpt lat="46.40439" lon="-0.42827">
        <ele>72</ele>
        <time>2011-11-24T11:34:31Z</time>
      </trkpt>
      <trkpt lat="46.40442" lon="-0.42821">
        <ele>72</ele>
        <time>2011-11-24T11:34:36Z</time>
      </trkpt>
      <trkpt lat="46.40445" lon="-0.42812">
        <ele>72</ele>
        <time>2011-11-24T11:34:41Z</time>
      </trkpt>
      <trkpt lat="46.40449" lon="-0.4281">
        <ele>68</ele>
        <time>2011-11-24T11:34:46Z</time>
      </trkpt>
      <trkpt lat="46.40451" lon="-0.42801">
        <ele>69</ele>
        <time>2011-11-24T11:34:51Z</time>
      </trkpt>
      <trkpt lat="46.40452" lon="-0.42795">
        <ele>69</ele>
        <time>2011-11-24T11:34:56Z</time>
      </trkpt>
      <trkpt lat="46.40455" lon="-0.42788">
        <ele>68</ele>
        <time>2011-11-24T11:35:01Z</time>
      </trkpt>
      <trkpt lat="46.40458" lon="-0.42782">
        <ele>67</ele>
        <time>2011-11-24T11:35:06Z</time>
      </trkpt>
      <trkpt lat="46.4046" lon="-0.42776">
        <ele>65</ele>
        <time>2011-11-24T11:35:11Z</time>
      </trkpt>
      <trkpt lat="46.40461" lon="-0.42769">
        <ele>69</ele>
        <time>2011-11-24T11:35:16Z</time>
      </trkpt>
      <trkpt lat="46.40464" lon="-0.4276">
        <ele>72</ele>
        <time>2011-11-24T11:35:21Z</time>
      </trkpt>
      <trkpt lat="46.40465" lon="-0.42753">
        <ele>72</ele>
        <time>2011-11-24T11:35:26Z</time>
      </trkpt>
      <trkpt lat="46.40469" lon="-0.42746">
        <ele>71</ele>
        <time>2011-11-24T11:35:31Z</time>
      </trkpt>
      <trkpt lat="46.4047" lon="-0.4274">
        <ele>72</ele>
        <time>2011-11-24T11:35:36Z</time>
      </trkpt>
      <trkpt lat="46.40475" lon="-0.4273">
        <ele>71</ele>
        <time>2011-11-24T11:35:41Z</time>
      </trkpt>
      <trkpt lat="46.40478" lon="-0.42724">
        <ele>69</ele>
        <time>2011-11-24T11:35:46Z</time>
      </trkpt>
      <trkpt lat="46.40478" lon="-0.42714">
        <ele>73</ele>
        <time>2011-11-24T11:35:51Z</time>
      </trkpt>
      <trkpt lat="46.4048" lon="-0.42709">
        <ele>73</ele>
        <time>2011-11-24T11:35:56Z</time>
      </trkpt>
      <trkpt lat="46.40481" lon="-0.42702">
        <ele>74</ele>
        <time>2011-11-24T11:36:01Z</time>
      </trkpt>
      <trkpt lat="46.40484" lon="-0.42696">
        <ele>73</ele>
        <time>2011-11-24T11:36:06Z</time>
      </trkpt>
      <trkpt lat="46.40487" lon="-0.42687">
        <ele>75</ele>
        <time>2011-11-24T11:36:11Z</time>
      </trkpt>
      <trkpt lat="46.40489" lon="-0.42679">
        <ele>76</ele>
        <time>2011-11-24T11:36:16Z</time>
      </trkpt>
      <trkpt lat="46.40491" lon="-0.4267">
        <ele>78</ele>
        <time>2011-11-24T11:36:21Z</time>
      </trkpt>
      <trkpt lat="46.40495" lon="-0.42664">
        <ele>77</ele>
        <time>2011-11-24T11:36:26Z</time>
      </trkpt>
      <trkpt lat="46.40497" lon="-0.42657">
        <ele>79</ele>
        <time>2011-11-24T11:36:31Z</time>
      </trkpt>
      <trkpt lat="46.40499" lon="-0.42651">
        <ele>79</ele>
        <time>2011-11-24T11:36:36Z</time>
      </trkpt>
      <trkpt lat="46.40501" lon="-0.42644">
        <ele>78</ele>
        <time>2011-11-24T11:36:41Z</time>
      </trkpt>
      <trkpt lat="46.40503" lon="-0.42636">
        <ele>79</ele>
        <time>2011-11-24T11:36:46Z</time>
      </trkpt>
      <trkpt lat="46.40506" lon="-0.42628">
        <ele>79</ele>
        <time>2011-11-24T11:36:51Z</time>
      </trkpt>
      <trkpt lat="46.40508" lon="-0.42621">
        <ele>79</ele>
        <time>2011-11-24T11:36:56Z</time>
      </trkpt>
      <trkpt lat="46.4051" lon="-0.42613">
        <ele>79</ele>
        <time>2011-11-24T11:37:01Z</time>
      </trkpt>
      <trkpt lat="46.40513" lon="-0.42606">
        <ele>80</ele>
        <time>2011-11-24T11:37:06Z</time>
      </trkpt>
      <trkpt lat="46.40511" lon="-0.42603">
        <ele>79</ele>
        <time>2011-11-24T11:37:11Z</time>
      </trkpt>
      <trkpt lat="46.40505" lon="-0.42597">
        <ele>81</ele>
        <time>2011-11-24T11:37:16Z</time>
      </trkpt>
      <trkpt lat="46.405" lon="-0.42596">
        <ele>87</ele>
        <time>2011-11-24T11:37:21Z</time>
      </trkpt>
      <trkpt lat="46.405" lon="-0.42597">
        <ele>85</ele>
        <time>2011-11-24T11:37:26Z</time>
      </trkpt>
      <trkpt lat="46.40502" lon="-0.42599">
        <ele>83</ele>
        <time>2011-11-24T11:37:31Z</time>
      </trkpt>
      <trkpt lat="46.40501" lon="-0.42598">
        <ele>83</ele>
        <time>2011-11-24T11:37:36Z</time>
      </trkpt>
      <trkpt lat="46.40502" lon="-0.42598">
        <ele>83</ele>
        <time>2011-11-24T11:37:41Z</time>
      </trkpt>
      <trkpt lat="46.40501" lon="-0.42597">
        <ele>83</ele>
        <time>2011-11-24T11:37:56Z</time>
      </trkpt>
      <trkpt lat="46.40501" lon="-0.42597">
        <ele>83</ele>
        <time>2011-11-24T11:38:01Z</time>
      </trkpt>
      <trkpt lat="46.405" lon="-0.42597">
        <ele>83</ele>
        <time>2011-11-24T11:38:06Z</time>
      </trkpt>
      <trkpt lat="46.405" lon="-0.42597">
        <ele>83</ele>
        <time>2011-11-24T11:38:11Z</time>
      </trkpt>
      <trkpt lat="46.405" lon="-0.42597">
        <ele>83</ele>
        <time>2011-11-24T11:38:16Z</time>
      </trkpt>
      <trkpt lat="46.40496" lon="-0.42597">
        <ele>85</ele>
        <time>2011-11-24T11:38:36Z</time>
      </trkpt>
      <trkpt lat="46.40491" lon="-0.42594">
        <ele>86</ele>
        <time>2011-11-24T11:38:41Z</time>
      </trkpt>
      <trkpt lat="46.40488" lon="-0.42592">
        <ele>86</ele>
        <time>2011-11-24T11:38:46Z</time>
      </trkpt>
      <trkpt lat="46.40484" lon="-0.42592">
        <ele>83</ele>
        <time>2011-11-24T11:38:51Z</time>
      </trkpt>
      <trkpt lat="46.40479" lon="-0.42591">
        <ele>82</ele>
        <time>2011-11-24T11:38:56Z</time>
      </trkpt>
      <trkpt lat="46.40475" lon="-0.42588">
        <ele>79</ele>
        <time>2011-11-24T11:39:01Z</time>
      </trkpt>
      <trkpt lat="46.40471" lon="-0.42587">
        <ele>80</ele>
        <time>2011-11-24T11:39:06Z</time>
      </trkpt>
      <trkpt lat="46.40466" lon="-0.42584">
        <ele>81</ele>
        <time>2011-11-24T11:39:11Z</time>
      </trkpt>
      <trkpt lat="46.4046" lon="-0.42581">
        <ele>82</ele>
        <time>2011-11-24T11:39:16Z</time>
      </trkpt>
      <trkpt lat="46.40454" lon="-0.42578">
        <ele>83</ele>
        <time>2011-11-24T11:39:21Z</time>
      </trkpt>
      <trkpt lat="46.40448" lon="-0.42575">
        <ele>82</ele>
        <time>2011-11-24T11:39:26Z</time>
      </trkpt>
      <trkpt lat="46.40444" lon="-0.42571">
        <ele>82</ele>
        <time>2011-11-24T11:39:31Z</time>
      </trkpt>
      <trkpt lat="46.4044" lon="-0.42568">
        <ele>80</ele>
        <time>2011-11-24T11:39:36Z</time>
      </trkpt>
      <trkpt lat="46.40435" lon="-0.42565">
        <ele>79</ele>
        <time>2011-11-24T11:39:41Z</time>
      </trkpt>
      <trkpt lat="46.4043" lon="-0.42564">
        <ele>78</ele>
        <time>2011-11-24T11:39:46Z</time>
      </trkpt>
      <trkpt lat="46.40427" lon="-0.42561">
        <ele>79</ele>
        <time>2011-11-24T11:39:51Z</time>
      </trkpt>
      <trkpt lat="46.40425" lon="-0.42554">
        <ele>81</ele>
        <time>2011-11-24T11:39:56Z</time>
      </trkpt>
      <trkpt lat="46.40422" lon="-0.42549">
        <ele>82</ele>
        <time>2011-11-24T11:40:01Z</time>
      </trkpt>
      <trkpt lat="46.4042" lon="-0.42544">
        <ele>80</ele>
        <time>2011-11-24T11:40:06Z</time>
      </trkpt>
      <trkpt lat="46.40416" lon="-0.42541">
        <ele>79</ele>
        <time>2011-11-24T11:40:11Z</time>
      </trkpt>
      <trkpt lat="46.40413" lon="-0.42534">
        <ele>79</ele>
        <time>2011-11-24T11:40:16Z</time>
      </trkpt>
      <trkpt lat="46.40408" lon="-0.42531">
        <ele>80</ele>
        <time>2011-11-24T11:40:21Z</time>
      </trkpt>
      <trkpt lat="46.40406" lon="-0.42526">
        <ele>81</ele>
        <time>2011-11-24T11:40:26Z</time>
      </trkpt>
      <trkpt lat="46.404" lon="-0.4252">
        <ele>81</ele>
        <time>2011-11-24T11:40:31Z</time>
      </trkpt>
      <trkpt lat="46.40395" lon="-0.42516">
        <ele>81</ele>
        <time>2011-11-24T11:40:36Z</time>
      </trkpt>
      <trkpt lat="46.40389" lon="-0.4251">
        <ele>82</ele>
        <time>2011-11-24T11:40:41Z</time>
      </trkpt>
      <trkpt lat="46.40385" lon="-0.42506">
        <ele>81</ele>
        <time>2011-11-24T11:40:46Z</time>
      </trkpt>
      <trkpt lat="46.4038" lon="-0.425">
        <ele>81</ele>
        <time>2011-11-24T11:40:51Z</time>
      </trkpt>
      <trkpt lat="46.40377" lon="-0.42494">
        <ele>82</ele>
        <time>2011-11-24T11:40:56Z</time>
      </trkpt>
      <trkpt lat="46.40372" lon="-0.42488">
        <ele>84</ele>
        <time>2011-11-24T11:41:01Z</time>
      </trkpt>
      <trkpt lat="46.40367" lon="-0.42485">
        <ele>86</ele>
        <time>2011-11-24T11:41:06Z</time>
      </trkpt>
      <trkpt lat="46.40363" lon="-0.4248">
        <ele>87</ele>
        <time>2011-11-24T11:41:11Z</time>
      </trkpt>
      <trkpt lat="46.40358" lon="-0.42477">
        <ele>88</ele>
        <time>2011-11-24T11:41:16Z</time>
      </trkpt>
      <trkpt lat="46.40354" lon="-0.42475">
        <ele>86</ele>
        <time>2011-11-24T11:41:21Z</time>
      </trkpt>
      <trkpt lat="46.40349" lon="-0.42473">
        <ele>84</ele>
        <time>2011-11-24T11:41:26Z</time>
      </trkpt>
      <trkpt lat="46.40344" lon="-0.42471">
        <ele>82</ele>
        <time>2011-11-24T11:41:31Z</time>
      </trkpt>
      <trkpt lat="46.40339" lon="-0.42468">
        <ele>84</ele>
        <time>2011-11-24T11:41:36Z</time>
      </trkpt>
      <trkpt lat="46.40335" lon="-0.42468">
        <ele>83</ele>
        <time>2011-11-24T11:41:41Z</time>
      </trkpt>
      <trkpt lat="46.40329" lon="-0.4247">
        <ele>79</ele>
        <time>2011-11-24T11:41:46Z</time>
      </trkpt>
      <trkpt lat="46.40323" lon="-0.42471">
        <ele>77</ele>
        <time>2011-11-24T11:41:51Z</time>
      </trkpt>
      <trkpt lat="46.40317" lon="-0.42472">
        <ele>78</ele>
        <time>2011-11-24T11:41:56Z</time>
      </trkpt>
      <trkpt lat="46.40312" lon="-0.42475">
        <ele>79</ele>
        <time>2011-11-24T11:42:01Z</time>
      </trkpt>
      <trkpt lat="46.40307" lon="-0.4248">
        <ele>78</ele>
        <time>2011-11-24T11:42:06Z</time>
      </trkpt>
      <trkpt lat="46.40303" lon="-0.42485">
        <ele>77</ele>
        <time>2011-11-24T11:42:11Z</time>
      </trkpt>
      <trkpt lat="46.40299" lon="-0.4249">
        <ele>74</ele>
        <time>2011-11-24T11:42:16Z</time>
      </trkpt>
      <trkpt lat="46.40295" lon="-0.42494">
        <ele>75</ele>
        <time>2011-11-24T11:42:21Z</time>
      </trkpt>
      <trkpt lat="46.40288" lon="-0.42498">
        <ele>75</ele>
        <time>2011-11-24T11:42:26Z</time>
      </trkpt>
      <trkpt lat="46.40284" lon="-0.42501">
        <ele>75</ele>
        <time>2011-11-24T11:42:31Z</time>
      </trkpt>
      <trkpt lat="46.40281" lon="-0.42503">
        <ele>74</ele>
        <time>2011-11-24T11:42:36Z</time>
      </trkpt>
      <trkpt lat="46.40276" lon="-0.42506">
        <ele>77</ele>
        <time>2011-11-24T11:42:41Z</time>
      </trkpt>
      <trkpt lat="46.40271" lon="-0.4251">
        <ele>82</ele>
        <time>2011-11-24T11:42:46Z</time>
      </trkpt>
      <trkpt lat="46.40266" lon="-0.42518">
        <ele>80</ele>
        <time>2011-11-24T11:42:51Z</time>
      </trkpt>
      <trkpt lat="46.40261" lon="-0.42522">
        <ele>81</ele>
        <time>2011-11-24T11:42:56Z</time>
      </trkpt>
      <trkpt lat="46.40258" lon="-0.42527">
        <ele>81</ele>
        <time>2011-11-24T11:43:01Z</time>
      </trkpt>
      <trkpt lat="46.40254" lon="-0.42529">
        <ele>80</ele>
        <time>2011-11-24T11:43:06Z</time>
      </trkpt>
      <trkpt lat="46.40252" lon="-0.4253">
        <ele>80</ele>
        <time>2011-11-24T11:43:11Z</time>
      </trkpt>
      <trkpt lat="46.40245" lon="-0.42539">
        <ele>80</ele>
        <time>2011-11-24T11:43:16Z</time>
      </trkpt>
      <trkpt lat="46.40239" lon="-0.42543">
        <ele>80</ele>
        <time>2011-11-24T11:43:21Z</time>
      </trkpt>
      <trkpt lat="46.40233" lon="-0.42549">
        <ele>80</ele>
        <time>2011-11-24T11:43:26Z</time>
      </trkpt>
      <trkpt lat="46.40229" lon="-0.42555">
        <ele>77</ele>
        <time>2011-11-24T11:43:31Z</time>
      </trkpt>
      <trkpt lat="46.40226" lon="-0.42561">
        <ele>75</ele>
        <time>2011-11-24T11:43:36Z</time>
      </trkpt>
      <trkpt lat="46.40221" lon="-0.42565">
        <ele>76</ele>
        <time>2011-11-24T11:43:41Z</time>
      </trkpt>
      <trkpt lat="46.40216" lon="-0.42567">
        <ele>76</ele>
        <time>2011-11-24T11:43:46Z</time>
      </trkpt>
      <trkpt lat="46.40212" lon="-0.42571">
        <ele>76</ele>
        <time>2011-11-24T11:43:51Z</time>
      </trkpt>
      <trkpt lat="46.40207" lon="-0.42574">
        <ele>77</ele>
        <time>2011-11-24T11:43:56Z</time>
      </trkpt>
      <trkpt lat="46.402" lon="-0.42575">
        <ele>76</ele>
        <time>2011-11-24T11:44:01Z</time>
      </trkpt>
      <trkpt lat="46.40192" lon="-0.42575">
        <ele>76</ele>
        <time>2011-11-24T11:44:06Z</time>
      </trkpt>
      <trkpt lat="46.40187" lon="-0.42577">
        <ele>76</ele>
        <time>2011-11-24T11:44:11Z</time>
      </trkpt>
      <trkpt lat="46.40182" lon="-0.42579">
        <ele>77</ele>
        <time>2011-11-24T11:44:16Z</time>
      </trkpt>
      <trkpt lat="46.40178" lon="-0.42581">
        <ele>75</ele>
        <time>2011-11-24T11:44:21Z</time>
      </trkpt>
      <trkpt lat="46.40174" lon="-0.4258">
        <ele>76</ele>
        <time>2011-11-24T11:44:26Z</time>
      </trkpt>
      <trkpt lat="46.40169" lon="-0.4258">
        <ele>77</ele>
        <time>2011-11-24T11:44:31Z</time>
      </trkpt>
      <trkpt lat="46.40163" lon="-0.42584">
        <ele>74</ele>
        <time>2011-11-24T11:44:36Z</time>
      </trkpt>
      <trkpt lat="46.40158" lon="-0.42585">
        <ele>73</ele>
        <time>2011-11-24T11:44:41Z</time>
      </trkpt>
      <trkpt lat="46.40153" lon="-0.42586">
        <ele>73</ele>
        <time>2011-11-24T11:44:46Z</time>
      </trkpt>
      <trkpt lat="46.40146" lon="-0.42585">
        <ele>76</ele>
        <time>2011-11-24T11:44:51Z</time>
      </trkpt>
      <trkpt lat="46.40139" lon="-0.42585">
        <ele>83</ele>
        <time>2011-11-24T11:44:56Z</time>
      </trkpt>
      <trkpt lat="46.40134" lon="-0.42586">
        <ele>83</ele>
        <time>2011-11-24T11:45:01Z</time>
      </trkpt>
      <trkpt lat="46.40129" lon="-0.42587">
        <ele>83</ele>
        <time>2011-11-24T11:45:06Z</time>
      </trkpt>
      <trkpt lat="46.40124" lon="-0.42588">
        <ele>82</ele>
        <time>2011-11-24T11:45:11Z</time>
      </trkpt>
      <trkpt lat="46.40118" lon="-0.4259">
        <ele>83</ele>
        <time>2011-11-24T11:45:16Z</time>
      </trkpt>
      <trkpt lat="46.40113" lon="-0.42591">
        <ele>82</ele>
        <time>2011-11-24T11:45:21Z</time>
      </trkpt>
      <trkpt lat="46.40106" lon="-0.42592">
        <ele>83</ele>
        <time>2011-11-24T11:45:26Z</time>
      </trkpt>
      <trkpt lat="46.40102" lon="-0.42592">
        <ele>82</ele>
        <time>2011-11-24T11:45:31Z</time>
      </trkpt>
      <trkpt lat="46.40097" lon="-0.42594">
        <ele>82</ele>
        <time>2011-11-24T11:45:36Z</time>
      </trkpt>
      <trkpt lat="46.40093" lon="-0.42594">
        <ele>83</ele>
        <time>2011-11-24T11:45:41Z</time>
      </trkpt>
      <trkpt lat="46.40089" lon="-0.42594">
        <ele>84</ele>
        <time>2011-11-24T11:45:46Z</time>
      </trkpt>
      <trkpt lat="46.40084" lon="-0.42593">
        <ele>85</ele>
        <time>2011-11-24T11:45:51Z</time>
      </trkpt>
      <trkpt lat="46.40078" lon="-0.42595">
        <ele>87</ele>
        <time>2011-11-24T11:45:56Z</time>
      </trkpt>
      <trkpt lat="46.40073" lon="-0.42598">
        <ele>85</ele>
        <time>2011-11-24T11:46:02Z</time>
      </trkpt>
      <trkpt lat="46.40068" lon="-0.426">
        <ele>84</ele>
        <time>2011-11-24T11:46:06Z</time>
      </trkpt>
      <trkpt lat="46.40062" lon="-0.42599">
        <ele>85</ele>
        <time>2011-11-24T11:46:11Z</time>
      </trkpt>
      <trkpt lat="46.40057" lon="-0.42601">
        <ele>82</ele>
        <time>2011-11-24T11:46:16Z</time>
      </trkpt>
      <trkpt lat="46.40052" lon="-0.42599">
        <ele>83</ele>
        <time>2011-11-24T11:46:21Z</time>
      </trkpt>
      <trkpt lat="46.40046" lon="-0.42601">
        <ele>84</ele>
        <time>2011-11-24T11:46:26Z</time>
      </trkpt>
      <trkpt lat="46.4004" lon="-0.426">
        <ele>84</ele>
        <time>2011-11-24T11:46:31Z</time>
      </trkpt>
      <trkpt lat="46.40035" lon="-0.42599">
        <ele>82</ele>
        <time>2011-11-24T11:46:36Z</time>
      </trkpt>
      <trkpt lat="46.4003" lon="-0.426">
        <ele>81</ele>
        <time>2011-11-24T11:46:41Z</time>
      </trkpt>
      <trkpt lat="46.40024" lon="-0.42599">
        <ele>81</ele>
        <time>2011-11-24T11:46:46Z</time>
      </trkpt>
      <trkpt lat="46.40019" lon="-0.426">
        <ele>80</ele>
        <time>2011-11-24T11:46:51Z</time>
      </trkpt>
      <trkpt lat="46.40012" lon="-0.42602">
        <ele>81</ele>
        <time>2011-11-24T11:46:56Z</time>
      </trkpt>
      <trkpt lat="46.40005" lon="-0.42603">
        <ele>83</ele>
        <time>2011-11-24T11:47:01Z</time>
      </trkpt>
      <trkpt lat="46.39999" lon="-0.42604">
        <ele>82</ele>
        <time>2011-11-24T11:47:06Z</time>
      </trkpt>
      <trkpt lat="46.39993" lon="-0.42605">
        <ele>83</ele>
        <time>2011-11-24T11:47:11Z</time>
      </trkpt>
      <trkpt lat="46.39988" lon="-0.42603">
        <ele>86</ele>
        <time>2011-11-24T11:47:16Z</time>
      </trkpt>
      <trkpt lat="46.39982" lon="-0.42602">
        <ele>88</ele>
        <time>2011-11-24T11:47:21Z</time>
      </trkpt>
      <trkpt lat="46.39978" lon="-0.42603">
        <ele>88</ele>
        <time>2011-11-24T11:47:26Z</time>
      </trkpt>
      <trkpt lat="46.39974" lon="-0.42603">
        <ele>88</ele>
        <time>2011-11-24T11:47:31Z</time>
      </trkpt>
      <trkpt lat="46.3997" lon="-0.42604">
        <ele>88</ele>
        <time>2011-11-24T11:47:36Z</time>
      </trkpt>
      <trkpt lat="46.39965" lon="-0.42605">
        <ele>89</ele>
        <time>2011-11-24T11:47:41Z</time>
      </trkpt>
      <trkpt lat="46.3996" lon="-0.42604">
        <ele>95</ele>
        <time>2011-11-24T11:47:46Z</time>
      </trkpt>
      <trkpt lat="46.39954" lon="-0.42605">
        <ele>94</ele>
        <time>2011-11-24T11:47:51Z</time>
      </trkpt>
      <trkpt lat="46.3995" lon="-0.42607">
        <ele>91</ele>
        <time>2011-11-24T11:47:56Z</time>
      </trkpt>
      <trkpt lat="46.39944" lon="-0.42609">
        <ele>89</ele>
        <time>2011-11-24T11:48:01Z</time>
      </trkpt>
      <trkpt lat="46.39937" lon="-0.42612">
        <ele>88</ele>
        <time>2011-11-24T11:48:06Z</time>
      </trkpt>
      <trkpt lat="46.39931" lon="-0.42614">
        <ele>86</ele>
        <time>2011-11-24T11:48:11Z</time>
      </trkpt>
      <trkpt lat="46.39926" lon="-0.42615">
        <ele>85</ele>
        <time>2011-11-24T11:48:16Z</time>
      </trkpt>
      <trkpt lat="46.39921" lon="-0.42615">
        <ele>87</ele>
        <time>2011-11-24T11:48:21Z</time>
      </trkpt>
      <trkpt lat="46.39914" lon="-0.42618">
        <ele>86</ele>
        <time>2011-11-24T11:48:26Z</time>
      </trkpt>
      <trkpt lat="46.39908" lon="-0.42621">
        <ele>86</ele>
        <time>2011-11-24T11:48:31Z</time>
      </trkpt>
      <trkpt lat="46.39906" lon="-0.42622">
        <ele>87</ele>
        <time>2011-11-24T11:48:36Z</time>
      </trkpt>
      <trkpt lat="46.39901" lon="-0.42625">
        <ele>86</ele>
        <time>2011-11-24T11:48:41Z</time>
      </trkpt>
      <trkpt lat="46.39895" lon="-0.42626">
        <ele>86</ele>
        <time>2011-11-24T11:48:46Z</time>
      </trkpt>
      <trkpt lat="46.3989" lon="-0.42629">
        <ele>85</ele>
        <time>2011-11-24T11:48:51Z</time>
      </trkpt>
      <trkpt lat="46.39884" lon="-0.4263">
        <ele>86</ele>
        <time>2011-11-24T11:48:56Z</time>
      </trkpt>
      <trkpt lat="46.3988" lon="-0.42633">
        <ele>84</ele>
        <time>2011-11-24T11:49:01Z</time>
      </trkpt>
      <trkpt lat="46.39873" lon="-0.42635">
        <ele>85</ele>
        <time>2011-11-24T11:49:06Z</time>
      </trkpt>
      <trkpt lat="46.39868" lon="-0.42636">
        <ele>88</ele>
        <time>2011-11-24T11:49:11Z</time>
      </trkpt>
      <trkpt lat="46.39863" lon="-0.4264">
        <ele>86</ele>
        <time>2011-11-24T11:49:16Z</time>
      </trkpt>
      <trkpt lat="46.3986" lon="-0.42642">
        <ele>87</ele>
        <time>2011-11-24T11:49:21Z</time>
      </trkpt>
      <trkpt lat="46.39858" lon="-0.4264">
        <ele>90</ele>
        <time>2011-11-24T11:49:26Z</time>
      </trkpt>
      <trkpt lat="46.39854" lon="-0.42643">
        <ele>89</ele>
        <time>2011-11-24T11:49:31Z</time>
      </trkpt>
      <trkpt lat="46.39847" lon="-0.42646">
        <ele>91</ele>
        <time>2011-11-24T11:49:36Z</time>
      </trkpt>
      <trkpt lat="46.39843" lon="-0.42648">
        <ele>87</ele>
        <time>2011-11-24T11:49:41Z</time>
      </trkpt>
      <trkpt lat="46.39836" lon="-0.4265">
        <ele>88</ele>
        <time>2011-11-24T11:49:46Z</time>
      </trkpt>
      <trkpt lat="46.39831" lon="-0.42654">
        <ele>87</ele>
        <time>2011-11-24T11:49:51Z</time>
      </trkpt>
      <trkpt lat="46.39827" lon="-0.42657">
        <ele>83</ele>
        <time>2011-11-24T11:49:56Z</time>
      </trkpt>
      <trkpt lat="46.39825" lon="-0.4266">
        <ele>78</ele>
        <time>2011-11-24T11:50:01Z</time>
      </trkpt>
      <trkpt lat="46.39819" lon="-0.42663">
        <ele>75</ele>
        <time>2011-11-24T11:50:06Z</time>
      </trkpt>
      <trkpt lat="46.39814" lon="-0.42665">
        <ele>74</ele>
        <time>2011-11-24T11:50:11Z</time>
      </trkpt>
      <trkpt lat="46.39809" lon="-0.42669">
        <ele>74</ele>
        <time>2011-11-24T11:50:16Z</time>
      </trkpt>
      <trkpt lat="46.39803" lon="-0.42669">
        <ele>77</ele>
        <time>2011-11-24T11:50:21Z</time>
      </trkpt>
      <trkpt lat="46.39797" lon="-0.42671">
        <ele>73</ele>
        <time>2011-11-24T11:50:26Z</time>
      </trkpt>
      <trkpt lat="46.39791" lon="-0.42672">
        <ele>75</ele>
        <time>2011-11-24T11:50:31Z</time>
      </trkpt>
      <trkpt lat="46.39784" lon="-0.42673">
        <ele>78</ele>
        <time>2011-11-24T11:50:36Z</time>
      </trkpt>
      <trkpt lat="46.39779" lon="-0.42673">
        <ele>80</ele>
        <time>2011-11-24T11:50:41Z</time>
      </trkpt>
      <trkpt lat="46.39773" lon="-0.42672">
        <ele>83</ele>
        <time>2011-11-24T11:50:46Z</time>
      </trkpt>
      <trkpt lat="46.39768" lon="-0.42673">
        <ele>85</ele>
        <time>2011-11-24T11:50:51Z</time>
      </trkpt>
      <trkpt lat="46.39763" lon="-0.42676">
        <ele>86</ele>
        <time>2011-11-24T11:50:56Z</time>
      </trkpt>
      <trkpt lat="46.39758" lon="-0.42678">
        <ele>87</ele>
        <time>2011-11-24T11:51:01Z</time>
      </trkpt>
      <trkpt lat="46.39754" lon="-0.4268">
        <ele>88</ele>
        <time>2011-11-24T11:51:06Z</time>
      </trkpt>
      <trkpt lat="46.3975" lon="-0.42683">
        <ele>86</ele>
        <time>2011-11-24T11:51:11Z</time>
      </trkpt>
      <trkpt lat="46.39747" lon="-0.42681">
        <ele>87</ele>
        <time>2011-11-24T11:51:16Z</time>
      </trkpt>
      <trkpt lat="46.39744" lon="-0.42679">
        <ele>87</ele>
        <time>2011-11-24T11:51:21Z</time>
      </trkpt>
      <trkpt lat="46.39739" lon="-0.42675">
        <ele>87</ele>
        <time>2011-11-24T11:51:26Z</time>
      </trkpt>
      <trkpt lat="46.39735" lon="-0.42682">
        <ele>80</ele>
        <time>2011-11-24T11:51:31Z</time>
      </trkpt>
      <trkpt lat="46.39729" lon="-0.42684">
        <ele>78</ele>
        <time>2011-11-24T11:51:36Z</time>
      </trkpt>
      <trkpt lat="46.39724" lon="-0.42686">
        <ele>76</ele>
        <time>2011-11-24T11:51:41Z</time>
      </trkpt>
      <trkpt lat="46.39719" lon="-0.4269">
        <ele>74</ele>
        <time>2011-11-24T11:51:46Z</time>
      </trkpt>
      <trkpt lat="46.39716" lon="-0.42691">
        <ele>73</ele>
        <time>2011-11-24T11:51:51Z</time>
      </trkpt>
      <trkpt lat="46.3971" lon="-0.4269">
        <ele>76</ele>
        <time>2011-11-24T11:51:56Z</time>
      </trkpt>
      <trkpt lat="46.39705" lon="-0.42691">
        <ele>79</ele>
        <time>2011-11-24T11:52:01Z</time>
      </trkpt>
      <trkpt lat="46.397" lon="-0.42692">
        <ele>80</ele>
        <time>2011-11-24T11:52:06Z</time>
      </trkpt>
      <trkpt lat="46.39694" lon="-0.42693">
        <ele>84</ele>
        <time>2011-11-24T11:52:11Z</time>
      </trkpt>
      <trkpt lat="46.39691" lon="-0.42694">
        <ele>84</ele>
        <time>2011-11-24T11:52:16Z</time>
      </trkpt>
      <trkpt lat="46.39687" lon="-0.42696">
        <ele>84</ele>
        <time>2011-11-24T11:52:21Z</time>
      </trkpt>
      <trkpt lat="46.39681" lon="-0.42696">
        <ele>88</ele>
        <time>2011-11-24T11:52:26Z</time>
      </trkpt>
      <trkpt lat="46.39675" lon="-0.42699">
        <ele>88</ele>
        <time>2011-11-24T11:52:31Z</time>
      </trkpt>
      <trkpt lat="46.3967" lon="-0.42695">
        <ele>88</ele>
        <time>2011-11-24T11:52:36Z</time>
      </trkpt>
      <trkpt lat="46.39667" lon="-0.42688">
        <ele>86</ele>
        <time>2011-11-24T11:52:41Z</time>
      </trkpt>
      <trkpt lat="46.39666" lon="-0.42684">
        <ele>85</ele>
        <time>2011-11-24T11:52:46Z</time>
      </trkpt>
      <trkpt lat="46.39665" lon="-0.42681">
        <ele>84</ele>
        <time>2011-11-24T11:52:51Z</time>
      </trkpt>
      <trkpt lat="46.39663" lon="-0.42673">
        <ele>84</ele>
        <time>2011-11-24T11:52:56Z</time>
      </trkpt>
      <trkpt lat="46.3966" lon="-0.42669">
        <ele>89</ele>
        <time>2011-11-24T11:53:01Z</time>
      </trkpt>
      <trkpt lat="46.39656" lon="-0.42663">
        <ele>89</ele>
        <time>2011-11-24T11:53:06Z</time>
      </trkpt>
      <trkpt lat="46.39654" lon="-0.42661">
        <ele>88</ele>
        <time>2011-11-24T11:53:11Z</time>
      </trkpt>
      <trkpt lat="46.39649" lon="-0.4265">
        <ele>88</ele>
        <time>2011-11-24T11:53:16Z</time>
      </trkpt>
      <trkpt lat="46.39648" lon="-0.42641">
        <ele>87</ele>
        <time>2011-11-24T11:53:21Z</time>
      </trkpt>
      <trkpt lat="46.39642" lon="-0.4264">
        <ele>88</ele>
        <time>2011-11-24T11:53:26Z</time>
      </trkpt>
      <trkpt lat="46.39637" lon="-0.42639">
        <ele>88</ele>
        <time>2011-11-24T11:53:31Z</time>
      </trkpt>
      <trkpt lat="46.39632" lon="-0.42635">
        <ele>88</ele>
        <time>2011-11-24T11:53:36Z</time>
      </trkpt>
      <trkpt lat="46.39628" lon="-0.42635">
        <ele>88</ele>
        <time>2011-11-24T11:53:41Z</time>
      </trkpt>
      <trkpt lat="46.39623" lon="-0.42633">
        <ele>88</ele>
        <time>2011-11-24T11:53:46Z</time>
      </trkpt>
      <trkpt lat="46.39619" lon="-0.42634">
        <ele>87</ele>
        <time>2011-11-24T11:53:51Z</time>
      </trkpt>
      <trkpt lat="46.39614" lon="-0.42633">
        <ele>86</ele>
        <time>2011-11-24T11:53:56Z</time>
      </trkpt>
      <trkpt lat="46.39609" lon="-0.42631">
        <ele>85</ele>
        <time>2011-11-24T11:54:01Z</time>
      </trkpt>
      <trkpt lat="46.39606" lon="-0.42632">
        <ele>78</ele>
        <time>2011-11-24T11:54:06Z</time>
      </trkpt>
      <trkpt lat="46.39601" lon="-0.42631">
        <ele>77</ele>
        <time>2011-11-24T11:54:11Z</time>
      </trkpt>
      <trkpt lat="46.39597" lon="-0.42627">
        <ele>78</ele>
        <time>2011-11-24T11:54:16Z</time>
      </trkpt>
      <trkpt lat="46.39591" lon="-0.42623">
        <ele>81</ele>
        <time>2011-11-24T11:54:21Z</time>
      </trkpt>
      <trkpt lat="46.39587" lon="-0.42622">
        <ele>82</ele>
        <time>2011-11-24T11:54:26Z</time>
      </trkpt>
      <trkpt lat="46.39583" lon="-0.42618">
        <ele>84</ele>
        <time>2011-11-24T11:54:31Z</time>
      </trkpt>
      <trkpt lat="46.39576" lon="-0.42616">
        <ele>85</ele>
        <time>2011-11-24T11:54:36Z</time>
      </trkpt>
      <trkpt lat="46.39571" lon="-0.42612">
        <ele>83</ele>
        <time>2011-11-24T11:54:41Z</time>
      </trkpt>
      <trkpt lat="46.39566" lon="-0.4261">
        <ele>84</ele>
        <time>2011-11-24T11:54:46Z</time>
      </trkpt>
      <trkpt lat="46.39562" lon="-0.42606">
        <ele>84</ele>
        <time>2011-11-24T11:54:51Z</time>
      </trkpt>
      <trkpt lat="46.39558" lon="-0.42608">
        <ele>82</ele>
        <time>2011-11-24T11:54:56Z</time>
      </trkpt>
      <trkpt lat="46.39551" lon="-0.42604">
        <ele>82</ele>
        <time>2011-11-24T11:55:01Z</time>
      </trkpt>
      <trkpt lat="46.39545" lon="-0.426">
        <ele>82</ele>
        <time>2011-11-24T11:55:06Z</time>
      </trkpt>
      <trkpt lat="46.3954" lon="-0.42598">
        <ele>82</ele>
        <time>2011-11-24T11:55:11Z</time>
      </trkpt>
      <trkpt lat="46.39536" lon="-0.42595">
        <ele>82</ele>
        <time>2011-11-24T11:55:16Z</time>
      </trkpt>
      <trkpt lat="46.39532" lon="-0.42591">
        <ele>83</ele>
        <time>2011-11-24T11:55:21Z</time>
      </trkpt>
      <trkpt lat="46.39528" lon="-0.42585">
        <ele>87</ele>
        <time>2011-11-24T11:55:26Z</time>
      </trkpt>
      <trkpt lat="46.39523" lon="-0.42581">
        <ele>92</ele>
        <time>2011-11-24T11:55:31Z</time>
      </trkpt>
      <trkpt lat="46.39519" lon="-0.42575">
        <ele>95</ele>
        <time>2011-11-24T11:55:36Z</time>
      </trkpt>
      <trkpt lat="46.39514" lon="-0.42571">
        <ele>96</ele>
        <time>2011-11-24T11:55:41Z</time>
      </trkpt>
      <trkpt lat="46.39511" lon="-0.42568">
        <ele>95</ele>
        <time>2011-11-24T11:55:46Z</time>
      </trkpt>
      <trkpt lat="46.39507" lon="-0.42567">
        <ele>90</ele>
        <time>2011-11-24T11:55:51Z</time>
      </trkpt>
      <trkpt lat="46.39503" lon="-0.42565">
        <ele>88</ele>
        <time>2011-11-24T11:55:56Z</time>
      </trkpt>
      <trkpt lat="46.39498" lon="-0.4256">
        <ele>88</ele>
        <time>2011-11-24T11:56:01Z</time>
      </trkpt>
      <trkpt lat="46.39494" lon="-0.42556">
        <ele>91</ele>
        <time>2011-11-24T11:56:06Z</time>
      </trkpt>
      <trkpt lat="46.39492" lon="-0.42553">
        <ele>92</ele>
        <time>2011-11-24T11:56:11Z</time>
      </trkpt>
      <trkpt lat="46.39488" lon="-0.42552">
        <ele>92</ele>
        <time>2011-11-24T11:56:16Z</time>
      </trkpt>
      <trkpt lat="46.39485" lon="-0.42548">
        <ele>93</ele>
        <time>2011-11-24T11:56:21Z</time>
      </trkpt>
      <trkpt lat="46.39481" lon="-0.42544">
        <ele>95</ele>
        <time>2011-11-24T11:56:26Z</time>
      </trkpt>
      <trkpt lat="46.39476" lon="-0.4254">
        <ele>97</ele>
        <time>2011-11-24T11:56:31Z</time>
      </trkpt>
      <trkpt lat="46.39472" lon="-0.42537">
        <ele>98</ele>
        <time>2011-11-24T11:56:36Z</time>
      </trkpt>
      <trkpt lat="46.39467" lon="-0.42532">
        <ele>97</ele>
        <time>2011-11-24T11:56:41Z</time>
      </trkpt>
      <trkpt lat="46.39463" lon="-0.42526">
        <ele>96</ele>
        <time>2011-11-24T11:56:46Z</time>
      </trkpt>
      <trkpt lat="46.3946" lon="-0.42525">
        <ele>97</ele>
        <time>2011-11-24T11:56:51Z</time>
      </trkpt>
      <trkpt lat="46.39455" lon="-0.42519">
        <ele>99</ele>
        <time>2011-11-24T11:56:56Z</time>
      </trkpt>
      <trkpt lat="46.39452" lon="-0.42517">
        <ele>98</ele>
        <time>2011-11-24T11:57:01Z</time>
      </trkpt>
      <trkpt lat="46.39447" lon="-0.42508">
        <ele>99</ele>
        <time>2011-11-24T11:57:06Z</time>
      </trkpt>
      <trkpt lat="46.39443" lon="-0.42504">
        <ele>100</ele>
        <time>2011-11-24T11:57:11Z</time>
      </trkpt>
      <trkpt lat="46.39438" lon="-0.425">
        <ele>97</ele>
        <time>2011-11-24T11:57:16Z</time>
      </trkpt>
      <trkpt lat="46.39433" lon="-0.42499">
        <ele>93</ele>
        <time>2011-11-24T11:57:21Z</time>
      </trkpt>
      <trkpt lat="46.39429" lon="-0.42495">
        <ele>91</ele>
        <time>2011-11-24T11:57:26Z</time>
      </trkpt>
      <trkpt lat="46.3943" lon="-0.42489">
        <ele>92</ele>
        <time>2011-11-24T11:57:31Z</time>
      </trkpt>
      <trkpt lat="46.39431" lon="-0.42481">
        <ele>91</ele>
        <time>2011-11-24T11:57:36Z</time>
      </trkpt>
      <trkpt lat="46.39427" lon="-0.42472">
        <ele>91</ele>
        <time>2011-11-24T11:57:41Z</time>
      </trkpt>
      <trkpt lat="46.39423" lon="-0.42467">
        <ele>90</ele>
        <time>2011-11-24T11:57:46Z</time>
      </trkpt>
      <trkpt lat="46.3942" lon="-0.42466">
        <ele>90</ele>
        <time>2011-11-24T11:57:51Z</time>
      </trkpt>
      <trkpt lat="46.39417" lon="-0.42464">
        <ele>85</ele>
        <time>2011-11-24T11:57:56Z</time>
      </trkpt>
      <trkpt lat="46.39413" lon="-0.42459">
        <ele>85</ele>
        <time>2011-11-24T11:58:01Z</time>
      </trkpt>
      <trkpt lat="46.39408" lon="-0.42454">
        <ele>83</ele>
        <time>2011-11-24T11:58:06Z</time>
      </trkpt>
      <trkpt lat="46.39406" lon="-0.4245">
        <ele>82</ele>
        <time>2011-11-24T11:58:11Z</time>
      </trkpt>
      <trkpt lat="46.394" lon="-0.42445">
        <ele>81</ele>
        <time>2011-11-24T11:58:16Z</time>
      </trkpt>
      <trkpt lat="46.39398" lon="-0.42439">
        <ele>82</ele>
        <time>2011-11-24T11:58:21Z</time>
      </trkpt>
      <trkpt lat="46.39394" lon="-0.42431">
        <ele>81</ele>
        <time>2011-11-24T11:58:26Z</time>
      </trkpt>
      <trkpt lat="46.39392" lon="-0.42424">
        <ele>81</ele>
        <time>2011-11-24T11:58:31Z</time>
      </trkpt>
      <trkpt lat="46.3939" lon="-0.42419">
        <ele>80</ele>
        <time>2011-11-24T11:58:36Z</time>
      </trkpt>
      <trkpt lat="46.39388" lon="-0.42415">
        <ele>78</ele>
        <time>2011-11-24T11:58:41Z</time>
      </trkpt>
      <trkpt lat="46.39386" lon="-0.42408">
        <ele>78</ele>
        <time>2011-11-24T11:58:46Z</time>
      </trkpt>
      <trkpt lat="46.39384" lon="-0.42396">
        <ele>83</ele>
        <time>2011-11-24T11:58:51Z</time>
      </trkpt>
      <trkpt lat="46.39383" lon="-0.42391">
        <ele>80</ele>
        <time>2011-11-24T11:58:56Z</time>
      </trkpt>
      <trkpt lat="46.39383" lon="-0.42386">
        <ele>80</ele>
        <time>2011-11-24T11:59:01Z</time>
      </trkpt>
      <trkpt lat="46.39379" lon="-0.42378">
        <ele>82</ele>
        <time>2011-11-24T11:59:06Z</time>
      </trkpt>
      <trkpt lat="46.39378" lon="-0.42369">
        <ele>80</ele>
        <time>2011-11-24T11:59:11Z</time>
      </trkpt>
      <trkpt lat="46.39376" lon="-0.42362">
        <ele>79</ele>
        <time>2011-11-24T11:59:16Z</time>
      </trkpt>
      <trkpt lat="46.39373" lon="-0.42354">
        <ele>79</ele>
        <time>2011-11-24T11:59:21Z</time>
      </trkpt>
      <trkpt lat="46.39372" lon="-0.42347">
        <ele>80</ele>
        <time>2011-11-24T11:59:26Z</time>
      </trkpt>
      <trkpt lat="46.3937" lon="-0.42341">
        <ele>81</ele>
        <time>2011-11-24T11:59:31Z</time>
      </trkpt>
      <trkpt lat="46.39371" lon="-0.42333">
        <ele>78</ele>
        <time>2011-11-24T11:59:36Z</time>
      </trkpt>
      <trkpt lat="46.39373" lon="-0.42326">
        <ele>78</ele>
        <time>2011-11-24T11:59:41Z</time>
      </trkpt>
      <trkpt lat="46.39375" lon="-0.4232">
        <ele>77</ele>
        <time>2011-11-24T11:59:46Z</time>
      </trkpt>
      <trkpt lat="46.39377" lon="-0.42313">
        <ele>78</ele>
        <time>2011-11-24T11:59:51Z</time>
      </trkpt>
      <trkpt lat="46.39378" lon="-0.42306">
        <ele>81</ele>
        <time>2011-11-24T11:59:56Z</time>
      </trkpt>
      <trkpt lat="46.39382" lon="-0.423">
        <ele>82</ele>
        <time>2011-11-24T12:00:01Z</time>
      </trkpt>
      <trkpt lat="46.39384" lon="-0.42291">
        <ele>83</ele>
        <time>2011-11-24T12:00:06Z</time>
      </trkpt>
      <trkpt lat="46.39386" lon="-0.42282">
        <ele>83</ele>
        <time>2011-11-24T12:00:11Z</time>
      </trkpt>
      <trkpt lat="46.39386" lon="-0.42276">
        <ele>79</ele>
        <time>2011-11-24T12:00:16Z</time>
      </trkpt>
      <trkpt lat="46.39387" lon="-0.42271">
        <ele>77</ele>
        <time>2011-11-24T12:00:21Z</time>
      </trkpt>
      <trkpt lat="46.39386" lon="-0.42264">
        <ele>78</ele>
        <time>2011-11-24T12:00:26Z</time>
      </trkpt>
      <trkpt lat="46.39386" lon="-0.42257">
        <ele>75</ele>
        <time>2011-11-24T12:00:31Z</time>
      </trkpt>
      <trkpt lat="46.39385" lon="-0.42246">
        <ele>75</ele>
        <time>2011-11-24T12:00:36Z</time>
      </trkpt>
      <trkpt lat="46.39384" lon="-0.42237">
        <ele>77</ele>
        <time>2011-11-24T12:00:41Z</time>
      </trkpt>
      <trkpt lat="46.39384" lon="-0.42232">
        <ele>74</ele>
        <time>2011-11-24T12:00:46Z</time>
      </trkpt>
      <trkpt lat="46.39385" lon="-0.42227">
        <ele>72</ele>
        <time>2011-11-24T12:00:51Z</time>
      </trkpt>
      <trkpt lat="46.39384" lon="-0.42219">
        <ele>74</ele>
        <time>2011-11-24T12:00:56Z</time>
      </trkpt>
      <trkpt lat="46.39384" lon="-0.42212">
        <ele>75</ele>
        <time>2011-11-24T12:01:01Z</time>
      </trkpt>
      <trkpt lat="46.39383" lon="-0.42203">
        <ele>78</ele>
        <time>2011-11-24T12:01:06Z</time>
      </trkpt>
      <trkpt lat="46.39384" lon="-0.42199">
        <ele>80</ele>
        <time>2011-11-24T12:01:11Z</time>
      </trkpt>
      <trkpt lat="46.39385" lon="-0.42194">
        <ele>79</ele>
        <time>2011-11-24T12:01:16Z</time>
      </trkpt>
      <trkpt lat="46.39384" lon="-0.42186">
        <ele>79</ele>
        <time>2011-11-24T12:01:21Z</time>
      </trkpt>
      <trkpt lat="46.39381" lon="-0.42177">
        <ele>77</ele>
        <time>2011-11-24T12:01:26Z</time>
      </trkpt>
      <trkpt lat="46.39379" lon="-0.42166">
        <ele>74</ele>
        <time>2011-11-24T12:01:31Z</time>
      </trkpt>
      <trkpt lat="46.39378" lon="-0.42157">
        <ele>76</ele>
        <time>2011-11-24T12:01:36Z</time>
      </trkpt>
      <trkpt lat="46.39376" lon="-0.42148">
        <ele>77</ele>
        <time>2011-11-24T12:01:41Z</time>
      </trkpt>
      <trkpt lat="46.39376" lon="-0.42138">
        <ele>79</ele>
        <time>2011-11-24T12:01:46Z</time>
      </trkpt>
      <trkpt lat="46.3938" lon="-0.42132">
        <ele>82</ele>
        <time>2011-11-24T12:01:51Z</time>
      </trkpt>
      <trkpt lat="46.39385" lon="-0.42129">
        <ele>82</ele>
        <time>2011-11-24T12:01:56Z</time>
      </trkpt>
      <trkpt lat="46.39386" lon="-0.42125">
        <ele>82</ele>
        <time>2011-11-24T12:02:01Z</time>
      </trkpt>
      <trkpt lat="46.39384" lon="-0.4212">
        <ele>81</ele>
        <time>2011-11-24T12:02:06Z</time>
      </trkpt>
      <trkpt lat="46.39385" lon="-0.42113">
        <ele>83</ele>
        <time>2011-11-24T12:02:11Z</time>
      </trkpt>
      <trkpt lat="46.39384" lon="-0.42107">
        <ele>82</ele>
        <time>2011-11-24T12:02:16Z</time>
      </trkpt>
      <trkpt lat="46.3938" lon="-0.42099">
        <ele>81</ele>
        <time>2011-11-24T12:02:21Z</time>
      </trkpt>
      <trkpt lat="46.39376" lon="-0.42094">
        <ele>79</ele>
        <time>2011-11-24T12:02:26Z</time>
      </trkpt>
      <trkpt lat="46.39373" lon="-0.42084">
        <ele>81</ele>
        <time>2011-11-24T12:02:31Z</time>
      </trkpt>
      <trkpt lat="46.3937" lon="-0.42078">
        <ele>81</ele>
        <time>2011-11-24T12:02:36Z</time>
      </trkpt>
      <trkpt lat="46.39367" lon="-0.42072">
        <ele>82</ele>
        <time>2011-11-24T12:02:41Z</time>
      </trkpt>
      <trkpt lat="46.39363" lon="-0.42064">
        <ele>83</ele>
        <time>2011-11-24T12:02:46Z</time>
      </trkpt>
      <trkpt lat="46.3936" lon="-0.42057">
        <ele>85</ele>
        <time>2011-11-24T12:02:51Z</time>
      </trkpt>
      <trkpt lat="46.39358" lon="-0.42053">
        <ele>83</ele>
        <time>2011-11-24T12:02:56Z</time>
      </trkpt>
      <trkpt lat="46.3936" lon="-0.42047">
        <ele>83</ele>
        <time>2011-11-24T12:03:01Z</time>
      </trkpt>
      <trkpt lat="46.3936" lon="-0.4204">
        <ele>81</ele>
        <time>2011-11-24T12:03:06Z</time>
      </trkpt>
      <trkpt lat="46.39356" lon="-0.42033">
        <ele>82</ele>
        <time>2011-11-24T12:03:11Z</time>
      </trkpt>
      <trkpt lat="46.39351" lon="-0.42029">
        <ele>82</ele>
        <time>2011-11-24T12:03:16Z</time>
      </trkpt>
      <trkpt lat="46.39346" lon="-0.42024">
        <ele>81</ele>
        <time>2011-11-24T12:03:21Z</time>
      </trkpt>
      <trkpt lat="46.3934" lon="-0.42023">
        <ele>81</ele>
        <time>2011-11-24T12:03:26Z</time>
      </trkpt>
      <trkpt lat="46.39334" lon="-0.42022">
        <ele>80</ele>
        <time>2011-11-24T12:03:31Z</time>
      </trkpt>
      <trkpt lat="46.39329" lon="-0.42019">
        <ele>81</ele>
        <time>2011-11-24T12:03:36Z</time>
      </trkpt>
      <trkpt lat="46.39325" lon="-0.42013">
        <ele>82</ele>
        <time>2011-11-24T12:03:41Z</time>
      </trkpt>
      <trkpt lat="46.39323" lon="-0.42004">
        <ele>81</ele>
        <time>2011-11-24T12:03:46Z</time>
      </trkpt>
      <trkpt lat="46.39324" lon="-0.41998">
        <ele>80</ele>
        <time>2011-11-24T12:03:51Z</time>
      </trkpt>
      <trkpt lat="46.39325" lon="-0.4199">
        <ele>80</ele>
        <time>2011-11-24T12:03:56Z</time>
      </trkpt>
      <trkpt lat="46.39325" lon="-0.41982">
        <ele>80</ele>
        <time>2011-11-24T12:04:01Z</time>
      </trkpt>
      <trkpt lat="46.39325" lon="-0.41974">
        <ele>79</ele>
        <time>2011-11-24T12:04:06Z</time>
      </trkpt>
      <trkpt lat="46.39326" lon="-0.41966">
        <ele>78</ele>
        <time>2011-11-24T12:04:11Z</time>
      </trkpt>
      <trkpt lat="46.39326" lon="-0.41959">
        <ele>79</ele>
        <time>2011-11-24T12:04:16Z</time>
      </trkpt>
      <trkpt lat="46.39325" lon="-0.41952">
        <ele>79</ele>
        <time>2011-11-24T12:04:21Z</time>
      </trkpt>
      <trkpt lat="46.39324" lon="-0.41944">
        <ele>79</ele>
        <time>2011-11-24T12:04:26Z</time>
      </trkpt>
      <trkpt lat="46.39324" lon="-0.41935">
        <ele>80</ele>
        <time>2011-11-24T12:04:31Z</time>
      </trkpt>
      <trkpt lat="46.39324" lon="-0.41927">
        <ele>81</ele>
        <time>2011-11-24T12:04:36Z</time>
      </trkpt>
      <trkpt lat="46.39324" lon="-0.4192">
        <ele>81</ele>
        <time>2011-11-24T12:04:41Z</time>
      </trkpt>
      <trkpt lat="46.39325" lon="-0.41915">
        <ele>81</ele>
        <time>2011-11-24T12:04:46Z</time>
      </trkpt>
      <trkpt lat="46.39325" lon="-0.41908">
        <ele>80</ele>
        <time>2011-11-24T12:04:51Z</time>
      </trkpt>
      <trkpt lat="46.39325" lon="-0.419">
        <ele>80</ele>
        <time>2011-11-24T12:04:56Z</time>
      </trkpt>
      <trkpt lat="46.39325" lon="-0.41894">
        <ele>82</ele>
        <time>2011-11-24T12:05:01Z</time>
      </trkpt>
      <trkpt lat="46.39324" lon="-0.41886">
        <ele>82</ele>
        <time>2011-11-24T12:05:06Z</time>
      </trkpt>
      <trkpt lat="46.39323" lon="-0.41876">
        <ele>83</ele>
        <time>2011-11-24T12:05:11Z</time>
      </trkpt>
      <trkpt lat="46.39323" lon="-0.41868">
        <ele>82</ele>
        <time>2011-11-24T12:05:16Z</time>
      </trkpt>
      <trkpt lat="46.39323" lon="-0.41859">
        <ele>81</ele>
        <time>2011-11-24T12:05:21Z</time>
      </trkpt>
      <trkpt lat="46.39324" lon="-0.4185">
        <ele>82</ele>
        <time>2011-11-24T12:05:26Z</time>
      </trkpt>
      <trkpt lat="46.39323" lon="-0.41842">
        <ele>82</ele>
        <time>2011-11-24T12:05:31Z</time>
      </trkpt>
      <trkpt lat="46.39323" lon="-0.41835">
        <ele>82</ele>
        <time>2011-11-24T12:05:36Z</time>
      </trkpt>
      <trkpt lat="46.39323" lon="-0.41829">
        <ele>83</ele>
        <time>2011-11-24T12:05:41Z</time>
      </trkpt>
      <trkpt lat="46.39323" lon="-0.4182">
        <ele>83</ele>
        <time>2011-11-24T12:05:46Z</time>
      </trkpt>
      <trkpt lat="46.39323" lon="-0.41813">
        <ele>82</ele>
        <time>2011-11-24T12:05:51Z</time>
      </trkpt>
      <trkpt lat="46.39323" lon="-0.41806">
        <ele>83</ele>
        <time>2011-11-24T12:05:56Z</time>
      </trkpt>
      <trkpt lat="46.39324" lon="-0.41795">
        <ele>82</ele>
        <time>2011-11-24T12:06:01Z</time>
      </trkpt>
      <trkpt lat="46.3932" lon="-0.41788">
        <ele>79</ele>
        <time>2011-11-24T12:06:06Z</time>
      </trkpt>
      <trkpt lat="46.3932" lon="-0.41782">
        <ele>79</ele>
        <time>2011-11-24T12:06:11Z</time>
      </trkpt>
      <trkpt lat="46.39316" lon="-0.41775">
        <ele>79</ele>
        <time>2011-11-24T12:06:16Z</time>
      </trkpt>
      <trkpt lat="46.39311" lon="-0.41773">
        <ele>80</ele>
        <time>2011-11-24T12:06:21Z</time>
      </trkpt>
      <trkpt lat="46.39306" lon="-0.41772">
        <ele>77</ele>
        <time>2011-11-24T12:06:26Z</time>
      </trkpt>
      <trkpt lat="46.39299" lon="-0.41772">
        <ele>77</ele>
        <time>2011-11-24T12:06:31Z</time>
      </trkpt>
      <trkpt lat="46.39294" lon="-0.41772">
        <ele>76</ele>
        <time>2011-11-24T12:06:36Z</time>
      </trkpt>
      <trkpt lat="46.39288" lon="-0.41772">
        <ele>78</ele>
        <time>2011-11-24T12:06:41Z</time>
      </trkpt>
      <trkpt lat="46.39282" lon="-0.41773">
        <ele>77</ele>
        <time>2011-11-24T12:06:46Z</time>
      </trkpt>
      <trkpt lat="46.39277" lon="-0.41774">
        <ele>75</ele>
        <time>2011-11-24T12:06:51Z</time>
      </trkpt>
      <trkpt lat="46.39272" lon="-0.41774">
        <ele>77</ele>
        <time>2011-11-24T12:06:56Z</time>
      </trkpt>
      <trkpt lat="46.39268" lon="-0.41774">
        <ele>79</ele>
        <time>2011-11-24T12:07:01Z</time>
      </trkpt>
      <trkpt lat="46.39262" lon="-0.41774">
        <ele>79</ele>
        <time>2011-11-24T12:07:06Z</time>
      </trkpt>
      <trkpt lat="46.39255" lon="-0.41775">
        <ele>81</ele>
        <time>2011-11-24T12:07:11Z</time>
      </trkpt>
      <trkpt lat="46.39251" lon="-0.41777">
        <ele>81</ele>
        <time>2011-11-24T12:07:16Z</time>
      </trkpt>
      <trkpt lat="46.39246" lon="-0.41778">
        <ele>81</ele>
        <time>2011-11-24T12:07:21Z</time>
      </trkpt>
      <trkpt lat="46.3924" lon="-0.41782">
        <ele>82</ele>
        <time>2011-11-24T12:07:26Z</time>
      </trkpt>
      <trkpt lat="46.39235" lon="-0.41782">
        <ele>82</ele>
        <time>2011-11-24T12:07:31Z</time>
      </trkpt>
      <trkpt lat="46.3923" lon="-0.4178">
        <ele>82</ele>
        <time>2011-11-24T12:07:36Z</time>
      </trkpt>
      <trkpt lat="46.39225" lon="-0.41779">
        <ele>83</ele>
        <time>2011-11-24T12:07:41Z</time>
      </trkpt>
      <trkpt lat="46.39221" lon="-0.41775">
        <ele>85</ele>
        <time>2011-11-24T12:07:46Z</time>
      </trkpt>
      <trkpt lat="46.39221" lon="-0.41774">
        <ele>83</ele>
        <time>2011-11-24T12:07:51Z</time>
      </trkpt>
      <trkpt lat="46.39222" lon="-0.4177">
        <ele>84</ele>
        <time>2011-11-24T12:07:56Z</time>
      </trkpt>
      <trkpt lat="46.39224" lon="-0.41765">
        <ele>85</ele>
        <time>2011-11-24T12:08:01Z</time>
      </trkpt>
      <trkpt lat="46.39225" lon="-0.41765">
        <ele>84</ele>
        <time>2011-11-24T12:08:06Z</time>
      </trkpt>
      <trkpt lat="46.39224" lon="-0.41767">
        <ele>82</ele>
        <time>2011-11-24T12:08:11Z</time>
      </trkpt>
      <trkpt lat="46.39224" lon="-0.41768">
        <ele>83</ele>
        <time>2011-11-24T12:08:16Z</time>
      </trkpt>
      <trkpt lat="46.39223" lon="-0.41767">
        <ele>82</ele>
        <time>2011-11-24T12:08:21Z</time>
      </trkpt>
      <trkpt lat="46.39222" lon="-0.41768">
        <ele>83</ele>
        <time>2011-11-24T12:08:26Z</time>
      </trkpt>
      <trkpt lat="46.39222" lon="-0.41769">
        <ele>83</ele>
        <time>2011-11-24T12:08:31Z</time>
      </trkpt>
      <trkpt lat="46.39222" lon="-0.41769">
        <ele>84</ele>
        <time>2011-11-24T12:08:46Z</time>
      </trkpt>
      <trkpt lat="46.39221" lon="-0.41769">
        <ele>84</ele>
        <time>2011-11-24T12:08:56Z</time>
      </trkpt>
      <trkpt lat="46.39222" lon="-0.41768">
        <ele>84</ele>
        <time>2011-11-24T12:09:01Z</time>
      </trkpt>
      <trkpt lat="46.39221" lon="-0.41768">
        <ele>84</ele>
        <time>2011-11-24T12:09:11Z</time>
      </trkpt>
      <trkpt lat="46.39222" lon="-0.41768">
        <ele>84</ele>
        <time>2011-11-24T12:09:36Z</time>
      </trkpt>
    </trkseg>
  </trk>
</gpx>